GFSSGP_sfc_rhum_000.txt.gz
RH
40 17 19 36 58 50 48 38 26 30 27 20 17 20 24 26 28 56 58 53 47 55 61 74 79 75 69 64 61 62 59 58 55 52 57 63 58 56 56 55 54 58 61 58 58 59 53 54 58
33 20 30 44 52 54 43 27 35 31 21 20 20 19 21 27 31 50 58 48 44 50 59 71 82 77 69 65 62 61 57 57 54 55 60 64 61 55 59 59 56 52 54 57 58 60 55 54 54
37 16 40 44 49 46 40 32 32 21 18 20 21 20 21 28 27 45 54 48 44 53 53 64 83 76 70 64 62 60 56 58 55 64 63 63 60 54 56 55 52 54 56 54 56 60 56 55 64
26 29 28 44 38 32 31 45 26 22 19 18 18 22 28 28 30 44 47 45 47 50 70 84 84 76 72 69 64 61 58 58 55 56 65 65 60 57 56 51 52 54 55 57 55 58 58 56 60
28 29 36 34 32 25 22 50 23 25 22 18 17 23 37 39 43 44 48 42 47 48 70 78 85 76 71 65 66 62 59 59 54 58 62 59 62 57 56 59 57 59 62 60 59 59 59 62 60
37 27 34 35 25 20 18 24 22 24 21 17 20 20 44 39 43 48 46 47 43 46 60 75 82 78 74 69 66 65 63 61 59 62 59 57 50 58 60 60 66 63 63 60 58 58 61 62 61
42 38 32 23 20 21 19 20 26 24 22 19 19 24 41 41 44 46 48 45 46 45 53 69 75 76 78 77 73 71 67 67 66 63 61 63 66 65 66 69 71 69 63 59 56 52 56 63 62
36 36 29 26 22 24 19 23 21 21 24 17 18 25 38 41 46 47 46 47 50 48 47 58 65 68 71 72 78 75 75 72 73 73 74 75 77 75 74 78 76 71 66 61 52 49 52 61 65
32 43 35 31 25 23 23 24 21 21 20 20 18 26 41 46 46 52 55 53 52 46 48 47 55 60 61 59 73 80 80 76 78 77 79 81 78 77 75 79 79 72 68 62 52 51 56 61 67
42 50 32 20 21 28 25 26 23 25 22 21 21 30 45 50 52 57 59 60 57 55 51 49 52 54 54 40 71 71 71 80 78 74 86 79 70 70 66 84 83 73 72 68 58 54 57 66 62
38 43 30 20 23 26 26 25 23 23 28 23 21 32 41 54 54 52 52 51 55 54 54 50 52 54 54 48 69 65 66 67 66 66 64 69 58 77 77 93 92 94 90 88 73 74 77 68 59
39 28 24 23 25 27 26 24 25 24 23 20 20 26 39 51 53 51 48 44 47 51 52 51 50 56 55 54 53 59 62 63 66 64 58 66 68 69 73 74 82 83 84 88 80 74 67 56 47
33 26 22 21 22 28 23 25 26 25 21 19 19 22 36 41 44 43 41 38 36 43 46 50 54 55 58 56 54 53 58 62 61 63 59 63 69 68 66 67 69 69 68 70 69 65 59 58 50
26 28 25 23 22 23 24 25 27 22 21 21 20 22 25 32 36 37 40 38 36 36 40 43 50 56 57 59 60 55 55 58 60 64 66 59 66 69 67 65 67 69 68 66 66 64 60 61 61
25 30 30 26 24 24 26 28 26 21 23 23 21 21 21 23 24 28 35 38 36 35 35 38 44 54 62 60 60 61 62 56 63 62 61 62 64 69 67 66 68 70 68 65 67 65 64 64 59
33 34 41 26 24 24 27 35 20 19 36 23 21 21 22 21 21 22 24 30 35 37 37 36 32 45 59 62 63 63 64 64 66 64 63 61 61 67 72 72 68 68 70 71 73 73 73 73 71
36 39 33 27 23 24 28 33 25 20 21 22 21 21 19 19 20 22 23 26 28 34 37 39 40 43 54 61 62 65 63 65 67 67 65 61 58 60 65 68 68 65 70 72 72 74 76 79 78
38 33 27 28 28 28 29 29 22 20 20 22 20 21 19 18 18 18 18 21 23 28 30 36 42 43 47 58 64 70 71 70 69 65 62 62 57 58 63 65 67 66 65 71 76 76 78 76 78
30 28 25 23 26 33 28 26 25 19 19 29 18 22 22 20 21 22 26 28 27 26 29 32 35 44 50 61 70 78 75 78 76 68 64 63 59 58 61 64 66 68 67 64 66 71 75 75 80
29 30 29 30 26 34 28 29 21 20 20 20 23 26 29 27 26 27 30 38 39 41 39 36 33 38 47 55 63 67 71 69 66 68 65 63 62 63 62 64 68 68 70 71 67 69 76 74 83
33 35 36 36 31 30 34 35 26 22 22 24 26 29 30 32 32 34 37 42 51 54 51 44 42 40 42 49 60 65 68 74 77 70 71 71 67 67 68 66 68 72 71 74 73 70 74 79 87
37 34 35 33 38 46 32 47 31 26 29 28 34 36 36 34 34 37 40 44 50 56 57 50 42 40 38 45 56 64 71 77 74 72 71 72 71 67 68 69 71 72 73 75 76 73 72 71 75
41 39 37 36 39 41 35 44 31 28 33 33 33 37 37 36 36 39 43 43 50 56 56 51 45 42 42 42 45 56 68 70 72 71 68 67 67 66 68 70 73 73 72 70 74 74 71 69 76
34 33 34 37 41 52 36 36 35 29 31 35 34 35 35 36 35 38 42 45 51 56 55 51 44 41 42 49 54 57 58 61 65 68 70 69 66 69 75 73 74 74 75 76 77 77 77 78 76
33 42 56 62 61 51 31 40 33 24 27 30 34 37 38 37 38 41 48 50 52 53 53 45 47 45 44 45 45 44 52 64 73 73 73 72 71 71 71 73 77 75 75 77 78 79 82 83 83
33 43 58 71 59 45 34 47 33 21 23 26 31 36 37 38 38 44 48 51 52 52 54 52 50 50 48 48 46 44 45 51 53 57 55 62 65 70 68 71 72 75 73 74 76 79 82 82 85
41 51 39 45 59 53 42 40 28 22 25 26 31 36 41 40 38 43 49 49 51 52 51 50 48 48 49 48 49 48 47 47 49 48 49 53 52 44 46 57 65 68 69 66 67 74 74 78 79
32 27 44 45 57 63 42 48 36 28 27 26 33 38 40 39 40 43 46 49 49 50 50 48 46 47 49 49 48 46 48 48 48 48 49 48 47 46 48 49 51 54 60 65 70 72 71 71 73
37 38 34 35 38 51 51 42 30 30 25 25 35 39 41 42 44 46 46 46 46 46 47 46 46 47 49 50 50 52 53 52 51 51 50 49 48 48 47 46 47 49 52 52 55 58 63 71 71
40 38 33 48 48 45 47 45 28 30 36 37 39 39 40 43 46 46 46 45 46 47 47 46 47 49 51 53 55 56 56 58 59 58 56 54 54 52 50 49 48 47 48 51 57 56 57 63 66

GFSSGP_sfc_rhum_003.txt.gz
RH
56 37 33 35 54 62 64 50 43 46 30 26 23 20 26 32 32 36 72 61 73 80 78 77 82 77 70 68 66 63 59 59 55 54 61 64 63 59 56 57 57 63 62 60 60 59 57 55 68
58 35 34 46 56 68 60 42 44 39 24 24 22 21 27 32 49 62 70 52 66 72 81 81 84 78 70 66 66 64 62 58 57 58 67 68 65 62 61 61 56 54 60 59 62 56 53 52 52
41 36 38 50 61 60 56 50 43 34 20 22 24 21 27 31 50 60 64 52 59 71 75 80 85 79 71 67 66 63 59 61 59 64 64 66 64 59 58 57 54 59 58 58 60 61 57 55 52
32 30 32 48 51 43 40 42 36 29 21 21 20 30 36 49 40 57 56 53 67 73 76 86 86 78 76 72 66 64 59 58 57 65 69 64 64 61 57 55 53 58 58 59 57 61 59 54 58
36 35 42 41 37 33 32 33 26 32 25 22 21 28 43 54 58 57 56 52 60 87 85 85 86 80 75 69 68 65 62 60 58 66 67 63 62 54 59 61 59 61 64 62 60 60 62 62 62
40 35 40 44 35 25 24 27 24 30 26 22 20 36 48 54 58 59 54 55 54 80 83 83 86 81 76 73 71 68 64 62 58 61 64 62 58 62 64 61 64 64 68 66 62 61 63 66 63
46 49 44 39 32 26 20 26 36 27 31 24 20 38 59 56 56 57 55 54 53 77 86 91 85 80 81 78 76 73 71 64 68 64 65 65 67 69 64 66 71 67 70 64 62 58 60 66 66
43 42 43 41 31 30 22 25 23 24 26 20 22 35 52 45 54 57 57 56 57 76 82 93 91 86 87 87 81 80 76 73 73 75 75 75 75 78 76 80 78 73 70 67 63 56 54 58 65
41 53 45 36 36 30 29 30 25 23 25 21 28 38 48 51 56 61 64 65 62 56 72 83 88 87 84 80 82 81 79 75 77 81 82 82 87 86 87 86 85 78 73 69 62 54 56 66 74
49 60 44 29 32 28 30 30 29 27 26 28 40 59 56 55 63 63 65 67 67 63 59 65 78 79 81 60 77 90 84 89 90 89 91 90 90 86 76 88 86 78 76 74 65 57 61 72 75
47 54 41 34 32 28 29 27 27 30 32 28 24 48 60 64 63 65 66 67 67 66 64 59 68 70 73 64 81 85 91 95 93 89 90 90 78 89 92 98 96 96 90 94 81 77 76 82 80
54 40 36 34 29 30 30 27 27 32 27 24 26 36 62 66 64 64 66 63 66 67 64 61 61 68 67 67 80 77 77 83 84 81 80 86 88 90 94 97 98 98 97 98 97 94 87 85 72
51 41 34 28 28 28 28 31 28 27 24 25 28 40 52 63 66 62 58 56 56 63 63 65 65 70 71 69 69 76 72 75 73 76 74 75 81 82 83 88 90 93 90 92 96 90 78 76 68
36 36 32 30 28 29 31 28 32 24 24 25 23 33 44 50 55 58 58 55 52 52 58 61 63 69 71 68 64 60 70 74 74 74 75 70 73 76 77 77 75 78 77 77 80 78 72 68 67
36 40 37 34 32 30 29 30 27 22 26 24 26 27 27 38 43 46 45 48 44 44 49 56 60 61 73 73 70 58 61 64 68 69 72 70 71 76 74 72 71 69 73 72 75 77 74 72 66
41 46 55 38 32 31 26 39 27 24 26 25 24 25 27 25 28 32 34 44 46 46 44 48 47 59 65 78 75 70 62 63 65 63 66 69 67 72 76 73 68 69 74 73 77 76 77 79 74
53 58 49 38 29 30 30 38 28 25 26 26 26 25 23 23 24 26 27 28 32 46 45 46 48 60 66 65 69 75 68 66 65 70 64 60 66 67 68 68 71 76 77 74 73 79 77 78 75
57 53 42 38 32 32 35 34 30 26 25 28 29 27 28 30 31 36 38 41 40 38 38 48 48 49 65 67 69 81 81 72 80 69 66 69 61 66 72 69 71 82 75 73 88 75 87 73 72
41 43 38 33 32 32 34 35 29 24 23 29 32 34 33 32 35 37 44 52 54 52 50 46 43 55 55 81 83 86 75 92 90 85 76 75 71 69 74 70 79 84 75 70 71 75 82 75 92
37 39 38 34 30 34 36 35 28 22 26 32 37 39 38 39 39 42 47 57 60 62 59 52 48 47 57 62 71 81 88 89 85 85 82 79 77 75 74 70 72 76 76 77 75 76 75 75 87
37 45 49 44 36 37 48 42 30 28 30 36 37 37 40 42 44 49 52 57 60 61 62 55 49 46 49 61 72 75 80 84 88 89 88 83 78 74 75 70 72 74 79 77 79 78 77 78 90
42 37 37 40 44 52 41 52 38 35 36 40 45 43 43 44 47 50 52 56 60 61 57 50 50 51 49 52 60 70 78 81 83 82 80 79 81 76 74 74 76 78 80 80 79 78 78 74 78
43 42 40 42 47 57 44 47 40 40 43 43 46 46 43 44 47 50 54 54 59 61 58 53 49 48 49 51 61 67 69 76 79 79 78 78 75 79 79 77 78 82 82 82 78 76 83 82 80
35 40 43 47 48 61 46 43 44 41 42 43 45 45 41 41 46 50 54 54 57 60 58 57 52 52 51 51 50 53 56 67 74 79 80 80 79 77 78 85 84 82 81 83 81 80 77 82 84
37 49 65 66 67 62 38 42 38 30 36 36 43 46 46 44 48 53 57 57 58 60 59 54 55 54 53 53 51 51 52 55 59 61 69 65 75 79 72 76 74 76 80 81 81 85 89 87 88
39 45 68 75 70 55 39 46 33 27 35 39 41 45 44 45 52 53 55 56 58 56 56 55 54 54 53 53 53 54 54 58 56 56 56 58 60 62 58 56 58 61 67 76 81 88 90 89 90
42 51 44 51 66 60 54 48 28 34 40 44 46 47 47 45 50 53 55 56 56 55 54 56 52 53 55 55 56 56 58 59 59 59 60 62 58 47 49 53 53 51 52 56 73 74 84 81 81
35 34 46 53 61 68 54 57 43 37 37 38 48 50 49 47 50 53 54 53 52 54 54 53 53 56 58 60 61 60 63 64 64 64 65 64 58 59 58 59 57 54 53 52 54 57 58 64 68
45 42 38 43 51 57 60 47 36 31 31 36 45 49 49 50 53 53 52 52 52 54 57 59 60 62 62 62 63 67 68 69 65 65 64 63 61 61 58 56 57 57 57 56 57 56 57 58 61
46 42 40 52 55 56 54 48 34 46 38 46 48 46 50 52 54 53 51 53 57 63 63 65 66 67 70 69 71 70 72 73 69 64 63 56 58 57 56 55 58 58 56 56 58 59 57 58 61

GFSSGP_sfc_rhum_006.txt.gz
RH
58 49 40 41 51 64 69 58 48 46 37 26 25 26 27 34 28 26 71 71 83 82 82 79 81 81 74 70 68 66 62 59 54 58 57 68 64 60 58 58 60 67 63 57 57 53 59 59 72
64 38 37 53 57 73 62 49 52 42 36 24 25 30 28 34 56 74 72 82 79 82 83 84 85 78 72 71 68 65 61 60 56 57 66 67 64 63 62 60 56 55 58 60 63 54 53 54 60
38 35 38 52 66 64 60 51 46 37 27 23 26 26 31 33 56 68 68 76 79 85 86 84 87 79 72 69 69 65 63 60 59 59 67 70 64 64 61 58 56 59 60 60 64 59 55 53 52
36 33 36 50 55 46 48 39 34 39 28 21 24 33 39 53 52 57 62 70 83 92 94 90 87 79 76 71 68 65 61 62 61 70 70 68 65 63 58 56 58 60 59 59 59 63 59 58 55
39 37 42 50 40 37 31 28 30 35 34 25 22 33 43 56 69 63 64 69 80 88 94 89 87 81 75 71 70 66 62 62 59 61 66 65 66 60 59 59 58 61 62 63 60 62 64 58 62
42 38 43 44 37 29 25 23 25 34 35 24 25 38 45 62 67 65 61 69 72 85 88 88 87 84 79 73 72 69 65 65 61 63 66 64 62 60 60 64 63 63 69 69 65 62 63 67 66
48 51 52 45 37 30 24 26 35 32 36 23 24 42 64 68 61 61 63 66 84 90 93 93 90 86 82 78 78 74 69 71 68 62 66 69 69 68 67 65 69 68 69 70 67 63 62 65 67
46 47 52 45 36 32 27 32 28 27 25 22 28 37 42 51 58 63 63 62 86 94 93 97 95 89 90 89 83 79 77 77 73 72 76 77 76 77 73 79 77 72 74 72 68 65 60 60 67
44 55 53 38 37 32 29 32 28 28 27 25 39 40 43 52 64 68 72 70 79 91 96 97 96 94 94 92 86 82 82 79 77 81 82 82 89 88 88 88 85 80 76 74 71 66 59 63 70
50 63 52 37 37 39 32 34 30 31 32 32 45 61 64 63 70 67 69 70 73 83 94 96 96 94 92 72 86 93 85 88 88 91 91 92 92 91 84 92 87 79 80 78 74 69 65 70 87
51 56 46 39 38 39 35 33 31 33 34 29 29 51 64 69 70 67 68 68 68 71 71 85 94 92 89 76 87 98 97 97 96 93 94 94 87 95 94 98 96 97 90 94 86 87 84 84 90
60 45 42 41 39 38 34 31 32 31 29 28 26 33 64 66 69 67 66 66 74 72 67 67 82 90 90 78 86 92 91 95 98 96 94 96 95 96 96 98 95 97 97 98 98 98 94 89 88
58 50 43 39 40 35 31 34 34 31 25 28 26 49 62 64 65 66 67 68 68 70 68 67 72 78 78 83 92 91 84 86 88 91 87 87 90 92 96 96 97 97 98 98 98 98 94 95 91
49 42 37 35 33 35 35 34 36 28 26 25 28 42 57 63 61 69 67 61 64 61 62 65 66 68 72 70 84 82 80 80 84 82 82 81 81 81 85 85 89 90 96 94 94 94 93 89 83
41 49 43 36 35 34 35 34 30 26 28 26 27 29 34 48 57 62 59 61 59 57 55 64 64 67 72 69 68 68 74 73 79 78 77 76 76 77 74 77 77 79 90 90 90 90 90 88 79
45 49 56 41 40 35 32 47 31 27 34 29 27 32 28 29 30 32 32 39 52 56 51 57 53 63 69 68 70 62 60 66 70 72 75 73 73 77 81 80 80 80 83 85 84 79 80 85 81
56 61 55 43 34 35 34 40 30 32 27 28 33 31 32 37 38 44 45 46 43 43 55 53 61 64 66 69 72 76 66 64 63 76 74 70 74 76 81 82 82 82 82 82 80 77 84 73 80
61 60 50 47 34 40 39 36 31 32 25 30 32 39 40 40 41 49 52 58 54 56 51 52 56 61 73 73 82 92 89 75 78 72 71 72 71 73 80 75 77 85 85 80 87 79 82 78 72
47 49 48 39 31 36 38 38 32 33 31 34 39 42 44 44 47 50 55 59 61 62 57 53 49 52 73 91 94 94 82 90 93 84 76 76 74 72 76 74 74 83 81 74 74 77 79 79 91
45 47 47 38 34 36 38 34 34 28 34 42 41 44 47 51 49 51 54 60 60 61 62 57 52 52 66 79 84 85 89 94 91 90 87 82 82 77 75 74 72 75 81 81 79 80 79 78 89
50 50 47 46 40 39 56 45 34 36 41 44 45 45 47 49 51 55 59 64 65 62 59 53 55 59 60 71 80 84 86 89 89 91 92 90 87 83 82 76 76 75 81 80 80 85 86 82 74
51 39 39 43 48 51 46 57 43 41 42 46 50 47 47 49 54 58 60 62 66 64 59 55 54 52 49 63 67 73 80 81 85 88 88 84 84 88 87 84 82 81 80 84 82 80 84 82 88
41 40 44 45 52 60 51 52 45 41 44 46 50 49 48 52 58 61 62 59 63 64 63 60 56 52 54 54 58 66 65 79 82 79 72 71 74 74 78 87 91 90 86 84 83 84 87 84 89
39 40 48 55 55 64 50 48 46 47 39 47 53 50 46 52 60 61 61 59 61 63 63 63 58 58 57 57 57 58 60 60 61 64 68 68 71 75 68 62 75 91 94 92 87 86 89 89 91
42 52 68 67 69 64 51 50 40 34 41 35 46 50 48 53 59 61 61 61 62 61 61 56 58 60 59 60 60 62 64 65 66 66 67 66 64 67 57 59 57 58 61 65 80 92 94 94 95
46 49 67 70 75 61 44 46 33 36 40 42 45 49 49 54 58 59 60 61 60 58 60 60 61 62 63 64 64 66 68 71 69 69 69 71 69 69 64 61 58 57 56 56 60 72 79 83 89
44 54 49 58 70 62 56 46 36 47 53 51 54 50 51 54 57 59 59 59 58 60 62 62 64 67 69 70 71 72 74 74 75 75 74 74 67 55 57 63 66 61 61 59 60 63 65 69 75
45 39 51 60 65 65 59 52 45 52 57 55 56 53 52 51 58 60 59 58 60 63 66 69 71 73 74 74 76 73 78 76 75 71 71 63 59 58 59 58 57 58 60 61 62 62 60 64 66
45 46 43 50 57 59 63 50 41 38 47 50 53 52 53 54 58 59 59 62 65 70 75 77 77 71 69 73 75 76 80 77 74 67 66 60 58 55 55 54 56 57 60 55 56 57 56 58 62
49 45 43 51 52 60 58 49 35 49 36 43 49 50 56 56 59 60 63 70 76 79 80 77 72 65 65 68 70 70 74 66 60 55 52 51 51 49 50 52 53 51 48 51 56 58 56 64 56

GFSSGP_sfc_rhum_009.txt.gz
RH
70 54 38 47 49 63 70 57 56 46 45 32 27 27 29 36 26 26 69 82 88 88 86 80 81 80 77 74 72 68 64 59 54 55 52 67 64 64 60 60 61 64 60 51 55 54 63 56 67
69 40 41 56 60 70 59 55 52 47 41 30 27 30 28 29 58 76 80 75 84 85 86 86 83 82 79 74 70 68 63 60 56 57 63 69 62 58 60 55 56 53 54 59 62 54 55 55 70
37 30 40 58 70 68 60 51 49 38 36 27 27 32 33 32 52 68 71 86 86 91 89 85 86 83 76 74 71 68 64 62 59 61 68 71 67 62 62 58 57 57 57 61 64 61 55 55 57
34 33 38 48 57 50 52 40 32 32 33 26 27 29 39 52 54 64 71 87 93 95 94 89 88 79 76 73 72 68 65 62 61 62 63 73 67 62 62 58 58 62 61 61 62 65 63 59 58
38 36 40 51 43 38 36 28 27 32 37 28 23 28 41 53 76 70 79 83 92 95 96 94 87 80 76 73 72 69 63 62 62 68 68 67 65 60 57 59 59 62 62 64 61 62 66 62 59
43 39 42 44 40 32 29 25 30 32 40 29 26 41 39 67 70 70 72 88 86 93 96 96 89 85 81 76 73 70 65 64 61 60 62 62 66 62 59 64 63 63 66 67 66 63 62 66 66
48 51 51 54 43 31 27 29 37 38 38 33 30 40 50 74 67 67 72 83 85 89 96 98 95 90 85 80 78 77 70 69 68 66 67 70 72 66 64 66 66 67 68 72 71 68 64 64 65
49 50 57 56 40 32 28 31 30 34 31 22 37 33 36 51 62 69 70 75 92 96 96 98 98 96 94 90 84 81 77 77 77 74 76 78 78 77 74 77 76 71 72 73 73 71 68 63 64
47 56 60 48 38 32 33 38 32 30 32 29 42 46 50 53 68 73 77 76 91 94 98 98 98 97 95 93 89 86 84 83 81 79 84 84 89 87 88 89 86 78 76 77 75 73 70 70 71
52 66 56 42 34 40 40 42 34 33 33 32 33 66 67 75 79 72 74 75 83 96 97 98 98 97 96 81 92 94 89 94 92 88 91 94 93 93 85 93 89 81 79 79 76 74 74 77 85
55 58 48 42 36 43 44 39 34 35 35 32 30 30 66 74 76 73 72 74 80 87 95 97 98 97 96 91 96 99 98 97 96 92 94 95 92 96 97 98 97 98 95 97 92 93 95 90 92
62 49 44 44 45 47 43 35 35 33 30 28 29 30 63 67 72 71 70 71 76 76 76 90 96 98 97 92 93 95 95 97 98 96 94 97 98 98 98 97 97 98 98 98 98 99 97 95 92
65 53 48 45 46 46 41 39 37 34 29 30 27 32 54 66 68 69 70 69 74 74 73 73 92 95 95 96 93 97 93 96 96 97 96 97 98 97 97 97 98 98 98 98 98 99 98 98 96
55 52 47 41 39 38 38 38 41 34 31 28 27 27 45 66 66 70 74 74 73 72 70 71 72 84 89 89 94 92 96 93 97 97 94 94 93 96 97 96 97 98 99 98 98 97 97 96 97
50 50 44 41 41 40 39 39 37 29 31 30 29 29 33 43 56 59 66 63 66 64 63 68 70 72 83 84 87 88 89 86 91 87 92 93 92 93 90 94 94 92 97 96 96 97 97 97 93
46 53 58 43 42 39 34 49 37 32 39 30 33 34 34 37 40 44 46 44 44 53 64 61 56 69 75 74 79 74 81 85 83 85 89 87 84 86 92 85 85 85 88 88 89 86 88 89 87
55 65 61 44 39 41 41 45 34 35 32 29 35 37 40 44 47 56 58 61 57 57 55 59 65 71 76 78 80 78 72 71 71 83 84 80 81 83 82 84 80 89 85 86 83 82 86 78 79
65 67 56 54 40 46 46 42 33 36 29 34 40 46 48 48 51 57 57 62 62 65 58 56 61 72 79 83 90 94 91 81 77 76 74 75 75 78 82 78 79 87 86 84 89 84 84 82 75
57 52 54 47 37 41 43 40 34 36 33 36 42 47 50 50 55 56 59 60 58 56 60 61 59 63 82 93 95 96 95 94 95 93 82 77 77 76 80 76 76 81 83 76 76 86 86 85 88
50 58 58 42 40 42 45 41 37 32 34 40 44 49 52 56 58 59 62 65 63 61 59 57 58 64 77 91 93 92 94 94 94 94 92 89 86 84 82 81 78 78 84 86 85 87 88 86 86
56 58 58 47 43 43 48 48 44 38 46 46 48 50 52 56 60 65 65 68 67 65 64 57 57 53 62 75 86 88 87 88 85 88 90 87 86 91 94 93 91 88 92 87 85 90 92 93 85
74 47 49 48 52 57 56 63 48 41 49 50 58 56 55 60 65 63 62 67 68 68 66 61 58 54 51 59 61 74 82 80 84 89 82 74 74 75 76 83 91 95 95 96 92 84 86 90 95
57 41 45 50 53 64 56 58 49 46 48 49 52 54 59 62 62 63 65 63 67 67 68 64 60 58 62 61 64 67 68 72 75 73 68 68 67 71 68 66 73 73 77 86 94 94 92 89 93
44 45 51 61 59 69 55 51 50 49 39 52 56 54 57 64 66 66 65 62 63 66 66 67 63 64 65 64 68 71 73 72 70 73 71 72 70 72 62 60 64 69 71 74 73 76 83 90 93
45 55 72 72 73 70 59 61 39 38 38 39 48 52 56 63 66 64 65 64 64 66 66 62 68 70 72 72 73 76 78 79 79 79 79 75 69 67 64 68 66 65 66 70 74 80 84 83 87
51 51 68 69 78 64 53 54 36 41 42 40 45 50 55 62 66 64 66 65 66 66 68 72 75 76 76 77 79 80 79 81 79 79 80 75 76 72 64 62 62 62 63 65 67 75 86 83 87
48 57 52 62 74 73 60 50 41 53 59 56 54 54 56 60 64 64 64 66 68 71 75 77 77 77 78 78 78 84 82 79 79 78 76 74 67 52 54 61 60 60 61 63 65 62 67 68 75
44 42 55 65 72 71 62 59 49 53 63 63 60 56 56 59 64 65 65 68 73 78 82 79 75 74 75 75 78 77 82 77 76 73 68 63 58 56 56 55 58 58 58 52 52 59 60 61 63
44 46 50 55 63 63 68 54 44 41 54 58 56 53 54 58 64 66 70 73 79 83 81 77 70 68 69 72 72 76 74 70 64 55 55 53 54 51 50 47 49 46 45 47 56 53 52 60 60
54 44 44 56 58 65 64 53 42 50 48 56 56 57 60 58 63 68 73 82 85 85 77 71 66 64 67 67 66 69 60 50 48 49 47 44 43 43 44 41 41 37 41 46 50 44 55 51 52

GFSSGP_sfc_rhum_015.txt.gz
RH
56 34 35 46 43 50 50 46 42 37 35 29 26 22 20 21 19 24 45 59 66 65 64 72 83 80 79 78 76 71 68 63 59 56 51 55 58 58 61 61 56 56 54 51 53 56 52 54 54
40 26 43 51 49 48 42 42 43 35 26 30 27 24 22 20 32 38 48 58 65 64 65 72 86 82 80 78 76 73 68 63 58 57 55 57 63 57 51 53 52 57 51 52 58 61 54 57 53
27 29 40 55 58 47 43 41 36 28 24 28 21 20 20 20 26 36 48 60 70 66 66 74 86 82 79 79 77 73 68 65 60 58 60 68 65 59 60 58 57 57 59 54 60 63 56 60 60
30 31 31 34 42 42 43 36 28 25 26 31 20 20 22 26 32 42 54 62 69 69 67 79 86 82 82 78 76 72 68 64 62 59 61 67 70 65 62 61 59 57 62 62 61 62 65 66 61
35 33 34 35 34 31 30 28 24 30 30 28 20 21 24 32 52 50 68 68 68 74 74 71 83 81 83 79 75 73 68 65 60 61 63 64 71 67 59 60 60 59 62 62 62 62 61 64 65
44 35 40 42 30 27 26 24 28 30 30 30 22 22 23 41 51 55 71 71 68 72 76 72 83 88 83 80 77 75 70 66 62 62 62 66 66 65 62 64 62 63 62 64 63 64 64 63 63
48 47 48 38 38 35 25 30 28 30 31 26 22 25 22 34 51 60 70 72 72 73 75 74 72 80 88 85 82 80 74 70 69 67 66 69 71 68 62 64 65 68 66 63 69 72 72 70 67
43 46 48 44 40 34 23 32 30 29 28 25 24 26 25 32 51 59 63 71 74 75 75 76 76 78 75 71 85 84 82 80 78 77 77 77 77 77 73 78 77 70 70 69 72 72 72 73 72
40 50 54 47 40 34 26 37 33 29 29 28 24 29 30 48 60 59 61 67 74 77 78 79 79 81 79 76 77 84 85 84 83 79 87 78 65 67 69 78 82 79 77 74 72 73 74 79 81
48 60 54 42 35 32 31 40 37 35 32 29 25 26 36 49 57 56 58 57 64 73 77 78 82 82 82 78 77 75 73 69 67 66 66 66 69 68 70 79 84 80 80 83 80 77 78 81 64
52 57 50 42 37 33 40 43 38 34 39 30 26 25 27 39 46 56 56 56 54 57 71 76 85 82 82 83 79 78 76 76 73 71 70 70 70 73 72 74 69 72 80 67 68 69 66 68 66
52 47 44 43 42 43 44 41 41 36 32 28 27 29 29 27 30 43 55 55 54 57 56 67 78 81 82 80 80 77 78 77 76 73 71 73 72 76 75 72 72 75 69 73 72 68 66 68 68
56 50 48 44 47 49 47 47 42 38 31 28 30 32 30 28 30 47 55 55 54 57 55 58 70 79 80 84 80 78 76 75 73 75 72 70 73 72 71 71 72 72 73 71 71 70 66 66 65
56 52 47 49 46 45 43 42 40 33 31 29 29 28 28 29 35 54 55 54 54 56 56 55 60 70 76 78 80 76 74 72 74 73 72 72 71 72 74 71 71 71 70 67 68 68 68 68 66
54 56 49 45 40 40 43 43 44 32 33 29 28 28 33 39 43 46 47 43 42 40 43 44 53 60 74 75 77 76 75 73 73 71 70 72 72 74 74 72 71 68 67 69 69 69 71 71 67
54 47 66 48 38 38 34 47 32 31 34 32 28 32 42 47 50 51 53 52 52 50 49 51 47 58 66 71 74 73 74 72 71 70 70 72 71 73 73 72 68 66 69 69 68 67 68 70 72
54 75 60 53 42 41 40 43 35 29 29 28 26 36 41 46 47 50 50 52 53 51 52 58 59 59 68 71 71 72 71 70 69 69 68 68 67 67 70 68 66 64 68 69 70 68 70 72 71
65 65 54 54 41 41 41 42 34 32 33 31 27 39 45 49 52 52 49 50 48 50 51 57 65 69 73 73 74 73 70 69 67 67 68 67 65 66 68 68 68 68 71 71 72 76 71 72 72
55 58 59 54 40 39 42 42 35 32 33 33 33 43 47 49 52 52 51 50 48 50 49 53 64 73 72 75 74 73 77 70 63 60 58 58 62 65 66 65 63 65 70 71 72 75 77 76 72
57 56 55 51 43 40 44 42 35 36 35 32 34 46 48 50 50 53 53 53 52 53 51 50 51 56 70 77 80 77 64 59 56 55 54 50 46 47 44 50 51 51 54 54 56 62 69 70 64
63 63 62 61 51 43 45 45 41 35 34 40 41 47 49 50 51 54 54 56 58 59 58 56 54 54 56 55 53 53 54 56 55 55 53 54 49 46 47 49 48 51 52 55 58 58 63 64 55
83 58 57 57 62 66 42 56 48 36 37 44 49 52 52 55 56 56 57 57 60 61 62 61 61 58 58 56 58 60 61 61 61 57 54 51 51 50 46 48 51 51 52 54 56 50 59 60 64
75 63 60 59 57 51 50 51 44 41 40 46 51 56 57 57 56 59 61 62 61 65 68 66 64 65 64 61 61 59 61 60 58 54 51 51 47 50 45 46 50 50 50 54 58 56 60 58 67
47 48 50 51 49 63 53 48 47 39 36 47 50 54 58 59 60 60 63 63 64 68 69 70 66 67 65 64 62 62 61 56 52 55 49 47 43 45 42 42 43 45 45 49 47 52 58 63 65
58 67 97 76 65 65 55 55 43 40 36 40 45 50 58 60 62 61 61 62 65 69 70 66 65 68 63 60 58 58 57 54 51 47 42 39 36 41 40 40 36 39 40 38 40 50 63 63 66
81 70 68 70 71 59 58 57 36 36 45 45 43 47 60 62 62 61 62 65 69 72 69 65 64 65 62 58 54 48 48 45 40 40 37 36 36 36 36 36 32 33 31 30 34 42 62 52 59
77 85 52 63 64 66 60 49 38 42 48 51 52 54 61 63 64 63 64 65 71 70 67 64 62 62 62 55 45 40 36 36 36 35 33 34 32 27 31 33 32 32 30 30 35 37 41 36 41
60 50 71 61 67 69 62 54 48 39 39 55 57 56 62 64 63 65 64 71 74 68 64 62 57 57 56 47 37 33 32 30 31 30 31 33 30 31 31 29 29 30 28 28 30 33 34 31 37
58 68 59 55 62 62 58 47 41 40 40 44 56 55 59 62 63 65 67 75 72 64 59 56 52 53 51 40 33 30 30 29 28 28 30 30 30 30 29 27 28 27 27 26 28 29 28 33 39
46 50 49 59 62 62 57 50 38 48 49 52 56 54 56 59 64 67 75 76 66 60 54 51 48 49 46 36 30 29 28 28 27 28 29 29 29 28 28 27 27 26 27 28 27 29 32 37 42

GFSSGP_sfc_rhum_018.txt.gz
RH
38 23 20 23 27 26 23 26 29 28 28 20 18 20 17 16 16 21 35 38 41 40 39 61 84 80 78 75 76 75 71 65 59 56 49 53 57 56 55 59 55 56 51 54 58 62 57 56 54
26 17 24 29 22 24 18 26 33 28 19 18 18 19 18 16 16 21 27 38 42 39 39 49 87 81 82 78 77 74 69 65 59 55 53 56 62 57 59 52 52 58 56 53 59 63 62 56 61
22 17 20 23 28 23 24 29 24 19 18 21 20 15 15 16 16 20 33 38 43 40 40 47 87 82 81 78 76 74 70 67 61 57 59 60 69 57 53 55 57 57 60 57 60 63 60 63 64
22 19 18 21 19 24 29 27 19 21 20 21 18 18 14 18 20 28 35 38 39 38 39 68 87 82 82 80 78 74 70 66 62 60 59 62 70 64 63 61 59 57 61 61 61 60 61 65 65
21 20 25 26 24 16 16 18 17 22 21 20 21 20 17 23 32 32 38 41 38 39 41 49 84 82 81 80 76 74 70 65 63 59 62 64 65 71 62 63 60 58 60 62 62 62 62 61 64
27 23 28 32 29 23 19 16 20 20 20 20 19 18 19 26 30 36 42 40 39 42 46 44 78 86 85 81 77 75 71 67 64 60 59 64 69 66 64 63 61 62 63 60 65 63 66 65 64
34 30 30 30 29 29 18 19 19 21 20 21 18 20 16 21 34 40 42 40 44 44 46 45 46 64 90 86 84 80 75 72 67 64 65 65 66 67 63 62 65 66 69 66 66 71 72 72 71
28 29 33 29 28 32 20 18 24 22 20 18 17 19 19 25 31 40 43 42 44 47 47 44 45 47 53 55 85 85 83 81 78 78 78 78 78 75 69 74 72 73 72 71 71 70 73 74 74
29 34 35 33 32 28 19 27 25 23 23 18 17 18 19 27 34 39 41 42 44 48 48 48 45 47 49 48 58 82 85 84 83 78 83 77 48 48 54 70 78 75 74 73 72 72 73 79 82
36 39 35 28 26 27 26 29 30 29 23 21 16 16 16 18 22 28 32 34 41 42 45 47 49 48 51 50 52 55 48 50 48 46 46 42 42 45 56 71 81 79 78 79 77 76 77 81 48
39 40 32 31 28 26 30 30 29 31 31 22 21 17 16 18 18 19 23 30 30 32 37 44 46 48 48 51 50 48 49 48 47 49 48 45 43 44 49 51 52 53 72 52 53 51 48 47 46
44 35 31 32 32 34 33 30 32 30 30 23 22 21 21 18 17 17 20 26 31 33 34 37 42 46 49 48 52 48 50 50 49 49 49 48 47 47 46 46 48 52 48 48 50 47 46 48 47
44 34 32 31 33 33 34 36 33 32 25 22 22 23 22 18 18 17 27 32 33 36 36 37 38 43 45 51 50 50 49 51 48 52 51 49 49 48 46 47 47 48 46 47 49 49 48 48 47
38 39 35 32 34 33 39 32 34 26 22 21 20 22 20 20 21 26 32 34 35 36 36 36 38 39 41 47 51 50 50 49 51 51 52 53 52 51 52 52 51 50 49 48 49 50 51 51 48
38 46 40 37 36 35 33 37 33 24 19 20 18 19 23 29 29 32 34 32 31 28 29 30 31 33 41 44 46 50 51 52 52 52 52 55 55 56 57 55 55 51 49 51 51 51 51 52 51
49 52 53 35 35 34 34 41 25 21 20 21 20 19 27 33 32 33 34 34 33 34 36 38 39 34 40 46 48 47 48 49 50 50 51 54 53 55 56 55 53 50 52 52 54 55 56 56 56
59 59 54 40 34 34 35 35 24 21 21 20 17 20 26 30 31 33 34 35 35 35 38 43 44 43 48 52 50 51 51 48 48 48 48 52 52 54 55 55 56 55 57 57 57 56 57 61 60
58 56 38 44 32 33 35 34 25 21 22 21 18 21 26 29 33 35 35 36 35 38 42 44 50 51 51 50 50 50 52 54 53 54 54 55 53 54 54 50 45 46 47 46 47 50 49 50 51
40 38 44 38 32 35 34 33 28 23 23 21 20 22 26 30 35 34 35 34 35 36 39 46 52 50 46 48 52 51 49 46 42 39 35 34 34 34 36 36 34 34 36 36 35 37 39 38 38
40 43 43 36 34 34 34 36 30 25 22 21 20 23 28 33 32 35 35 34 33 35 35 38 46 54 54 56 52 43 41 40 40 40 38 34 33 33 33 35 35 35 35 36 38 40 43 39 37
50 48 43 41 41 38 37 37 28 24 24 25 22 23 28 31 32 33 35 40 41 41 40 40 41 44 42 40 39 40 42 41 41 40 39 37 34 33 34 36 35 36 38 39 40 40 46 44 40
57 42 41 50 57 55 37 44 31 22 24 28 26 30 31 33 32 34 38 41 45 47 46 45 43 43 41 40 41 42 42 45 42 38 37 35 34 32 29 30 32 32 32 34 35 30 36 36 41
44 47 46 52 57 56 44 45 29 28 25 27 29 32 33 34 35 39 43 46 47 52 51 47 45 43 42 40 39 39 42 41 38 34 34 32 30 30 26 26 29 28 27 29 31 31 31 32 37
49 48 46 42 46 57 39 38 29 22 23 27 30 34 35 35 37 41 46 47 51 54 52 50 46 45 43 42 40 41 40 36 34 33 28 26 23 25 25 23 23 24 26 27 25 28 33 40 39
47 52 93 87 74 51 37 39 27 23 24 25 31 34 35 38 40 44 46 47 49 53 54 48 44 44 40 39 37 36 35 33 30 26 23 22 20 22 24 23 20 21 24 23 25 32 40 43 41
59 50 50 59 53 44 42 41 24 24 27 27 25 31 37 39 39 42 44 48 51 52 49 45 44 43 38 35 32 29 28 26 22 22 20 19 19 20 22 22 20 20 20 20 22 27 34 34 33
76 66 39 44 44 38 34 31 26 28 30 32 29 35 41 40 42 42 46 47 49 48 47 46 45 43 37 32 26 23 21 21 21 19 18 20 19 17 19 20 19 20 20 20 23 24 23 24 26
66 51 71 47 51 49 38 37 28 26 26 35 33 37 39 40 41 43 45 49 48 46 46 43 40 38 34 27 23 21 18 16 17 17 19 20 18 18 19 18 18 18 18 18 20 20 21 22 25
66 83 73 45 41 38 35 31 24 26 27 30 31 34 38 42 43 44 45 50 48 45 43 39 39 36 30 24 21 20 18 16 16 17 17 18 17 18 18 17 17 17 18 18 18 19 21 25 28
50 58 54 57 50 39 34 29 24 28 30 33 32 35 38 40 42 44 48 51 47 44 40 36 36 32 28 22 19 19 19 17 16 17 18 17 17 17 18 18 18 18 18 19 20 21 23 27 30

GFSSGP_sfc_rhum_021.txt.gz
RH
36 20 18 23 25 20 21 18 20 26 25 18 16 18 18 16 16 24 28 29 29 31 36 64 83 83 78 74 74 76 72 66 60 56 49 49 54 55 53 58 57 59 52 55 59 64 63 57 62
27 19 18 22 24 22 17 14 23 22 19 16 17 17 18 17 13 21 25 30 30 29 34 45 87 82 78 76 77 76 72 67 60 54 52 52 58 58 60 52 52 57 59 56 60 62 63 64 65
23 17 22 23 22 21 22 19 18 19 17 18 19 14 14 16 15 18 26 30 30 31 32 55 86 82 80 79 77 74 71 66 60 55 57 61 65 65 53 55 57 58 62 60 61 62 62 62 65
23 19 18 26 26 16 19 22 20 19 18 17 18 19 14 18 19 25 28 29 28 30 31 79 88 82 82 80 78 74 71 68 62 59 58 60 64 68 62 62 61 57 61 62 61 61 61 62 65
23 21 26 27 25 18 10 14 16 20 20 18 19 20 18 22 24 25 29 29 29 30 33 54 86 82 80 80 78 75 71 65 62 58 59 63 64 69 64 64 61 59 60 62 63 61 62 64 62
29 23 29 27 24 20 17 11 14 18 18 18 19 20 22 22 25 30 30 29 29 33 36 43 83 86 83 83 78 76 72 66 63 57 62 65 71 66 65 66 63 62 64 64 61 66 66 68 66
34 29 32 24 21 24 21 12 15 18 18 17 16 20 18 22 25 31 31 28 32 34 36 38 45 66 91 87 84 79 74 70 67 63 63 64 66 65 62 65 65 66 68 69 67 68 72 72 72
28 27 33 27 26 25 20 16 14 19 18 15 15 19 20 23 25 31 33 30 32 36 36 35 38 44 53 58 85 83 83 81 76 77 78 79 80 75 70 71 73 71 71 71 72 70 69 72 76
29 34 34 30 26 22 19 22 18 20 21 18 15 16 17 17 22 28 32 33 32 34 37 36 36 39 42 42 60 81 83 83 82 78 82 77 50 45 49 66 74 71 71 72 71 71 72 78 83
38 39 33 22 21 22 21 24 25 26 23 20 17 14 14 14 15 17 21 26 33 34 36 36 38 38 42 40 48 51 48 52 54 49 44 48 38 38 46 66 78 77 78 78 76 74 77 80 56
38 40 27 24 22 23 24 26 22 27 30 23 20 17 17 16 17 15 15 18 21 27 30 34 36 38 39 43 43 42 43 42 41 41 40 39 37 38 42 45 47 55 72 61 55 58 61 50 45
41 32 28 26 25 29 30 24 27 26 26 21 21 20 20 19 15 14 14 16 20 24 27 30 32 36 38 39 44 40 42 43 42 42 41 42 42 43 41 40 43 48 47 48 51 48 46 46 46
43 33 27 26 25 28 28 29 30 28 23 20 19 21 21 20 17 14 15 20 22 26 28 30 31 34 36 40 41 42 41 44 42 46 44 44 45 44 41 43 44 45 46 47 49 49 48 47 45
42 34 31 27 28 28 31 29 28 26 22 20 19 18 18 18 18 19 21 24 26 28 30 30 32 32 32 37 42 42 43 42 45 45 47 48 49 49 51 50 50 49 48 47 48 49 50 51 48
45 47 34 32 29 30 28 36 33 24 21 19 15 14 15 18 22 23 27 27 26 25 25 25 26 27 34 35 39 42 44 45 46 47 46 50 51 53 54 54 55 51 48 49 50 51 54 57 56
47 56 66 35 30 29 32 44 26 18 20 18 15 14 18 24 24 26 27 28 27 29 29 33 34 30 30 38 40 42 43 45 47 47 47 49 49 50 54 54 53 53 55 59 63 62 56 52 50
60 62 62 50 28 29 33 39 25 20 20 18 16 14 19 24 25 27 27 28 28 30 31 39 37 37 38 43 44 45 46 46 47 47 48 51 51 53 55 58 56 46 50 46 45 43 44 48 46
63 58 54 51 30 32 34 34 27 22 19 20 17 14 18 22 25 28 30 30 32 35 37 42 44 46 47 46 45 46 49 48 44 42 41 37 35 36 39 36 34 34 36 35 37 38 37 38 36
45 46 48 34 26 29 31 32 26 21 21 21 18 16 18 23 28 29 30 30 32 36 42 44 44 44 43 46 49 47 47 43 39 36 32 32 32 32 34 34 32 34 34 34 35 38 44 43 39
52 47 41 29 28 32 32 30 25 22 23 22 19 17 19 27 28 30 29 28 28 32 37 45 47 48 48 43 44 41 40 39 39 39 35 31 30 30 30 34 35 34 36 36 37 39 42 40 38
60 50 37 35 31 32 34 37 32 26 24 20 18 16 19 27 28 30 31 34 36 36 36 39 39 39 41 42 41 41 40 41 38 36 36 34 29 27 28 30 30 31 33 36 37 36 43 41 38
69 38 38 35 44 47 35 40 25 21 24 23 19 18 23 26 27 29 34 38 41 42 41 39 38 38 36 36 38 39 39 41 38 35 34 32 30 28 24 25 26 27 28 29 33 26 32 35 41
50 38 38 39 42 48 52 49 29 22 23 22 21 22 26 28 28 33 37 41 42 46 46 42 39 37 35 34 34 36 38 37 34 31 30 28 26 25 24 22 24 24 26 27 30 30 31 31 40
49 44 45 44 47 68 43 40 28 25 22 19 21 25 28 28 30 35 41 44 49 49 46 44 40 38 36 36 35 36 36 33 33 31 27 25 22 23 24 21 21 22 25 27 26 29 34 37 46
55 62 90 82 75 49 30 36 26 22 21 20 24 28 29 31 34 40 43 45 47 49 47 41 38 37 34 33 32 32 33 31 30 26 24 22 21 22 23 21 19 20 24 24 26 34 43 44 46
72 60 47 64 52 38 33 40 26 20 21 20 23 27 30 33 35 39 40 44 47 48 42 40 38 36 32 30 29 28 28 26 23 21 21 20 20 20 20 19 18 18 19 19 23 31 36 38 36
68 53 38 38 33 34 36 29 22 22 27 25 24 29 33 34 36 37 40 43 46 44 42 42 38 35 31 28 26 23 21 22 22 19 19 20 18 15 17 18 18 18 18 18 24 26 24 25 28
55 38 54 39 47 44 34 29 28 25 23 27 25 30 33 33 36 37 40 43 42 42 41 40 35 33 30 26 24 22 19 17 17 18 18 18 16 16 17 17 17 17 17 18 20 22 23 23 26
71 56 53 38 36 36 36 29 21 23 24 25 26 29 33 35 36 38 39 42 42 42 41 38 34 32 29 26 23 22 19 17 17 17 16 16 15 15 16 16 16 17 18 18 19 21 22 23 27
56 52 46 45 48 34 32 31 20 23 27 26 26 29 31 35 36 38 40 44 43 42 38 36 35 30 28 24 21 21 21 19 18 17 17 15 16 16 17 17 18 18 19 20 20 22 22 24 29

GFSSGP_sfc_rhum_024.txt.gz
RH
50 29 26 40 50 43 39 27 18 34 33 25 22 23 26 23 23 48 43 36 38 51 68 79 85 82 79 77 76 75 71 66 62 56 50 50 51 55 57 57 56 60 56 57 61 64 64 67 67
47 34 34 44 46 39 33 18 31 30 24 22 22 24 25 27 26 37 46 38 35 40 68 70 86 84 80 78 77 76 72 67 62 55 52 52 59 58 59 54 57 59 61 60 61 62 63 62 67
40 24 41 47 45 36 31 27 28 21 20 24 27 24 23 29 30 37 42 37 36 39 52 65 88 85 81 79 77 76 73 67 61 56 56 60 62 66 50 56 60 62 62 60 61 61 61 62 64
36 37 34 40 40 30 24 20 26 22 21 24 23 27 27 33 36 38 36 34 38 40 80 89 88 85 85 84 78 75 73 70 63 59 58 59 62 69 62 63 62 61 63 62 60 60 61 60 60
35 41 45 43 34 26 21 13 20 24 25 24 25 28 34 35 32 35 37 35 38 44 76 85 88 86 84 83 79 76 72 68 64 59 58 64 64 67 67 66 64 62 61 61 62 57 60 64 64
45 40 46 44 30 21 23 20 19 18 20 23 27 26 40 36 40 42 38 41 37 43 57 79 88 87 86 84 81 78 74 68 65 58 59 65 69 68 68 70 66 64 64 64 61 62 68 70 70
49 47 47 39 32 26 27 16 21 20 24 23 23 29 36 33 40 40 40 38 43 44 50 65 82 86 89 88 85 83 77 74 71 66 64 70 73 68 66 69 68 68 67 68 70 66 66 70 72
41 42 44 39 37 34 24 22 20 22 25 21 23 29 40 36 38 41 46 42 46 48 47 54 59 70 77 92 88 87 84 81 78 78 79 81 78 77 74 76 78 70 71 69 70 70 68 68 72
40 55 53 41 36 32 24 27 23 24 28 24 21 22 25 26 33 41 46 45 46 46 49 48 53 58 65 71 82 88 87 85 83 81 83 85 80 69 72 78 78 76 70 70 71 72 72 79 84
52 62 51 32 28 28 24 27 30 32 30 27 26 21 20 21 24 27 35 47 47 49 50 50 51 53 58 48 78 79 73 83 81 74 74 78 71 65 62 77 74 74 78 78 75 75 79 83 82
52 61 42 31 26 25 29 30 26 31 39 31 30 28 27 27 27 24 22 24 38 43 48 47 52 52 56 58 73 67 69 69 69 67 62 65 54 59 69 74 78 87 87 87 78 85 84 83 77
56 43 39 36 30 31 35 31 32 30 33 28 27 27 27 27 27 23 22 24 28 38 41 46 46 52 53 59 63 62 64 64 64 60 56 63 66 64 61 64 67 70 73 81 77 74 66 66 62
56 45 36 31 31 29 31 37 35 33 29 26 25 26 28 27 27 24 22 30 33 37 38 41 45 48 53 56 63 62 63 63 63 64 60 63 67 68 67 68 68 71 70 70 71 72 68 65 65
48 48 44 36 31 30 34 35 35 32 28 28 26 27 24 26 27 29 27 35 44 41 41 41 42 46 47 56 58 61 62 62 64 64 66 62 70 74 76 75 73 69 67 66 64 64 68 66 62
41 55 47 45 35 34 32 39 39 31 28 29 28 23 20 24 27 35 38 38 37 38 36 34 35 38 47 50 58 60 60 60 60 62 58 64 67 73 75 78 77 71 66 64 68 67 69 71 70
60 58 74 50 46 34 38 52 37 30 29 29 26 22 25 29 32 34 37 41 40 43 40 46 39 41 39 52 59 59 57 61 61 61 61 58 59 65 74 68 63 62 69 67 69 69 65 68 69
74 83 69 63 44 39 38 47 35 30 28 30 28 23 25 32 32 37 39 44 43 43 50 53 48 44 47 60 64 56 58 61 65 63 52 43 43 50 54 50 50 51 58 57 55 56 60 61 58
79 83 62 67 51 44 45 40 36 30 30 29 27 24 28 33 34 38 40 45 51 51 58 60 62 64 65 66 64 62 50 48 47 49 48 45 44 44 52 52 49 52 55 56 55 55 58 60 61
57 60 63 49 39 45 45 39 36 32 31 32 30 28 28 34 38 40 45 48 55 60 61 64 64 64 65 71 71 60 61 58 55 52 43 42 42 45 49 55 51 51 53 52 46 53 56 58 57
67 75 71 49 38 42 42 38 35 32 30 27 27 29 28 40 41 42 43 46 50 61 66 66 67 62 57 58 58 56 56 57 57 53 46 40 38 38 36 44 47 44 49 48 48 48 56 55 52
61 76 71 79 42 36 43 49 42 32 27 27 28 28 30 38 41 43 47 51 54 59 59 57 58 58 58 55 50 51 60 61 59 58 54 46 36 34 35 38 39 42 45 49 46 48 48 56 54
72 58 63 76 56 70 45 70 43 35 32 30 33 30 36 36 38 42 49 57 60 62 59 56 54 54 55 56 61 60 60 61 58 54 51 47 37 34 31 33 35 37 43 42 43 34 45 48 59
64 57 76 72 73 70 62 66 53 35 34 32 32 30 37 36 38 47 55 56 60 65 64 58 53 51 50 50 52 57 58 57 53 49 43 36 37 34 31 31 34 35 42 40 39 40 45 50 58
60 68 85 86 69 86 58 68 54 38 32 31 30 32 37 36 42 51 58 61 68 67 64 59 53 52 51 50 50 52 51 49 49 42 42 39 38 39 33 29 30 32 36 38 39 40 44 52 57
69 90 99 100 99 89 50 58 48 32 26 27 30 37 37 40 47 56 64 69 68 66 61 54 52 50 47 46 44 44 43 41 37 37 36 33 34 37 32 30 28 31 33 33 34 44 48 55 55
88 96 92 97 90 62 41 61 46 30 28 27 31 37 39 42 50 56 62 67 68 63 57 52 49 46 42 40 38 38 37 39 34 31 33 32 32 31 27 28 27 26 27 28 30 42 49 41 48
87 98 74 56 42 53 53 45 32 34 37 32 37 39 43 45 52 54 60 64 66 61 58 54 48 44 40 38 34 30 29 29 30 28 28 30 27 19 24 26 26 26 26 26 30 39 35 35 37
85 70 72 72 63 67 58 50 45 39 41 34 39 43 44 45 50 52 57 62 61 59 58 51 45 42 39 35 32 27 25 25 25 26 25 24 23 22 24 24 24 25 26 27 28 34 35 31 36
96 84 66 59 53 65 63 50 35 34 36 37 38 40 43 46 47 52 56 58 59 58 56 49 43 40 38 34 31 30 27 26 25 25 24 23 22 23 23 24 25 26 27 27 30 31 29 30 34
68 62 63 61 70 62 52 51 31 35 34 36 34 39 42 45 47 52 56 57 61 59 54 49 44 40 37 31 30 30 29 27 26 24 24 23 24 24 25 26 28 28 30 31 31 30 31 34 37

GFSSGP_sfc_rhum_027.txt.gz
RH
67 51 49 37 42 49 48 35 28 33 32 29 28 29 31 31 31 50 48 63 78 87 84 81 85 83 79 78 75 73 71 67 63 56 54 53 57 58 60 56 57 54 54 58 60 64 64 68 67
74 50 41 45 44 44 39 31 33 31 29 27 25 29 30 33 42 51 51 46 72 78 84 83 86 84 80 78 75 74 71 67 63 57 53 50 60 59 58 57 59 60 60 59 60 60 62 62 63
56 47 45 52 56 49 35 32 34 26 22 28 30 28 32 42 45 48 49 43 72 80 80 82 88 86 83 80 77 75 73 67 64 58 59 60 62 65 51 60 61 62 61 60 60 59 59 62 62
45 44 42 46 46 35 33 21 32 25 23 24 28 31 40 42 47 46 43 42 51 73 74 88 89 86 85 84 79 75 73 69 64 62 60 59 63 66 62 64 63 65 64 63 61 60 60 59 58
48 54 57 59 47 36 30 16 24 26 29 28 28 34 45 44 46 45 43 42 74 92 85 86 89 87 86 83 78 76 74 71 64 62 61 66 66 68 67 68 66 65 63 62 62 60 59 63 66
58 54 66 63 49 34 28 22 20 24 23 25 30 33 49 52 46 50 42 46 75 87 87 86 90 89 88 84 81 78 74 70 65 62 66 69 70 74 70 69 67 66 66 65 64 61 65 70 72
68 70 68 60 49 41 31 18 20 24 33 31 27 34 48 50 46 44 46 47 56 74 88 92 94 90 91 88 85 83 77 74 71 64 66 73 73 71 66 72 70 68 68 68 70 70 66 67 70
64 64 70 64 51 45 33 24 20 23 31 27 27 34 47 40 43 47 46 45 54 66 75 95 96 95 95 94 89 88 84 82 80 77 76 79 78 77 76 79 78 71 70 72 68 68 69 69 70
69 81 75 64 51 40 33 28 27 26 32 32 29 28 29 36 45 54 56 54 57 54 67 79 87 91 89 95 90 90 88 85 83 82 84 85 87 82 81 84 81 80 74 70 70 71 73 80 84
78 88 70 49 42 39 32 29 31 37 39 38 34 29 30 41 50 52 55 56 56 60 59 63 72 75 78 74 90 96 89 94 92 88 86 88 88 80 69 82 82 78 78 79 74 75 81 85 93
76 81 58 47 39 36 35 38 34 40 44 38 35 32 34 29 30 27 28 52 54 53 59 58 63 66 71 76 88 87 86 90 90 88 84 87 78 79 78 85 84 86 86 87 82 86 91 92 93
83 63 58 51 45 42 41 35 39 38 37 34 33 33 35 32 31 30 29 26 38 54 53 56 57 63 67 77 78 78 79 83 88 84 76 79 74 70 71 76 81 87 86 87 88 88 79 79 77
71 58 52 47 44 40 37 40 39 41 35 31 29 30 33 33 32 31 29 31 43 51 53 55 58 62 64 72 71 73 69 74 72 70 65 70 75 78 79 80 79 78 77 77 74 70 68 68 73
52 53 54 53 48 40 39 42 43 39 35 34 32 33 33 32 30 32 34 37 43 52 48 52 52 57 62 68 71 70 71 61 66 68 65 70 78 81 82 82 79 73 71 69 70 70 70 69 71
59 60 50 47 52 54 46 47 46 39 36 36 33 35 30 28 32 35 41 40 44 43 43 41 43 49 58 65 67 70 61 62 64 65 63 64 74 79 81 78 71 70 68 58 53 48 60 65 59
74 80 78 53 53 52 46 60 44 38 40 40 36 37 32 33 33 40 39 41 43 45 45 52 40 41 45 61 70 67 62 63 64 62 55 48 50 66 64 46 45 48 50 56 58 62 63 65 65
92 93 87 70 53 55 55 60 41 39 38 38 40 36 31 39 43 42 40 43 46 48 57 56 54 47 56 74 64 55 51 46 43 42 40 38 42 48 46 48 54 56 61 61 58 62 65 65 63
80 92 85 86 59 58 62 61 46 40 38 37 40 34 36 41 45 43 43 50 54 64 65 70 70 75 74 61 52 47 44 45 42 43 43 45 46 46 53 54 51 54 60 56 54 55 54 60 61
69 77 82 68 52 57 56 56 50 43 39 45 39 36 40 45 47 48 54 59 69 73 72 74 76 76 70 61 59 52 61 51 48 44 40 40 43 42 46 52 48 49 55 50 43 53 53 56 57
75 85 85 66 58 58 58 59 46 40 40 36 39 38 46 52 51 53 54 62 71 78 79 78 71 68 65 61 63 65 58 58 57 54 43 37 37 39 36 44 46 43 50 45 45 49 55 58 57
74 84 80 69 63 62 67 65 55 44 36 37 35 34 40 47 50 56 59 65 70 70 70 66 65 59 55 52 52 55 61 64 63 59 53 40 34 34 37 37 41 44 49 50 45 48 50 58 60
77 54 55 61 73 87 64 93 61 46 41 38 38 41 42 48 49 52 59 66 66 70 68 65 63 59 60 57 60 63 64 64 63 61 54 45 34 33 34 35 38 40 46 43 46 39 49 56 62
70 54 61 62 77 85 77 84 68 47 48 38 33 47 46 47 48 57 62 64 70 67 66 63 59 59 59 59 59 60 63 62 59 51 46 42 38 33 33 33 36 37 44 41 41 44 45 50 61
56 68 71 71 79 98 80 89 76 56 41 39 37 46 46 48 56 62 66 66 72 68 64 62 55 56 55 56 57 57 54 49 45 42 42 42 41 40 34 30 32 34 38 39 40 44 42 49 57
71 88 93 98 97 86 73 82 72 44 34 34 38 46 46 53 62 69 71 70 72 68 63 57 53 53 49 46 46 44 41 38 38 39 37 35 36 36 32 31 30 33 34 34 36 43 47 51 53
85 83 89 89 76 71 72 98 57 40 34 33 39 43 50 60 65 71 71 72 72 64 60 55 50 48 44 42 42 40 37 40 36 34 34 34 32 32 29 29 28 28 29 31 34 44 50 42 48
78 93 64 95 96 81 73 56 39 42 43 45 46 48 57 64 67 72 72 70 72 67 59 53 48 46 42 38 35 32 32 32 31 30 30 32 28 21 26 27 27 28 30 30 34 43 38 40 42
72 60 92 99 96 98 71 60 51 48 44 48 49 52 59 62 65 69 70 70 69 63 58 51 46 44 40 34 30 28 28 28 28 27 26 25 25 25 26 27 28 29 31 32 33 38 39 38 42
92 91 79 79 73 96 83 62 43 44 39 48 49 50 59 61 62 67 68 65 67 61 54 51 45 42 39 34 31 30 30 28 27 26 26 25 26 26 27 29 30 31 33 33 35 35 34 36 42
71 75 78 87 99 85 64 55 40 42 41 43 49 49 56 56 61 66 66 64 63 60 50 46 46 42 37 34 33 33 31 28 27 27 27 28 28 28 30 31 32 33 35 36 37 37 37 42 48

GFSSGP_sfc_rhum_030.txt.gz
RH
76 64 60 42 40 48 51 42 34 35 34 30 29 28 33 38 34 45 66 76 87 94 86 84 85 83 78 77 74 74 71 67 62 58 55 57 59 58 58 55 56 52 58 58 61 64 63 66 66
86 57 45 51 49 46 38 34 40 33 29 28 28 29 34 49 54 56 67 85 84 88 86 84 86 85 79 77 75 74 72 68 63 56 56 55 54 59 59 58 58 59 58 59 60 60 63 63 64
55 52 49 54 61 53 40 31 34 26 26 29 33 31 42 49 54 55 62 80 84 88 86 84 88 86 83 79 76 74 72 69 64 59 57 59 66 65 57 62 61 61 60 60 60 60 61 63 64
54 50 48 54 51 45 40 34 26 25 24 28 32 40 47 48 46 49 56 80 90 92 92 89 89 86 86 83 77 75 73 69 65 60 63 63 65 64 56 65 65 67 64 62 61 60 60 59 60
54 58 63 65 54 43 41 30 25 25 30 30 31 39 50 51 54 49 52 76 88 93 91 90 90 88 86 84 78 76 74 70 65 62 63 64 66 70 66 68 67 67 66 64 63 62 59 62 67
68 59 73 67 52 40 38 31 23 23 29 27 31 48 51 53 50 50 48 69 78 87 87 88 91 90 88 84 80 78 76 72 64 64 68 69 70 72 70 70 69 68 67 66 66 64 64 68 71
76 74 74 69 56 50 39 32 26 25 31 32 32 50 53 51 49 48 51 81 89 91 94 95 94 92 92 86 85 83 77 75 69 68 71 74 74 78 73 74 71 70 69 69 69 70 69 68 68
71 72 80 72 62 54 39 31 22 26 28 31 27 46 55 42 46 51 55 76 91 95 95 98 98 96 96 92 90 87 84 82 79 77 79 82 80 78 77 81 80 71 71 72 72 67 68 70 71
76 91 87 69 60 50 38 36 28 28 34 34 33 31 30 38 52 59 62 66 81 87 95 97 97 97 97 96 91 91 89 87 85 84 84 86 91 88 84 86 84 81 76 74 71 70 72 80 85
92 98 83 59 51 48 42 40 34 40 42 42 39 34 38 48 58 57 60 61 69 78 84 94 96 96 96 85 94 97 92 95 94 91 91 92 92 88 73 86 85 80 82 81 75 75 82 87 96
88 90 66 56 47 46 49 43 34 39 43 39 39 40 38 38 47 55 57 60 60 61 70 78 89 88 89 84 98 98 98 98 97 94 92 92 87 93 89 93 92 94 89 89 85 87 88 91 94
86 74 66 64 56 56 58 43 43 40 37 34 36 36 39 37 36 36 36 39 54 60 61 65 72 79 84 85 94 93 94 96 98 95 90 94 95 84 84 88 87 90 89 90 89 92 86 78 72
78 72 60 59 60 56 50 54 48 43 35 35 34 33 35 35 36 35 35 29 34 58 57 64 65 70 76 89 86 88 88 89 90 90 85 83 83 83 84 86 85 86 85 77 74 73 70 66 62
62 60 59 58 57 58 58 53 50 42 38 39 35 35 36 36 35 37 34 35 44 50 58 60 65 67 72 78 86 81 83 78 74 69 67 70 80 86 88 90 88 77 72 69 54 51 53 54 58
66 76 64 58 54 56 57 66 61 42 40 40 38 37 38 36 34 31 36 42 46 50 54 61 61 65 72 75 75 77 66 64 69 69 67 69 75 85 72 53 52 53 48 46 47 51 60 61 58
82 84 91 62 54 55 60 78 56 43 45 43 42 42 44 39 33 41 44 45 46 46 47 46 42 57 67 74 79 73 66 64 55 46 45 46 44 47 46 47 50 50 50 56 61 64 59 61 63
92 97 89 78 51 60 65 66 53 44 47 47 46 46 42 39 41 47 44 44 46 49 57 56 51 48 79 74 66 56 48 45 43 42 42 41 44 48 49 52 58 60 59 57 56 56 58 60 57
79 90 89 86 71 59 64 66 58 51 48 45 40 38 45 41 44 48 47 55 58 63 67 64 60 84 64 55 51 49 43 42 40 42 43 45 45 48 52 51 49 56 53 50 50 51 50 59 58
78 85 90 81 61 72 67 62 52 51 55 53 48 48 44 44 50 53 62 71 79 78 79 84 85 80 59 57 56 60 60 45 41 39 39 41 42 43 47 52 47 52 49 46 44 50 55 56 62
92 94 88 67 57 58 73 74 59 48 45 48 42 46 42 54 56 61 69 82 82 87 89 85 84 78 69 60 64 58 60 56 45 43 38 37 38 38 36 45 46 46 47 43 46 51 53 57 65
82 94 86 83 66 57 53 67 64 52 49 43 40 38 45 49 56 65 77 84 87 86 83 75 72 67 61 54 51 52 50 56 53 53 47 38 34 37 38 40 42 46 48 49 48 52 53 59 62
88 70 70 68 66 92 71 85 68 59 53 48 41 47 48 50 56 64 76 80 80 81 76 70 65 61 58 54 53 50 54 59 68 61 49 41 34 35 35 37 39 42 47 43 46 44 49 54 62
75 56 60 61 63 72 71 86 73 59 56 52 45 42 43 50 54 63 72 70 75 75 74 70 67 67 70 67 59 60 64 67 64 55 46 38 36 34 34 34 37 38 45 42 41 46 44 52 63
61 67 70 74 77 98 68 78 68 66 55 49 43 44 49 52 57 68 74 71 73 70 68 66 64 67 65 60 61 59 55 50 48 48 47 44 40 40 34 31 34 35 38 40 41 43 43 49 53
63 84 97 98 97 84 56 77 61 64 56 42 38 46 52 54 67 75 73 68 66 65 64 59 57 59 56 53 50 47 44 40 39 40 39 36 35 37 32 32 31 35 36 36 39 44 49 51 51
82 81 93 94 99 65 77 88 68 52 39 37 40 44 53 63 67 71 69 67 64 61 61 54 51 50 46 42 42 39 38 42 40 36 36 34 34 33 30 30 30 30 32 34 37 47 50 44 49
88 95 65 88 84 98 85 83 59 53 50 51 53 56 62 68 72 73 70 66 64 62 56 50 47 45 41 39 36 36 35 34 34 31 32 32 30 23 28 30 30 32 34 34 38 46 41 42 45
64 64 91 96 99 98 91 78 43 50 58 61 59 63 68 74 77 75 69 68 65 57 56 50 43 40 37 34 31 32 31 30 29 28 26 26 27 28 29 31 32 34 36 36 38 43 43 41 46
96 90 77 69 80 96 98 80 41 38 48 58 59 64 73 78 78 75 72 68 63 57 50 48 42 37 34 31 32 32 31 29 28 28 27 27 28 29 30 33 34 36 37 38 41 41 39 40 46
73 74 70 79 74 72 97 74 48 44 50 48 54 63 69 72 76 76 71 69 61 54 50 46 42 37 35 34 34 34 31 28 29 29 29 30 30 31 34 35 36 38 40 42 43 44 43 44 50

GFSSGP_sfc_rhum_033.txt.gz
RH
80 79 56 43 47 51 51 43 41 34 41 36 32 32 32 41 35 44 69 80 93 91 90 86 85 83 79 74 73 73 69 65 62 59 56 56 56 55 56 55 54 52 58 56 62 65 67 69 67
80 58 47 54 54 55 40 38 42 32 30 30 35 36 37 54 57 64 78 89 89 90 90 88 87 84 79 75 74 73 70 67 62 57 57 57 55 57 58 56 57 59 58 58 59 61 64 64 65
60 49 46 56 64 60 44 33 34 29 26 31 37 42 48 52 58 59 65 93 94 94 91 88 88 86 81 78 75 74 71 69 63 58 58 57 55 60 58 61 60 60 59 60 60 60 61 64 66
56 52 51 57 57 52 42 41 36 29 23 28 33 48 51 50 53 52 85 92 96 97 96 91 90 87 85 83 76 74 72 69 64 60 59 61 67 66 62 65 65 67 64 62 61 60 60 59 60
57 61 65 70 60 50 44 36 34 30 27 28 33 39 54 47 55 63 90 88 95 98 97 94 90 88 87 81 78 76 73 70 65 60 64 64 66 69 59 68 68 69 67 65 63 62 61 62 67
71 64 79 68 55 48 44 36 36 28 25 31 32 50 50 49 58 60 83 93 90 96 96 93 92 90 88 83 81 79 75 72 66 62 65 67 70 71 68 70 70 69 67 66 65 64 64 66 68
78 74 80 76 59 52 42 37 37 28 33 32 30 46 50 48 49 54 67 89 90 91 96 97 96 94 91 88 85 83 79 77 69 67 72 74 77 78 74 73 72 70 70 70 70 70 69 69 68
78 77 85 78 63 55 44 39 26 28 28 33 34 47 53 42 49 55 70 94 96 96 96 97 98 97 97 92 89 87 85 83 77 77 81 83 80 82 80 83 81 73 72 72 73 70 67 69 71
75 91 90 70 66 54 46 45 36 33 35 37 37 40 35 44 56 59 74 89 97 96 98 98 98 98 98 96 92 91 89 86 85 83 85 89 92 89 86 88 86 82 76 74 74 71 73 81 85
93 97 80 65 59 54 45 43 41 39 41 43 42 40 50 60 62 58 63 79 91 97 97 96 98 98 98 90 95 97 93 96 94 93 91 94 93 92 80 87 87 82 82 84 76 77 83 89 97
92 88 69 67 56 51 55 51 46 46 46 40 40 40 38 53 63 62 61 64 76 84 92 95 98 97 98 94 99 99 99 98 97 94 94 94 90 95 95 96 94 95 92 92 87 88 88 90 93
86 76 75 71 64 66 67 54 51 45 40 38 38 39 42 38 48 52 58 59 63 68 72 82 94 98 98 94 98 98 99 99 99 97 94 96 97 95 93 93 93 94 94 93 93 92 79 73 69
82 79 67 64 66 67 64 67 64 55 44 39 37 39 39 39 39 39 39 39 40 55 65 72 82 90 94 96 98 99 98 98 97 97 94 94 94 88 87 90 92 93 90 77 72 64 56 50 49
70 67 65 58 62 62 64 63 67 59 46 44 41 40 38 38 39 40 38 36 38 36 53 65 74 77 84 86 97 95 97 93 89 82 78 75 76 82 86 87 81 62 53 49 50 50 50 52 58
74 84 72 67 60 59 58 60 62 58 51 48 44 43 39 38 40 39 36 35 38 48 58 72 69 74 81 84 92 93 84 75 74 72 70 73 79 61 58 54 56 54 48 47 46 48 55 55 50
86 88 93 64 60 58 55 66 62 52 54 54 47 48 45 43 40 39 38 42 48 52 57 70 62 73 79 83 88 78 69 64 53 52 51 47 46 46 48 50 52 49 50 54 56 56 51 54 53
93 93 95 77 57 62 68 68 52 53 55 55 51 50 46 46 42 40 47 51 50 51 58 58 62 72 81 82 70 57 48 48 46 45 45 43 43 43 48 55 60 53 51 52 52 52 57 56 51
86 81 87 87 73 68 65 66 62 56 61 59 56 53 49 47 41 40 48 52 52 58 65 63 74 80 70 59 52 49 45 44 44 44 42 40 41 45 48 50 52 50 48 48 47 49 51 63 61
88 91 90 84 64 74 79 77 67 60 57 55 62 56 51 50 45 50 53 66 76 80 78 75 84 70 61 59 57 56 50 43 40 38 35 35 40 43 46 51 48 48 44 45 44 50 53 56 62
94 93 92 77 64 65 67 66 58 47 48 55 50 52 52 51 54 54 65 85 85 86 90 93 79 74 69 62 61 57 50 43 40 40 33 36 38 38 38 46 47 44 45 44 48 52 53 56 66
85 92 81 82 70 67 74 62 44 39 47 52 49 44 44 47 52 61 76 88 91 92 94 92 81 71 64 56 50 47 40 39 37 35 42 39 37 38 40 41 43 45 47 50 51 52 51 56 60
88 72 71 77 88 95 76 82 58 53 50 52 50 50 48 50 50 56 84 91 93 92 91 81 72 63 55 51 48 45 45 48 61 52 43 40 36 36 38 39 40 43 47 44 46 44 49 56 61
75 61 72 80 89 89 74 91 68 53 50 50 62 52 54 51 53 65 80 85 89 87 86 78 70 66 66 59 54 54 61 58 56 45 39 36 37 35 35 36 37 40 47 43 43 44 45 54 61
65 73 78 93 82 96 70 82 60 47 52 59 55 54 53 48 55 65 84 81 84 82 80 76 72 74 67 63 62 56 55 50 47 51 46 43 40 40 35 32 35 36 41 41 43 44 43 49 51
64 99 98 98 98 88 62 73 60 46 56 56 54 54 51 55 66 82 81 80 77 76 76 72 68 70 65 60 58 53 49 45 44 44 44 38 36 37 33 32 32 37 38 39 42 46 49 51 51
81 87 94 95 90 79 61 81 57 42 35 30 29 48 55 61 70 76 77 75 73 70 69 67 64 60 54 50 47 44 42 44 42 40 38 36 35 35 31 31 32 34 35 37 40 49 52 47 50
96 97 71 90 92 96 82 68 48 43 45 56 53 50 61 68 72 75 73 70 68 65 63 60 56 51 46 42 40 40 39 37 35 33 32 34 32 26 30 32 34 36 37 38 42 49 44 46 47
76 69 95 99 94 94 83 80 50 43 30 22 55 63 68 71 75 76 70 67 64 60 57 52 46 43 40 37 34 34 33 32 31 29 28 29 29 30 32 34 36 38 39 40 42 47 47 45 48
92 97 81 73 88 97 99 69 68 40 32 35 67 70 75 79 80 74 69 65 60 56 51 46 41 37 35 33 33 32 32 30 29 29 29 30 31 32 34 36 38 40 42 43 46 46 44 46 47
70 81 78 80 90 78 96 71 52 59 51 60 74 74 82 81 76 74 70 64 57 54 48 43 38 35 34 34 33 34 32 30 31 31 32 32 33 34 37 39 40 42 44 46 46 48 47 49 52

GFSSGP_sfc_rhum_036.txt.gz
RH
79 72 50 42 45 51 56 42 57 35 40 38 36 34 35 42 35 45 71 86 92 90 96 88 83 81 78 75 74 72 68 65 62 59 59 60 60 58 52 52 54 54 57 57 64 67 71 73 70
80 58 45 55 53 60 50 44 43 36 30 29 35 39 41 50 58 60 78 83 93 91 94 94 87 84 78 75 74 72 69 65 61 57 55 56 55 56 55 55 56 58 58 57 60 63 66 67 66
62 45 43 54 66 61 50 34 40 33 30 31 39 44 46 54 60 58 67 91 95 90 95 93 89 85 81 75 75 73 70 67 61 57 58 58 56 58 59 58 59 60 60 59 60 60 62 65 66
59 52 53 58 59 55 44 43 41 34 27 32 37 48 52 52 58 58 85 97 94 95 97 93 90 86 84 80 76 74 71 69 63 59 59 59 64 63 61 64 65 66 63 61 60 60 59 58 60
60 63 65 73 60 54 49 42 39 37 32 31 34 40 52 52 61 85 97 96 97 99 98 96 91 87 84 80 77 76 73 70 65 60 59 61 65 71 64 67 68 69 66 64 63 61 62 62 66
73 66 79 70 62 55 46 41 42 34 29 28 38 51 49 51 60 83 95 97 96 98 98 96 93 90 88 84 80 78 75 72 67 61 64 65 67 70 68 70 70 70 67 64 65 64 64 65 67
79 78 81 77 65 54 44 38 42 39 32 30 37 54 51 49 56 68 93 94 96 97 98 98 97 95 92 87 85 83 78 76 71 65 68 74 79 75 71 73 71 70 68 68 70 69 68 68 68
83 75 86 79 62 59 45 43 37 28 29 34 38 49 61 46 55 60 75 93 95 97 98 99 98 98 97 93 90 88 86 85 78 77 81 83 82 85 81 82 81 73 71 72 73 72 68 69 71
78 92 93 80 70 59 50 48 40 37 36 38 39 44 39 52 62 73 88 95 98 96 98 99 98 99 98 97 94 91 89 88 84 84 87 89 92 89 88 88 88 82 76 75 74 73 74 82 87
94 98 84 68 62 59 51 53 47 44 46 45 42 40 56 68 68 64 76 89 96 98 99 95 91 91 99 92 97 97 94 96 94 92 90 94 93 92 84 88 85 81 83 83 79 79 82 86 95
94 91 76 73 66 64 62 58 53 55 56 44 46 40 46 72 76 66 67 78 90 93 97 96 88 89 95 89 99 100 99 99 97 94 94 94 92 95 96 97 96 95 92 94 88 90 90 90 92
88 82 83 77 70 72 76 64 69 56 50 40 46 41 43 42 58 64 65 65 68 77 90 95 96 94 94 99 99 99 99 99 99 97 95 97 98 96 95 96 93 94 94 92 94 89 72 55 47
86 85 70 67 63 71 69 74 76 71 52 48 48 44 43 42 41 45 50 50 58 64 72 85 97 98 96 98 99 99 99 99 98 98 95 95 94 91 90 94 96 96 92 70 56 52 48 45 43
79 75 72 65 61 63 67 65 70 64 59 56 50 47 45 45 41 44 41 40 42 42 45 74 89 95 97 93 98 98 99 98 94 88 86 84 80 79 86 74 58 52 51 50 48 47 49 52 48
80 89 80 74 67 65 61 66 67 51 57 60 57 52 46 44 44 42 39 39 39 37 42 65 80 88 94 92 95 98 98 86 85 82 74 74 80 64 58 56 54 55 50 44 42 47 50 46 43
84 87 98 68 68 62 60 72 55 48 49 59 61 57 52 44 41 44 42 42 41 46 55 70 68 84 87 87 96 94 85 75 66 66 68 60 49 49 51 51 49 45 49 50 52 51 52 49 50
75 96 96 81 64 66 73 77 64 56 60 67 66 62 54 49 45 45 43 44 49 54 59 71 83 88 91 95 86 71 58 54 51 50 48 44 43 45 48 50 51 46 48 49 48 50 60 55 47
90 98 89 90 76 73 76 76 62 54 56 58 63 67 61 54 47 44 43 48 54 58 66 67 86 93 87 67 58 54 53 51 46 45 43 40 39 40 43 46 46 45 46 46 45 46 52 62 62
94 97 95 84 68 81 79 73 63 58 68 72 62 59 61 57 47 47 46 53 59 68 74 86 89 82 67 64 62 59 58 50 42 39 36 36 38 41 44 49 45 45 44 46 42 50 48 59 64
93 90 78 66 69 74 71 68 56 52 54 56 54 56 58 56 55 50 55 76 79 78 81 90 83 78 70 66 65 58 69 47 40 39 36 34 34 40 40 44 45 42 45 46 47 46 48 55 68
90 93 81 74 71 66 78 65 40 35 37 42 39 41 48 52 53 55 63 80 89 90 92 92 84 77 69 57 49 44 44 36 36 35 36 36 38 41 41 42 44 45 49 53 52 49 52 55 57
86 72 76 79 89 91 80 78 50 49 42 36 37 49 54 56 56 54 64 87 92 93 96 92 78 70 60 54 50 45 45 40 40 38 35 36 38 39 40 41 42 44 48 46 47 43 52 56 60
78 68 78 80 92 96 85 94 64 54 46 44 64 63 54 55 51 56 66 71 92 96 96 87 73 67 64 55 50 51 54 46 38 36 34 37 38 37 38 38 40 42 48 44 44 45 47 55 57
70 75 81 88 96 98 72 86 58 43 38 43 51 55 54 58 58 55 69 91 95 96 90 79 71 74 67 60 54 48 41 37 38 43 40 43 43 43 37 35 38 40 44 43 46 46 44 49 51
78 97 98 99 97 86 66 78 60 44 42 46 47 57 62 62 64 84 92 93 94 93 86 79 71 74 59 55 51 43 39 38 39 42 40 38 38 40 35 34 36 40 41 42 45 48 50 51 51
88 83 93 94 95 86 65 84 54 46 36 33 31 39 53 62 76 82 86 88 89 87 82 76 72 69 57 54 53 48 44 46 44 41 39 38 38 38 34 34 36 36 38 40 44 52 53 49 52
94 96 71 92 81 95 72 78 53 41 36 39 56 44 44 66 83 86 89 86 85 83 79 72 66 59 53 48 45 44 42 40 37 35 36 37 35 30 34 36 37 38 39 41 45 51 47 49 50
81 68 97 98 96 94 86 83 63 47 42 32 26 35 60 76 86 91 88 83 79 74 69 61 53 49 45 42 38 36 35 33 32 31 32 32 32 34 36 37 38 40 42 44 46 49 50 47 51
97 98 99 80 87 94 92 55 56 55 64 63 57 30 66 78 85 86 82 74 68 63 58 52 45 41 39 36 34 32 31 30 30 30 32 33 34 35 37 39 40 42 44 46 47 48 45 49 54
63 88 80 97 94 89 90 58 50 70 65 65 68 74 88 88 86 80 74 67 62 57 51 45 40 37 36 34 32 32 32 31 32 33 34 34 36 38 39 41 42 44 46 47 47 47 49 54 58

GFSSGP_sfc_rhum_039.txt.gz
RH
66 58 38 41 40 40 38 30 32 29 29 26 25 26 27 28 31 35 58 67 70 66 74 70 83 82 78 75 74 72 69 66 62 60 62 64 67 60 52 52 54 57 58 59 67 70 76 74 70
64 45 41 46 40 43 37 30 34 29 25 25 27 31 27 32 41 45 53 64 73 70 74 68 86 84 78 75 74 71 67 64 62 58 56 56 54 54 55 56 56 59 58 59 61 64 68 69 69
48 36 39 42 48 42 38 29 30 28 27 26 28 32 29 34 44 43 51 69 74 74 76 74 86 84 80 76 74 72 68 65 61 58 57 54 56 58 57 57 59 61 60 60 60 61 64 66 65
50 44 42 43 45 44 35 29 29 30 24 24 27 33 37 36 41 42 65 75 76 79 77 84 88 86 82 80 76 73 70 67 61 59 60 59 58 57 62 63 65 66 63 61 60 59 59 60 62
50 49 49 53 46 41 37 34 31 30 28 23 25 27 35 40 50 67 76 80 76 83 79 75 90 87 83 78 77 75 73 70 64 60 59 59 63 68 64 67 68 68 65 64 62 60 61 62 66
58 51 56 53 46 43 37 33 31 29 25 21 27 34 34 40 49 77 82 83 80 87 82 77 89 89 86 82 80 78 75 72 66 61 61 62 65 69 66 70 71 70 66 64 65 66 66 67 66
65 61 62 55 51 43 36 30 31 29 29 24 27 32 32 36 46 74 79 81 83 83 83 80 74 81 91 87 84 83 79 77 72 65 67 71 77 74 75 74 71 70 67 68 70 70 68 66 67
64 58 69 61 50 47 35 35 30 28 21 23 27 30 31 33 50 70 76 78 82 86 83 83 82 77 76 74 89 88 85 84 79 76 79 81 79 84 81 81 79 72 70 71 73 72 71 70 73
64 77 78 65 59 46 39 37 32 30 30 31 27 29 31 50 55 67 76 81 81 84 86 85 86 84 82 78 79 88 89 88 83 79 88 82 67 66 68 83 88 82 76 75 76 74 77 84 86
80 89 74 62 53 49 44 44 41 37 40 37 32 29 40 53 55 57 59 66 81 80 84 84 84 85 86 83 81 80 76 72 68 63 69 68 69 66 67 78 82 77 81 81 79 77 77 73 60
86 83 69 64 58 61 61 58 45 44 51 41 36 34 34 47 54 54 55 56 59 72 79 82 79 80 85 83 86 85 82 78 73 70 66 67 67 67 65 65 64 66 80 64 65 64 62 64 50
81 75 78 70 62 63 65 60 64 55 47 38 35 39 37 35 34 51 52 50 57 67 70 79 77 81 83 83 85 85 83 82 79 73 72 69 70 72 66 63 64 66 63 64 66 57 46 43 38
79 74 66 63 59 58 64 69 64 64 55 46 46 48 45 40 37 33 40 48 50 52 58 73 81 83 82 87 86 89 82 81 77 76 73 71 72 72 62 65 67 66 59 49 49 45 40 34 26
68 71 69 64 61 56 60 58 65 54 53 53 53 49 45 41 38 37 36 33 34 34 38 53 75 84 83 85 87 87 80 78 79 80 82 80 78 72 79 58 56 53 48 44 39 35 32 27 23
71 82 72 69 64 63 55 64 65 46 46 51 50 48 47 43 39 38 35 34 32 32 31 39 59 78 86 85 84 81 79 78 84 84 78 79 75 76 61 55 54 48 39 32 30 32 29 26 24
71 68 81 62 64 60 54 57 49 40 46 48 46 43 45 40 36 35 36 36 34 38 37 39 52 75 81 79 80 79 76 75 82 78 75 73 61 56 54 49 40 38 33 32 30 32 32 28 27
74 83 89 73 58 59 64 68 53 53 53 53 52 50 50 46 41 38 38 37 34 34 38 47 60 73 80 79 79 76 73 68 63 61 55 49 47 46 46 44 34 29 31 33 29 34 36 32 28
83 93 87 83 60 65 67 66 55 47 49 47 46 48 50 50 46 38 37 37 36 42 46 50 66 79 80 79 68 60 57 66 61 61 46 43 43 40 39 38 32 31 31 29 33 30 34 32 34
82 90 85 66 60 67 67 66 55 49 49 53 48 44 45 50 42 41 41 38 41 47 55 58 76 82 72 68 65 61 60 70 55 48 38 38 40 35 34 33 32 32 31 28 25 31 32 34 37
78 83 78 65 58 66 68 68 53 47 45 40 39 40 43 41 46 44 42 42 46 47 58 69 77 76 68 65 63 58 72 72 68 45 39 38 37 34 31 32 33 31 32 30 29 31 32 34 43
87 89 77 74 63 60 65 59 37 31 35 36 38 37 37 39 39 40 44 47 59 62 64 71 74 70 66 57 57 54 61 55 51 40 44 44 33 31 32 33 32 34 34 34 35 36 39 34 40
84 68 71 78 83 81 64 70 41 33 31 28 28 33 38 38 36 39 45 49 64 65 73 74 72 66 58 53 55 56 63 57 45 44 42 36 32 33 30 32 31 32 34 33 33 32 34 37 35
75 64 72 77 86 93 75 89 48 45 44 38 34 35 34 37 36 42 47 48 55 77 82 76 70 62 56 52 54 55 55 53 40 34 33 32 33 30 31 32 35 33 33 33 33 33 34 32 36
66 77 74 84 94 96 65 81 53 39 33 31 28 28 44 43 41 43 46 53 70 84 85 77 68 62 56 54 50 49 44 38 34 34 34 36 29 31 32 31 33 32 33 34 34 34 36 34 38
74 99 94 94 97 81 60 78 56 38 37 34 34 35 38 44 54 56 66 73 82 89 84 74 66 63 55 51 46 40 35 31 31 32 32 29 28 30 30 30 29 31 35 36 36 40 44 42 40
81 81 88 94 87 73 64 76 50 40 36 33 32 32 31 48 55 59 64 74 80 87 79 69 65 62 53 48 40 35 37 37 36 33 30 27 26 28 30 29 29 30 32 32 35 40 41 43 40
84 96 69 89 72 88 58 53 38 32 34 39 35 33 43 40 50 65 74 78 82 84 76 70 64 59 52 47 41 39 36 36 33 30 27 27 27 26 29 30 31 32 32 33 38 37 34 35 36
83 70 94 97 96 92 68 65 51 44 36 40 55 54 49 40 54 71 79 83 83 80 72 65 57 52 47 42 38 35 31 28 28 26 27 27 26 28 30 30 31 32 33 33 33 33 36 34 38
90 96 99 95 96 88 70 48 39 35 43 64 63 68 68 46 60 75 83 81 79 71 64 56 49 45 41 36 32 30 27 26 24 25 26 26 27 28 30 30 31 32 32 32 31 32 34 38 42
65 73 80 97 94 91 82 62 33 55 68 63 66 81 85 77 83 85 78 73 70 62 55 48 42 38 35 31 28 27 26 26 25 26 27 27 29 30 31 31 31 31 33 32 31 33 38 42 45

GFSSGP_sfc_rhum_042.txt.gz
RH
44 32 24 24 27 25 25 19 19 22 21 19 18 20 21 20 24 27 41 44 44 46 48 61 81 82 78 75 74 74 72 68 64 68 66 74 69 62 53 54 56 58 56 63 68 74 82 76 72
37 26 24 24 27 27 21 18 19 21 19 18 18 20 22 22 26 35 37 46 43 45 49 50 85 83 77 76 74 71 69 66 62 62 61 61 58 56 58 57 58 58 57 60 63 67 70 70 70
36 25 25 26 26 26 23 20 17 21 19 19 21 21 21 24 31 29 36 45 44 47 46 53 86 83 79 75 73 70 67 65 62 60 59 58 57 57 57 58 62 63 61 60 61 62 66 66 63
32 27 24 28 27 24 22 18 20 21 18 18 19 23 24 26 29 31 38 45 44 45 44 78 86 84 82 79 74 71 68 64 61 61 60 59 59 61 62 65 68 66 64 62 60 59 60 63 65
31 28 28 32 25 20 20 19 20 22 20 17 16 21 23 28 32 37 42 46 44 46 45 60 87 85 83 78 76 73 71 67 62 61 61 61 64 61 66 68 70 69 65 64 63 62 63 63 66
34 28 30 30 23 21 22 19 20 20 18 17 16 17 20 29 34 42 44 46 44 51 50 52 84 87 85 81 79 76 74 70 64 62 61 60 62 70 68 72 72 70 66 65 66 67 67 67 66
33 32 27 25 22 22 22 19 22 19 18 18 17 19 20 26 34 45 45 46 50 51 51 51 57 72 89 86 84 82 77 76 69 64 66 66 75 70 70 74 72 71 68 68 70 70 68 66 67
33 31 28 30 26 25 21 22 19 20 18 16 18 17 19 28 38 44 46 47 48 51 49 48 52 56 59 64 88 87 84 83 79 75 78 81 81 82 82 81 77 71 70 71 73 72 71 72 75
45 36 31 31 28 26 27 26 20 21 21 23 19 20 25 31 39 46 48 48 48 51 50 48 51 52 53 58 72 87 89 86 82 75 87 80 47 55 62 82 84 80 74 74 75 75 80 80 80
44 43 33 27 28 30 28 30 26 28 25 23 22 22 26 33 39 42 43 44 48 52 52 49 51 53 56 56 62 64 61 60 53 46 52 45 44 44 48 70 77 74 78 76 75 74 73 72 44
46 47 33 43 37 43 41 40 33 30 31 26 24 23 26 29 36 38 34 31 36 41 47 50 51 62 58 58 57 60 59 56 54 47 45 44 45 43 41 45 46 49 73 48 54 53 48 47 38
54 45 42 44 46 49 48 39 42 34 27 25 29 28 29 28 27 30 35 32 32 38 43 49 48 59 69 67 63 56 58 57 54 52 45 46 47 49 46 43 48 50 46 50 51 43 41 37 32
50 40 42 40 48 43 39 42 40 38 31 30 31 33 32 28 27 26 24 28 32 34 38 44 49 53 63 72 72 63 58 57 54 53 48 46 48 48 46 46 46 48 48 43 42 39 35 29 24
48 51 47 45 43 41 46 39 36 33 28 27 28 30 29 28 26 26 26 25 23 30 30 34 46 50 55 71 73 76 56 53 56 52 50 50 53 61 55 55 53 49 44 41 36 31 28 25 19
52 57 43 41 39 43 40 45 41 30 27 28 27 25 26 24 23 26 26 26 23 21 21 23 34 44 54 61 72 68 53 52 56 53 56 66 63 62 61 53 50 42 34 28 27 26 22 20 19
52 52 50 40 45 40 42 41 26 26 28 31 28 24 24 25 23 22 23 25 24 25 24 23 26 33 46 55 60 54 51 52 54 58 63 64 67 62 53 48 41 32 30 26 24 23 24 22 21
49 42 49 47 44 45 46 44 33 38 33 33 27 27 28 28 24 22 20 21 24 22 22 25 29 31 41 50 52 51 51 52 56 58 61 68 56 48 46 36 33 25 26 26 22 26 23 24 22
42 52 46 47 39 42 44 43 35 33 33 32 30 28 29 30 29 28 26 24 22 24 24 24 29 36 44 49 52 54 53 55 56 57 55 56 46 41 40 31 26 24 25 24 25 25 24 23 22
51 52 55 44 40 43 39 36 31 28 28 28 27 26 26 24 24 26 26 27 29 28 28 29 33 40 48 53 56 60 60 65 66 64 52 46 39 34 34 28 25 25 24 22 20 23 25 26 25
53 55 51 43 39 43 39 39 30 28 28 27 24 21 19 18 18 21 24 25 27 29 30 32 38 45 52 52 53 52 59 70 74 58 50 43 34 34 33 26 26 24 23 23 22 24 26 26 28
58 56 51 50 43 42 45 42 28 22 21 21 22 21 20 20 19 17 17 23 30 32 31 35 40 50 53 53 54 56 59 55 54 48 45 40 30 26 30 26 25 25 25 27 27 28 30 27 28
61 46 54 56 59 61 47 50 30 24 23 22 19 19 20 21 21 20 19 18 27 31 35 37 44 52 54 56 55 58 60 63 57 46 47 46 37 29 25 24 24 25 25 26 26 23 24 26 27
60 50 52 56 65 69 56 82 30 23 27 22 20 18 18 18 19 21 23 23 22 34 40 45 49 54 54 53 53 56 57 52 48 46 40 41 33 30 27 24 26 25 25 26 27 26 25 22 27
54 59 59 59 77 87 43 60 32 17 15 17 18 18 18 17 20 21 23 26 27 34 50 54 54 54 53 54 53 56 55 51 47 40 46 45 42 32 25 24 25 25 26 27 27 27 28 26 30
66 86 84 84 91 64 34 42 37 20 23 23 22 18 18 19 21 25 28 32 33 38 56 58 54 55 53 53 53 51 49 50 48 38 40 36 27 30 26 24 22 24 28 28 28 33 38 36 33
84 68 69 74 54 32 41 54 26 20 25 23 21 18 24 25 24 22 29 37 39 46 56 57 54 54 51 51 49 46 42 34 31 30 30 30 28 26 24 22 22 24 25 25 28 32 33 37 32
64 86 56 76 56 65 36 26 20 18 19 20 21 29 31 29 28 28 25 36 40 48 56 56 53 52 50 48 43 36 32 33 30 29 28 26 24 21 23 23 23 24 24 24 30 27 25 26 28
59 49 80 91 84 69 40 34 32 26 24 23 24 31 30 34 37 29 25 38 44 49 55 54 50 50 48 41 37 34 32 29 27 26 27 23 20 21 23 23 23 24 24 24 24 23 25 25 26
80 90 79 75 77 69 66 40 23 24 22 22 36 34 36 45 46 34 29 41 50 55 58 54 50 48 44 39 34 30 29 26 25 24 22 21 20 21 21 21 22 23 23 22 21 22 24 28 31
44 57 62 93 87 87 80 61 27 28 26 39 35 31 36 51 57 50 46 54 60 61 57 51 47 44 40 34 30 28 26 24 23 22 21 20 20 20 21 21 21 22 23 21 20 22 26 31 34

GFSSGP_sfc_rhum_045.txt.gz
RH
49 24 20 22 27 24 24 19 12 16 15 12 16 18 19 19 21 30 33 36 33 41 49 63 83 82 79 75 75 75 73 70 70 70 71 75 69 62 56 58 58 58 58 66 75 79 83 83 75
34 23 22 22 28 27 22 14 16 13 15 15 15 17 19 20 19 34 36 36 34 38 48 52 84 82 78 76 75 74 70 66 66 66 71 70 62 57 58 58 60 59 59 60 66 73 76 73 70
34 22 25 26 27 26 20 16 14 15 16 17 17 17 18 22 24 26 31 35 34 38 42 57 86 83 79 76 73 71 67 64 62 63 60 60 57 56 57 61 64 62 61 61 62 63 64 63 62
29 24 22 29 28 20 16 15 12 17 15 16 17 21 18 22 23 25 32 33 34 36 38 80 85 83 82 78 72 69 67 64 61 62 62 60 60 60 62 66 67 64 63 62 59 60 63 65 69
29 24 29 27 23 16 14 14 14 17 16 16 16 19 21 24 26 29 34 33 34 35 45 61 86 84 82 77 74 71 68 64 63 62 61 61 62 65 67 70 71 66 65 64 64 64 64 66 65
29 23 29 27 21 16 13 14 16 17 15 15 16 17 19 26 28 32 35 33 32 36 42 56 85 86 84 80 77 75 72 66 63 63 63 64 64 67 70 72 72 68 66 67 68 68 67 67 67
34 29 27 22 18 16 14 15 17 17 16 15 13 18 17 22 30 33 34 33 35 36 39 50 61 74 89 85 83 81 76 74 69 67 66 66 72 69 72 74 73 69 68 69 71 70 68 66 67
29 27 28 23 19 18 13 15 16 16 16 13 14 17 16 26 32 33 34 36 37 39 38 41 50 58 61 66 88 86 84 82 77 74 80 80 82 81 80 82 78 71 70 72 73 72 72 73 75
34 36 31 26 19 17 15 19 17 15 16 16 14 15 22 25 32 35 38 38 39 40 39 38 42 52 54 58 71 87 88 86 82 75 86 80 49 58 69 84 85 78 74 74 75 76 78 77 79
42 38 29 17 15 18 19 21 19 21 20 17 17 16 20 25 31 36 37 38 40 43 40 37 40 44 52 60 71 65 63 62 56 47 58 48 41 46 55 70 82 76 76 75 73 70 71 76 49
40 39 24 22 29 27 26 23 23 25 28 18 18 17 21 25 28 31 31 29 33 37 40 39 40 40 43 55 73 59 61 55 55 43 45 41 40 47 46 51 52 56 73 54 62 63 57 44 39
42 31 28 28 32 37 39 30 28 25 26 17 17 21 23 24 22 26 29 26 25 30 36 40 38 42 42 48 51 58 59 59 59 46 41 43 43 41 42 44 48 51 48 49 58 47 41 38 33
42 37 28 30 33 36 36 37 33 30 25 22 21 24 26 26 22 21 21 24 24 27 32 37 39 41 49 51 48 44 61 57 53 49 42 41 43 45 44 44 45 46 49 48 45 41 37 33 29
36 37 34 33 33 34 39 35 32 28 23 23 23 24 23 25 24 22 23 22 24 26 28 31 37 39 43 54 67 53 46 60 59 52 46 43 44 45 47 48 51 49 46 44 39 36 34 31 24
44 49 38 34 33 35 34 41 37 27 24 24 22 21 20 20 20 22 22 23 22 20 24 26 32 36 41 47 65 71 49 56 61 57 45 46 48 55 53 51 53 47 39 34 33 30 27 24 23
46 42 43 29 32 29 35 41 22 21 22 24 22 20 20 19 17 18 19 21 22 22 21 20 21 31 38 43 56 72 51 51 66 57 46 49 52 56 53 52 47 38 36 32 30 27 26 26 24
41 40 36 30 28 32 39 39 24 25 27 24 22 20 20 20 18 16 17 18 20 21 22 23 24 26 31 41 46 53 47 49 60 55 50 53 56 56 50 46 39 33 32 30 25 28 24 26 26
37 40 34 32 29 34 36 34 28 25 26 27 26 24 23 21 21 19 17 16 16 19 21 20 24 28 29 34 44 45 44 54 61 60 56 56 56 50 46 39 33 30 30 28 29 28 26 25 25
42 40 38 32 28 33 33 31 26 22 21 22 22 21 20 20 19 19 20 22 21 20 22 23 24 26 30 38 45 47 52 74 88 83 62 57 50 44 41 36 32 30 28 26 23 26 28 30 28
43 45 40 33 30 35 33 32 26 24 23 21 21 20 19 18 17 17 18 21 22 23 26 26 25 27 34 39 44 45 59 79 84 74 58 50 47 41 35 35 32 27 26 25 25 26 30 30 31
47 46 42 40 34 33 36 36 25 20 21 21 20 19 18 18 17 14 14 18 26 26 25 27 26 30 37 41 45 49 66 67 68 66 61 55 48 46 45 43 31 30 31 34 32 33 37 36 33
53 36 41 44 50 51 38 53 31 21 19 18 17 17 17 18 16 16 15 15 18 25 28 29 30 33 39 46 50 59 68 70 67 71 67 56 42 39 34 31 29 29 31 31 31 26 27 34 33
51 45 46 48 57 66 51 62 33 17 16 15 15 15 15 15 15 16 17 20 18 22 31 35 33 36 44 48 53 60 60 60 59 65 55 55 50 34 29 33 34 30 30 28 30 28 27 24 31
48 52 55 56 65 88 45 44 31 15 12 13 11 14 15 14 15 15 18 21 22 27 33 42 40 43 47 54 52 56 58 55 54 58 64 64 49 37 31 30 30 29 31 31 29 30 31 29 33
58 69 84 88 90 65 26 30 30 16 16 16 16 15 14 14 16 17 18 21 22 28 31 42 43 46 50 52 51 52 56 53 55 59 66 51 45 39 36 29 26 28 32 30 30 38 44 41 39
65 67 68 73 50 36 27 42 24 14 17 18 17 17 16 16 18 23 23 24 25 32 32 41 46 47 48 50 52 53 50 50 52 47 40 36 36 34 29 25 24 26 26 27 32 38 38 41 38
68 89 52 72 53 60 33 20 16 15 15 16 17 18 20 21 23 28 28 24 25 30 33 44 48 47 49 51 52 50 49 46 43 34 32 31 31 27 26 26 24 24 24 24 33 31 26 26 28
50 42 80 90 84 64 32 28 27 22 20 18 19 20 22 23 28 31 28 26 22 30 34 45 45 47 50 51 48 44 37 31 30 29 29 30 28 30 25 24 24 24 23 23 24 24 25 24 27
68 75 68 53 63 61 57 36 20 24 22 22 21 19 25 27 30 37 30 25 26 32 40 45 46 49 50 46 40 36 32 28 28 28 28 26 26 26 23 22 22 22 22 21 21 21 22 26 29
42 55 59 87 71 71 72 56 26 25 23 24 24 26 26 24 36 42 37 34 37 42 51 49 48 48 45 39 37 33 28 28 27 27 26 25 24 21 20 20 20 20 21 20 19 20 23 27 30

GFSSGP_sfc_rhum_048.txt.gz
RH
59 37 30 41 55 46 42 31 20 24 23 16 19 23 25 24 36 65 51 44 57 67 73 78 85 83 80 76 76 76 75 74 75 74 74 70 67 60 60 60 60 58 67 72 77 79 82 78 73
54 37 38 46 53 49 36 23 23 21 21 20 19 21 23 30 39 45 53 43 50 59 69 75 85 83 80 77 77 75 72 70 71 70 73 70 62 59 60 62 61 60 63 68 75 77 77 75 70
51 36 48 50 47 45 36 22 20 16 18 22 22 18 22 36 35 43 46 42 46 59 60 74 85 84 80 78 76 72 68 65 67 67 71 64 59 58 60 64 62 62 62 65 66 67 66 64 62
41 43 38 43 39 31 27 20 22 20 20 21 21 26 26 32 35 42 42 40 46 53 70 86 85 84 82 79 73 70 67 64 64 62 62 60 58 60 65 67 64 64 63 61 62 64 64 68 68
40 46 46 41 34 28 21 16 20 24 22 22 22 25 37 37 37 41 42 40 45 66 75 80 86 84 81 76 74 71 67 64 63 64 62 64 64 64 69 71 66 66 64 64 65 66 67 68 68
48 43 48 46 34 23 18 15 19 23 20 19 23 22 42 36 39 43 42 44 43 72 69 76 86 85 83 79 77 75 70 66 66 67 64 66 67 70 72 73 69 67 67 68 70 69 68 68 68
48 45 44 36 31 23 18 15 20 22 22 21 20 26 34 36 43 42 43 41 45 60 69 74 80 84 86 84 82 80 76 73 72 72 72 75 76 76 75 75 71 69 69 72 72 70 69 67 70
41 44 45 35 30 27 18 16 19 21 22 17 19 26 40 48 43 43 43 46 49 50 63 70 76 80 83 87 87 86 83 81 78 77 82 80 79 78 82 84 79 72 73 75 75 73 72 73 75
35 52 50 41 32 27 17 24 21 20 22 19 22 22 31 37 42 48 50 51 52 50 52 59 72 70 71 78 86 89 88 85 81 80 86 84 78 82 85 83 84 82 77 76 76 76 78 82 83
52 64 55 33 24 28 24 26 25 26 24 24 23 20 28 32 45 51 53 56 56 57 54 51 64 66 64 66 85 86 84 87 81 75 89 80 67 71 70 88 88 83 82 81 77 74 76 78 68
49 60 38 28 23 35 36 33 28 30 35 28 24 21 26 32 36 43 46 48 52 54 53 49 53 59 61 67 79 72 74 72 71 61 75 70 64 70 74 85 85 91 88 83 81 79 71 54 54
50 40 37 37 31 39 42 34 38 31 32 26 25 25 30 31 33 36 40 40 44 49 51 52 51 52 64 75 79 74 73 67 63 56 59 64 68 66 63 71 72 74 72 69 64 57 53 50 44
42 38 33 32 33 36 38 44 45 40 32 27 26 26 33 34 33 30 33 34 37 42 47 52 52 53 53 63 72 68 70 67 62 62 58 62 64 62 64 68 67 72 62 65 59 56 52 47 39
39 40 39 37 35 36 39 40 42 36 30 31 29 31 31 32 33 33 32 31 33 36 45 49 51 53 59 65 66 60 66 63 62 62 62 58 64 65 68 70 71 69 64 61 60 55 46 44 33
47 56 49 45 41 42 39 47 45 34 31 32 29 27 26 28 29 32 31 32 31 31 37 44 48 51 57 63 76 83 66 69 64 64 55 58 63 70 75 74 72 67 58 52 46 41 38 39 34
57 57 70 39 37 36 40 55 36 30 32 33 30 28 26 26 24 23 26 29 31 32 32 37 39 47 55 59 76 79 78 67 67 66 58 60 69 72 73 74 69 52 54 49 45 43 43 41 38
55 60 56 45 36 37 41 52 36 28 34 36 31 28 26 24 23 23 22 22 24 32 32 34 37 44 54 60 72 78 72 66 64 68 67 64 69 70 70 67 56 51 49 45 40 42 40 41 41
54 58 46 43 41 41 46 45 35 30 28 35 36 34 31 29 25 22 21 22 24 27 30 32 39 37 43 60 67 75 74 73 65 65 66 66 74 68 68 58 52 48 46 42 45 41 40 41 41
44 48 51 39 32 37 39 38 33 29 28 28 28 28 28 28 26 26 26 28 27 26 31 32 37 36 36 48 60 67 70 76 85 87 71 74 75 62 55 56 46 45 45 42 36 40 42 47 44
44 53 54 41 32 39 42 41 34 30 28 26 25 24 24 25 25 23 26 30 30 32 32 32 36 37 37 38 54 64 94 90 96 92 81 73 65 62 53 50 44 39 37 34 33 42 43 46 43
55 58 52 48 41 40 44 47 39 29 28 27 25 24 23 24 23 22 22 25 32 32 35 33 38 37 40 50 64 82 86 82 86 75 69 66 67 66 70 68 51 37 42 46 42 43 46 50 45
60 44 44 47 58 72 51 82 45 32 28 26 28 28 27 24 23 23 23 24 22 32 32 38 40 37 45 57 63 80 84 92 93 90 83 66 66 61 57 62 50 39 47 44 42 39 39 48 46
54 49 52 55 68 76 64 84 58 32 29 22 23 24 25 25 24 24 25 25 25 29 40 32 41 36 47 50 59 82 83 87 81 71 69 63 66 59 51 43 47 42 44 37 40 39 37 39 49
50 57 60 65 76 92 67 66 60 33 25 22 18 22 21 22 23 24 25 29 32 34 36 48 50 49 56 59 71 75 76 78 77 67 73 71 63 51 41 36 39 40 43 43 42 42 43 44 46
58 68 95 99 99 92 39 58 50 27 23 22 20 24 23 22 23 26 30 32 32 33 41 40 56 55 66 74 76 71 71 70 71 71 70 55 50 47 46 44 41 44 43 43 47 55 56 53 56
70 75 96 89 91 72 47 59 36 23 20 24 23 24 26 26 26 30 41 41 40 39 41 42 59 62 72 71 72 72 63 66 67 68 56 57 51 48 42 42 38 34 38 44 51 57 58 55 59
69 87 66 81 69 90 55 32 23 18 19 20 23 25 27 26 27 40 41 40 38 41 44 43 64 66 72 70 72 62 61 63 67 57 49 48 43 35 38 34 31 35 35 38 46 51 41 39 41
61 52 86 96 97 88 58 43 37 32 31 26 26 27 26 28 35 40 46 44 37 39 46 46 64 68 69 73 60 58 61 58 50 39 41 39 30 31 31 37 30 31 33 32 36 36 33 33 40
74 82 75 73 85 93 90 56 35 38 34 36 34 30 30 38 35 46 52 50 42 41 51 60 67 66 70 62 52 45 41 39 36 35 32 30 30 29 29 33 28 30 30 29 30 30 31 33 38
56 67 69 92 86 89 98 73 32 35 38 40 39 32 32 34 36 53 56 57 52 50 60 67 63 61 54 43 41 37 35 32 30 29 29 29 29 27 26 25 27 28 28 26 26 28 30 35 40

GFSSGP_sfc_rhum_051.txt.gz
RH
69 60 56 46 54 61 62 48 40 26 24 30 26 26 30 34 40 62 69 76 82 86 82 82 85 83 82 80 79 80 78 78 77 75 73 69 64 64 63 61 60 67 71 72 64 67 76 75 73
72 56 52 55 63 68 58 38 35 24 26 25 22 24 27 54 51 59 70 75 76 80 82 83 85 83 81 78 78 77 76 76 76 77 73 67 63 62 62 60 59 66 71 75 76 78 77 73 70
65 55 57 61 64 64 57 35 29 23 22 24 25 26 30 48 53 58 59 69 75 81 80 82 86 84 81 79 77 75 73 74 73 75 71 66 62 61 63 62 61 62 69 72 72 70 68 66 64
60 58 53 58 58 46 38 30 31 25 23 22 26 30 40 45 47 52 55 65 75 77 86 88 86 84 84 81 75 71 68 70 69 73 67 62 61 64 65 63 64 64 65 67 68 68 69 69 68
55 65 68 66 49 41 35 29 23 25 24 27 28 31 48 49 53 50 54 62 70 83 85 85 86 85 82 78 74 71 67 67 65 66 62 61 63 68 69 66 66 64 64 65 66 66 68 70 69
59 62 78 68 52 36 30 24 23 25 27 26 26 29 52 48 53 51 51 70 76 82 79 82 86 85 82 78 77 75 71 69 66 67 66 67 68 72 73 68 68 68 68 69 70 70 69 70 70
64 66 69 63 52 41 31 23 26 25 26 27 25 30 58 55 56 51 52 78 77 76 81 86 84 83 84 81 80 77 74 74 73 72 73 76 77 77 75 72 69 69 71 72 71 70 69 70 72
57 65 68 60 45 41 27 24 22 25 26 22 23 29 70 59 52 51 53 78 79 80 82 92 92 85 86 84 85 82 78 78 79 79 82 82 81 83 81 83 78 72 73 76 75 74 72 73 74
51 72 76 61 51 40 27 30 22 25 24 23 26 32 46 48 51 56 63 68 79 81 84 86 93 94 94 93 87 88 87 84 83 84 87 85 85 86 86 87 84 82 78 78 77 76 78 83 83
61 76 64 46 40 37 35 40 33 29 28 30 28 37 39 49 55 57 64 66 72 82 82 82 86 86 89 78 92 96 89 92 90 91 92 88 85 91 80 88 87 85 84 83 78 77 78 80 82
59 74 54 46 38 38 44 41 39 36 42 29 28 26 39 44 51 59 60 63 64 64 72 78 81 78 80 80 92 93 94 96 89 86 92 90 78 84 94 98 96 96 92 91 88 85 81 61 80
66 52 46 44 41 42 49 46 48 50 38 34 32 33 34 40 46 52 57 58 63 63 58 74 73 74 73 78 86 85 83 86 86 76 83 84 85 85 91 94 96 95 92 91 88 83 58 53 46
56 50 42 41 42 40 40 50 52 49 42 37 35 35 34 36 37 39 42 46 58 58 56 60 66 68 73 82 81 76 76 74 70 66 70 73 73 75 77 84 83 87 84 80 71 60 56 46 36
52 46 50 46 47 45 44 45 49 48 37 38 34 34 38 36 36 39 38 37 44 53 56 52 61 61 70 80 86 80 75 70 64 61 64 66 65 66 72 79 82 77 72 69 64 60 52 40 34
51 63 60 55 52 52 42 52 53 42 42 44 40 37 32 33 34 36 36 37 36 36 54 55 54 60 66 70 84 75 75 70 67 66 54 63 66 70 80 78 77 72 64 54 46 44 41 41 35
64 69 87 54 46 49 48 61 44 39 44 42 39 36 37 32 31 31 31 34 36 37 46 55 48 58 64 67 77 86 76 79 77 63 54 61 70 77 78 76 74 67 62 54 48 46 44 44 42
63 81 80 64 40 46 51 61 42 36 39 41 39 38 34 31 30 31 28 26 27 36 37 48 56 58 63 66 72 78 89 80 88 74 57 58 76 72 72 74 66 58 52 49 40 43 42 43 42
71 80 65 59 47 46 51 55 46 39 37 40 41 46 41 33 28 25 26 29 28 29 37 39 49 55 63 69 76 80 91 94 80 68 63 67 75 70 69 64 60 53 49 50 44 40 46 45 42
63 60 59 54 41 43 51 51 42 37 36 33 32 38 33 33 33 33 30 30 29 32 34 40 44 50 63 79 86 89 92 92 94 86 68 74 72 66 61 60 54 50 46 43 40 46 43 45 45
63 60 64 50 41 45 48 47 39 35 35 32 31 33 31 28 30 30 29 32 35 32 34 39 44 38 43 65 77 84 92 97 96 95 76 76 73 65 58 54 51 47 44 40 38 38 48 44 44
67 70 67 59 50 50 55 54 47 37 35 31 28 27 27 27 30 30 30 29 32 38 38 38 40 46 42 50 86 94 95 95 96 90 81 78 70 69 63 65 62 45 44 46 44 44 46 50 46
71 54 54 56 66 80 58 85 65 41 31 32 37 34 30 28 30 28 26 27 28 32 38 40 40 47 48 60 81 86 88 95 96 95 91 78 68 72 63 69 60 61 57 48 45 41 43 50 48
64 54 59 63 76 84 75 83 62 51 36 31 28 29 35 34 29 28 31 28 28 29 35 44 44 47 50 53 70 81 94 98 95 90 82 81 75 62 60 53 49 57 63 56 46 38 39 42 49
53 62 66 73 82 98 78 75 61 44 33 28 29 24 30 29 28 30 30 34 34 36 37 46 46 50 52 52 79 82 94 95 92 88 85 84 80 70 50 45 52 56 56 63 49 49 40 43 47
64 78 96 93 96 92 64 79 66 43 33 29 28 25 25 24 25 26 41 44 44 43 40 42 45 54 58 68 85 85 87 90 87 83 82 82 63 59 45 46 52 55 54 52 49 54 54 54 51
78 77 94 95 98 86 59 80 49 30 30 26 25 26 26 30 28 28 44 46 46 45 45 44 44 53 73 89 84 80 82 88 86 84 78 74 58 55 47 46 48 46 47 52 55 57 60 58 58
81 90 70 87 85 94 72 49 32 26 30 27 27 27 28 28 30 36 48 48 48 48 47 47 47 64 89 86 82 79 83 85 85 81 71 64 56 46 42 44 45 48 50 48 49 50 41 46 46
65 61 88 95 93 94 74 59 43 40 40 37 39 38 35 34 34 42 54 52 51 53 52 50 49 75 88 84 76 73 82 83 77 68 60 47 37 36 39 41 40 43 46 38 41 38 35 36 43
77 88 78 80 91 94 96 67 41 41 41 46 44 39 37 35 35 38 56 56 58 59 58 61 73 87 92 72 70 78 76 70 63 57 45 34 34 36 36 35 35 37 34 31 32 36 33 34 38
70 76 70 93 82 96 94 84 41 36 43 44 40 47 45 48 35 45 60 61 62 66 68 66 87 86 66 58 64 63 58 50 49 47 34 31 32 32 31 32 33 30 28 28 32 34 31 36 38

GFSSGP_sfc_rhum_054.txt.gz
RH
70 66 64 49 53 65 70 56 50 36 27 28 27 26 32 44 43 52 80 82 89 91 85 84 86 86 85 83 81 82 80 77 75 71 70 67 68 65 62 64 66 66 62 64 62 67 76 75 73
76 56 53 60 66 71 62 52 38 34 27 26 26 26 34 60 58 88 91 86 84 86 85 84 86 85 83 82 80 80 79 78 76 75 71 67 66 64 63 60 65 67 68 68 66 74 76 75 73
66 59 55 61 73 70 60 43 40 24 25 25 29 27 40 52 64 76 87 82 82 86 85 84 86 85 82 82 81 80 79 78 80 76 69 67 65 63 62 61 64 70 77 77 75 74 71 69 68
64 62 61 67 71 55 48 43 37 28 23 25 30 35 50 53 60 70 81 79 88 92 90 89 87 85 84 83 79 77 76 75 75 75 69 66 63 64 62 63 64 71 73 72 70 69 68 68 68
61 69 76 75 61 53 43 38 35 30 27 27 30 37 60 61 61 77 83 81 88 96 92 88 87 85 82 79 76 74 74 72 76 72 67 62 64 66 64 65 65 66 69 70 69 70 70 69 71
63 71 87 68 56 45 37 32 34 28 26 24 29 48 60 62 67 76 78 82 82 93 88 87 88 86 84 79 76 75 74 71 71 68 63 64 69 70 67 68 65 65 68 68 68 68 69 70 70
67 73 84 76 61 54 38 31 30 27 26 25 24 41 71 72 59 66 79 82 84 85 86 88 88 86 85 81 80 77 75 73 73 73 73 74 78 76 70 69 69 69 70 71 71 69 69 70 71
61 70 78 70 58 51 36 30 23 27 26 24 25 55 69 56 56 77 86 88 89 84 86 93 91 87 86 86 84 80 78 78 76 78 81 84 86 84 79 79 77 72 73 74 73 71 71 72 73
56 80 87 66 55 46 37 39 27 26 28 26 30 44 53 54 59 78 95 95 92 87 95 95 95 95 95 94 86 85 84 85 84 86 87 88 90 91 89 87 84 81 77 77 76 75 76 82 84
67 84 72 53 49 49 39 46 39 32 30 31 40 49 59 59 64 73 94 97 96 94 96 94 95 95 95 81 94 95 86 92 92 92 91 90 92 95 86 90 87 84 84 84 78 78 82 84 87
67 80 55 50 48 48 48 48 45 45 38 35 38 51 48 65 66 64 77 90 94 92 90 89 93 92 92 85 97 97 98 98 96 94 94 93 87 98 97 98 96 97 94 96 92 90 86 75 88
75 56 48 50 47 50 50 48 56 50 41 44 47 38 34 44 54 63 65 72 80 90 88 86 86 88 90 85 94 95 96 94 94 91 94 97 95 98 98 99 98 98 97 95 95 94 70 58 52
66 58 49 47 48 48 43 51 53 52 45 42 41 37 37 38 42 48 58 62 65 79 82 85 84 84 86 92 89 91 91 89 84 82 87 87 92 96 94 97 98 98 96 94 94 77 61 44 35
57 51 51 51 52 51 50 50 50 49 42 42 41 41 39 37 38 43 42 45 64 64 66 79 81 79 80 87 89 86 83 83 83 77 76 79 80 87 88 91 90 93 92 87 76 65 54 40 36
56 68 64 57 55 55 50 53 57 43 43 45 44 45 41 38 35 36 39 40 40 54 67 70 78 74 76 82 89 86 82 80 78 74 69 73 73 78 79 84 90 84 78 69 58 45 43 40 36
66 72 83 58 53 49 50 62 50 43 49 48 47 43 42 38 35 34 32 37 40 43 48 66 66 75 74 80 90 91 84 80 80 72 66 68 66 68 81 84 82 74 66 56 51 46 45 45 42
73 86 81 66 48 49 59 68 46 38 47 48 46 44 42 38 38 37 33 30 32 37 41 66 64 72 74 77 86 88 87 82 92 81 64 64 63 76 80 80 79 69 60 54 46 48 44 44 42
82 86 75 68 47 57 59 66 51 45 47 47 44 43 46 43 37 33 33 32 29 33 38 44 68 71 74 79 85 91 94 91 89 78 66 62 73 80 79 78 68 58 54 50 45 42 47 45 41
64 62 69 56 45 51 49 51 48 43 42 39 38 40 37 35 34 37 36 34 34 33 34 42 51 70 78 89 93 96 95 95 93 93 78 74 79 75 73 67 58 53 48 47 39 45 39 43 47
74 81 79 56 48 51 54 54 44 38 37 34 31 30 32 33 34 35 35 36 36 35 35 38 47 50 72 75 77 90 92 95 93 94 91 81 77 75 76 60 53 48 48 44 43 45 50 47 47
74 73 70 65 55 57 58 45 41 40 38 33 30 30 30 30 29 30 33 33 34 37 40 39 41 50 63 69 87 99 98 98 99 99 96 89 80 79 78 66 61 56 52 48 44 48 47 49 48
73 58 57 60 67 79 62 75 63 46 45 36 40 42 34 31 31 29 30 32 32 34 34 40 42 47 52 84 92 90 86 95 97 95 97 94 83 82 78 70 66 69 66 48 52 51 56 56 47
68 56 60 66 79 84 81 84 58 47 39 36 30 28 30 36 35 34 35 31 31 32 33 36 43 48 54 72 86 89 85 93 99 98 95 93 93 88 78 69 65 69 71 56 54 56 54 54 54
55 64 72 82 86 96 78 78 60 47 37 29 27 28 27 36 35 35 35 34 36 39 37 39 47 51 55 63 78 86 96 98 98 97 97 92 92 91 80 64 70 73 64 64 61 47 46 49 47
64 76 96 94 98 83 70 86 67 47 39 38 34 32 26 30 31 38 46 46 45 45 45 43 42 40 54 64 81 85 94 94 93 93 93 92 86 83 77 70 67 68 58 50 50 56 60 50 48
74 75 92 84 98 91 66 83 50 41 34 29 29 34 34 34 33 32 46 49 47 51 50 48 47 47 47 68 88 93 91 93 93 90 89 85 80 77 72 63 58 57 47 52 57 63 64 55 54
80 89 71 90 86 96 78 58 34 40 40 38 40 42 44 41 39 36 47 50 50 47 47 51 51 51 52 75 96 96 95 94 92 92 88 82 78 66 64 60 53 50 50 51 57 57 50 48 46
67 65 89 94 82 88 76 72 50 45 46 42 47 48 48 48 45 42 47 53 53 52 54 59 60 58 59 93 95 94 94 93 90 86 84 74 64 56 59 54 48 49 47 47 46 43 39 39 46
83 90 86 82 90 94 97 60 46 42 46 51 52 49 58 61 54 50 48 49 56 58 58 60 67 74 96 91 91 95 95 91 86 86 77 61 49 49 44 40 42 42 41 39 38 41 34 36 39
72 80 76 92 79 97 90 76 48 55 51 50 42 57 57 64 59 60 52 60 66 66 77 83 86 96 89 85 89 92 88 86 84 78 64 51 48 41 41 37 38 39 40 32 34 37 42 47 44

GFSSGP_sfc_rhum_057.txt.gz
RH
72 68 66 50 54 68 74 56 62 42 35 30 32 32 33 44 41 48 85 91 87 91 87 86 87 86 86 85 83 85 82 81 77 73 72 71 68 66 67 69 69 61 54 64 63 71 72 72 72
78 58 54 63 63 71 63 57 43 37 33 28 31 33 48 58 67 96 95 92 86 88 88 88 88 88 84 82 80 80 78 76 75 73 68 68 68 65 63 65 64 61 59 62 64 69 77 76 73
65 58 58 64 77 65 55 47 41 31 28 31 32 34 43 56 70 88 89 90 85 89 88 89 89 87 84 82 81 79 78 78 76 74 69 69 66 65 60 62 64 72 72 73 76 80 76 72 69
68 66 64 73 74 59 49 45 41 35 28 28 33 55 60 59 71 75 91 88 91 94 94 90 88 86 85 85 83 81 80 81 79 75 70 68 65 63 62 63 70 70 78 74 73 70 69 68 66
66 73 84 84 69 58 52 43 38 37 36 29 28 38 67 65 78 93 92 87 90 97 95 90 88 85 83 82 81 80 75 78 79 73 70 66 64 63 63 64 69 74 73 72 71 71 70 70 70
73 75 88 75 64 48 44 41 38 35 33 28 33 64 66 78 94 94 89 94 90 94 92 89 89 87 85 77 80 81 78 75 77 73 69 65 67 65 66 66 66 71 72 71 70 70 70 70 70
72 85 89 76 50 50 43 37 38 35 33 28 28 68 72 79 91 91 93 94 94 93 93 93 93 90 88 84 81 80 79 78 79 75 72 74 76 70 68 67 66 68 70 71 70 69 69 70 70
65 70 80 78 62 52 40 33 29 29 28 25 32 63 79 67 79 90 93 97 97 96 94 97 96 95 94 91 85 82 81 80 79 78 79 85 86 82 74 79 77 72 72 73 72 70 70 71 72
63 83 91 64 60 53 43 45 36 34 31 28 30 52 56 63 89 96 98 96 97 94 97 98 98 97 96 94 89 86 84 84 84 86 88 89 95 92 87 87 83 81 76 75 74 73 74 81 83
68 88 74 57 51 53 45 50 45 40 39 32 44 62 72 73 90 97 96 90 89 91 95 92 97 97 96 82 94 94 89 94 94 93 93 95 95 96 90 90 87 83 84 84 78 78 83 86 94
72 81 59 54 51 52 56 50 50 53 45 43 47 41 47 80 88 94 96 91 89 87 86 87 97 96 93 87 97 98 98 98 97 94 95 94 91 98 98 98 97 97 94 97 93 93 91 84 92
79 62 56 53 50 54 57 51 57 53 46 44 49 43 39 49 70 84 93 96 97 96 90 92 94 96 94 90 96 95 94 97 98 97 95 97 98 99 99 99 98 98 98 96 97 97 78 65 64
74 66 54 50 50 56 50 52 58 56 45 50 43 40 40 41 43 56 71 84 94 96 94 93 93 94 94 96 95 96 95 93 90 94 95 97 97 99 99 98 98 98 98 97 97 90 63 47 39
61 56 53 51 50 55 53 54 54 53 48 48 46 43 43 41 39 47 49 60 83 92 91 89 90 89 90 91 95 95 94 92 89 86 88 94 91 98 98 98 98 98 98 97 94 76 55 41 36
62 72 67 61 56 55 53 56 63 48 44 47 43 48 45 42 40 39 38 43 56 75 83 88 88 85 88 90 95 94 91 88 89 86 81 86 88 95 95 97 98 97 96 90 75 54 44 42 37
70 75 86 60 56 53 50 61 52 48 47 50 49 46 43 46 41 38 37 38 42 47 75 77 79 84 85 86 96 95 90 87 86 84 78 78 80 86 94 94 95 89 85 75 58 50 47 46 42
77 92 87 67 51 53 60 72 50 42 50 53 51 48 47 42 41 43 38 38 38 42 44 80 82 83 85 88 94 94 91 87 93 80 79 75 74 79 85 88 92 80 72 63 51 51 47 45 42
90 84 78 72 54 59 67 74 56 51 51 54 50 47 46 42 38 37 42 38 36 39 42 50 76 79 84 88 93 95 96 93 94 82 78 76 71 77 81 89 84 72 65 59 51 47 48 45 41
69 75 78 65 50 53 55 58 46 42 48 50 48 45 43 40 33 38 39 39 39 40 40 45 74 76 85 92 96 95 96 96 98 92 79 76 75 79 78 82 76 66 58 50 44 46 40 42 47
72 84 85 64 55 56 58 59 46 40 39 38 34 34 35 36 36 35 37 40 39 37 39 42 53 72 77 84 86 91 93 94 94 94 90 80 79 84 81 80 70 61 57 47 44 45 49 46 49
85 86 76 70 59 62 64 54 45 39 39 37 36 33 33 33 31 30 36 35 39 40 39 38 43 54 74 75 88 99 99 99 99 99 96 86 84 87 83 81 69 58 52 52 57 51 46 50 48
82 60 60 63 70 81 65 71 59 44 43 42 39 37 41 38 34 34 34 36 36 35 36 38 40 48 68 78 88 91 88 92 95 94 94 95 92 94 92 88 75 71 80 74 76 66 63 52 45
69 58 62 69 81 82 81 84 56 48 41 34 36 31 32 33 40 39 38 35 34 34 35 36 40 46 56 73 82 90 89 89 96 99 98 97 97 94 92 88 83 78 80 80 74 78 68 50 55
59 64 73 86 82 92 78 74 51 46 42 34 37 35 34 34 34 36 41 39 40 38 37 39 41 42 51 69 91 93 90 97 99 100 99 98 97 96 92 85 86 83 80 73 75 73 64 53 57
65 75 93 86 96 82 76 83 63 48 46 44 42 41 44 43 40 38 37 49 47 44 44 44 43 41 49 63 83 93 94 96 95 96 96 97 97 96 90 83 86 83 80 71 62 63 58 59 55
77 72 87 74 96 89 74 87 56 42 37 34 43 52 52 54 49 43 38 50 52 51 47 49 47 45 46 52 71 91 94 96 96 95 96 94 93 92 86 85 81 77 64 61 61 63 60 56 54
81 88 73 90 85 96 81 61 35 43 46 49 50 48 55 61 62 55 47 49 53 53 50 50 52 52 52 56 71 92 97 97 96 96 96 96 92 86 85 81 74 64 58 54 56 56 50 46 48
69 65 87 94 82 81 65 72 45 48 51 52 53 53 55 62 63 65 56 50 50 53 53 54 58 60 61 67 87 95 97 96 97 96 96 90 84 79 78 72 60 53 53 50 48 46 44 42 48
86 93 86 83 89 88 92 45 51 46 52 55 51 51 59 69 70 68 67 64 60 56 65 64 65 70 75 90 95 98 99 98 96 95 90 82 75 72 66 61 53 48 46 40 38 39 41 46 50
74 79 78 90 83 98 92 73 48 51 50 52 49 53 57 66 71 70 69 69 74 78 89 92 92 93 94 95 97 99 97 96 96 91 81 72 76 64 57 49 43 41 39 35 36 37 42 49 55

GFSSGP_sfc_rhum_060.txt.gz
RH
73 67 64 50 55 68 74 54 65 45 40 33 34 35 35 41 44 50 87 94 94 89 90 89 88 87 86 86 87 87 85 82 79 74 71 71 71 70 70 72 69 60 59 63 67 71 70 71 71
77 59 55 64 63 70 63 61 46 43 36 31 34 37 46 54 78 97 96 93 87 91 90 90 89 88 87 86 85 85 82 80 79 74 70 68 67 66 67 66 64 57 59 63 66 74 80 75 73
65 55 59 67 77 67 56 47 44 38 32 35 30 35 44 57 78 93 89 94 88 94 93 91 89 88 87 86 84 83 80 77 77 74 72 69 67 64 64 64 61 67 64 70 68 77 79 74 67
69 66 65 74 76 64 45 55 46 40 32 32 35 38 52 70 77 86 96 91 95 98 96 92 90 88 86 85 83 80 79 78 77 74 70 67 68 62 63 66 68 76 80 81 78 75 72 70 66
68 75 84 88 76 65 60 46 46 44 41 39 33 32 59 71 90 98 92 89 93 95 97 94 89 87 87 86 84 84 82 80 80 73 71 68 65 64 65 68 74 68 72 74 72 71 71 71 70
81 76 89 80 71 55 53 45 45 41 39 32 36 60 67 90 98 92 83 91 80 85 97 94 90 88 86 85 85 85 78 82 80 74 71 67 66 64 66 68 75 74 72 72 72 71 71 72 70
82 91 88 76 54 50 45 40 40 38 41 33 36 65 64 87 97 92 88 93 78 83 97 97 95 91 90 78 86 82 81 80 82 78 74 74 74 69 66 67 69 74 73 73 72 70 68 69 70
72 79 85 81 61 53 38 37 35 34 31 31 33 42 54 78 94 97 98 87 86 91 97 99 98 96 96 92 88 86 84 82 83 81 81 85 84 79 74 77 75 72 73 73 72 70 70 72 75
66 86 91 69 62 50 42 45 42 38 37 33 30 53 62 89 97 97 97 92 89 94 99 98 99 98 97 95 90 87 86 85 85 86 88 91 95 90 86 87 83 80 76 74 73 71 75 83 85
71 90 78 56 51 48 48 50 52 48 45 40 41 52 85 98 98 93 91 91 92 90 94 89 99 98 97 86 94 94 92 94 94 94 93 96 96 96 90 90 86 83 83 82 76 77 84 89 96
75 81 58 57 50 51 54 59 52 58 52 40 48 45 64 97 95 89 85 82 84 79 82 83 97 98 97 94 98 99 98 98 97 95 96 96 96 98 98 98 97 97 94 97 94 95 95 91 89
80 66 58 52 52 54 59 55 62 56 47 42 50 50 44 79 89 98 91 86 83 82 80 79 94 98 97 98 98 98 98 98 99 97 96 98 98 99 99 99 98 98 98 97 98 97 77 92 57
75 70 58 52 52 57 54 57 58 58 50 50 46 49 47 44 43 59 85 96 85 84 82 82 89 98 97 98 98 99 98 97 97 98 97 97 98 98 99 99 98 98 98 97 98 92 65 54 44
64 60 58 54 53 53 56 59 57 54 53 52 50 48 46 42 40 44 53 75 98 90 82 82 88 96 97 95 97 97 96 95 96 97 95 96 97 98 99 99 99 98 98 98 97 84 54 43 36
64 71 68 60 58 57 59 63 67 50 47 49 49 51 45 44 44 40 38 44 74 94 93 96 94 95 96 95 97 97 95 92 90 90 93 94 95 95 98 99 99 98 98 96 90 64 47 44 37
73 79 89 65 60 57 50 63 52 52 53 51 50 56 52 45 42 43 41 39 41 70 93 93 86 92 94 95 96 97 96 93 92 90 87 88 92 94 97 98 98 98 98 97 80 56 50 48 44
75 96 92 74 58 55 62 76 55 51 56 56 55 53 51 50 45 45 41 43 41 43 54 89 90 92 93 93 94 96 95 95 96 94 90 83 86 90 94 97 97 95 94 87 66 55 50 50 45
82 74 87 79 58 63 73 77 57 53 57 55 56 56 53 49 43 38 42 42 42 42 43 54 90 90 92 93 94 95 95 96 97 95 87 88 80 85 91 96 96 89 85 76 59 51 49 48 43
76 80 82 70 55 59 60 63 51 42 49 51 52 49 48 45 40 41 39 42 41 46 46 46 76 90 94 97 96 97 95 94 94 97 89 91 81 86 86 90 93 85 77 68 51 50 44 46 46
64 73 83 70 60 59 61 62 49 42 44 41 39 38 40 40 39 37 37 40 41 40 45 46 47 68 91 92 90 87 90 90 91 96 95 90 86 90 85 87 88 82 76 62 49 48 50 46 52
80 81 84 78 63 65 66 58 49 40 40 40 40 40 40 40 36 33 38 38 40 42 43 44 46 49 81 86 92 99 98 99 98 97 98 94 90 90 88 88 89 78 69 69 65 63 51 54 49
99 68 63 64 73 84 68 78 59 48 39 39 43 37 36 36 38 41 40 39 40 39 41 42 44 49 64 90 93 93 90 93 92 92 93 96 91 92 90 90 89 83 80 79 80 74 76 76 68
74 60 64 71 83 82 79 79 53 48 40 35 42 42 45 46 41 40 43 41 41 40 41 41 40 48 53 77 89 96 94 94 96 97 96 96 96 92 94 90 91 85 84 88 80 82 78 78 73
62 67 75 81 80 90 80 72 45 46 48 47 44 48 54 55 52 48 46 50 50 49 48 45 42 41 50 65 89 95 94 97 98 100 99 99 99 97 96 94 88 85 86 86 85 81 74 66 66
66 78 92 81 92 83 82 84 60 51 50 51 49 53 58 63 58 53 50 49 52 52 51 50 49 45 49 61 80 92 94 96 95 97 98 99 99 99 98 93 90 88 88 85 83 78 79 70 64
80 75 86 69 91 79 74 87 57 47 44 46 52 56 60 65 70 64 56 56 57 56 56 54 51 50 49 53 67 86 94 98 96 96 96 96 97 96 96 95 94 93 88 84 78 76 71 58 55
83 90 70 89 88 94 81 66 41 46 52 54 50 54 58 65 70 71 68 59 58 58 58 60 56 55 57 59 62 71 89 97 97 97 97 98 97 96 95 94 91 87 78 73 72 68 60 47 48
71 67 85 93 86 77 62 67 40 52 57 51 51 55 56 62 69 74 72 66 63 64 65 67 66 64 66 75 79 81 89 94 96 98 99 98 97 94 94 91 86 80 70 61 54 48 42 42 50
83 92 85 82 89 83 82 40 48 48 52 61 56 56 62 70 74 76 74 72 72 76 87 92 93 94 94 95 95 96 97 99 98 98 98 96 94 90 86 78 73 65 55 48 44 42 42 46 48
74 80 77 89 88 97 93 64 47 53 56 50 50 52 68 78 78 78 75 76 79 91 90 83 79 88 96 97 98 98 93 95 95 93 89 84 82 71 69 59 52 46 39 37 37 39 46 50 57

GFSSGP_sfc_rhum_063.txt.gz
RH
62 54 48 46 44 48 49 40 39 34 30 22 24 25 28 30 38 37 76 75 70 68 70 72 87 87 87 86 86 87 86 84 81 77 72 73 72 72 72 72 70 67 66 64 70 67 69 71 68
62 47 48 52 48 48 42 42 39 36 27 27 26 27 35 34 54 80 81 78 72 73 70 70 89 88 88 88 88 87 84 81 80 78 73 71 69 69 72 69 62 59 63 65 73 75 75 73 63
55 44 48 53 54 48 42 36 34 30 29 26 24 25 28 37 55 70 71 77 71 75 72 75 90 89 88 89 88 86 83 80 78 76 74 68 66 66 65 63 60 66 71 72 73 81 77 69 62
57 51 50 54 62 52 34 32 34 32 26 26 24 23 32 46 55 64 78 75 76 79 72 85 91 90 88 87 87 84 80 78 77 76 75 70 65 62 64 64 71 79 80 81 79 78 72 66 64
56 55 62 68 58 51 44 36 35 34 32 28 25 23 29 54 80 82 80 78 77 82 74 75 90 88 87 85 83 81 78 79 78 73 71 68 66 63 66 68 74 79 80 78 75 73 72 71 66
62 57 66 63 60 49 43 36 34 33 30 25 25 28 37 76 85 83 76 78 70 80 79 74 90 89 88 86 84 82 81 82 80 74 71 68 66 65 66 73 69 70 75 74 74 72 73 71 70
67 68 62 60 48 46 42 36 34 32 29 25 24 30 36 67 83 78 76 75 71 76 80 77 74 80 90 85 82 84 84 86 82 79 77 75 74 70 67 72 75 73 71 74 74 73 70 71 71
64 60 72 63 48 47 35 34 29 30 26 22 26 26 27 60 82 83 81 74 75 81 80 79 77 72 70 66 87 83 80 82 86 82 82 83 80 78 72 77 78 76 75 74 72 70 71 73 75
57 69 69 58 56 44 37 34 31 28 26 26 24 30 47 70 85 90 89 84 85 88 86 82 81 77 76 70 77 84 84 83 85 82 88 84 63 64 64 79 82 80 77 74 72 72 78 84 85
62 74 66 53 48 44 40 38 38 35 37 31 29 40 81 84 87 88 87 89 91 90 89 83 87 81 80 76 75 75 71 65 63 65 67 66 68 65 66 77 86 84 83 81 75 78 85 79 61
68 68 56 52 44 44 48 46 41 42 42 35 33 39 76 87 88 83 83 80 83 81 85 81 84 84 79 76 77 74 75 72 71 69 70 70 73 74 68 69 69 73 84 69 74 76 68 68 54
73 63 53 47 49 50 52 45 46 45 39 34 41 38 42 80 89 83 79 76 80 79 80 79 82 87 80 75 76 74 75 74 73 72 71 74 76 80 78 71 74 77 74 76 77 70 61 64 47
71 62 56 49 49 50 48 50 47 48 42 41 41 42 38 40 58 71 78 78 74 78 76 77 80 86 81 80 76 75 72 73 69 74 74 72 75 78 79 78 74 75 76 72 76 68 52 56 37
62 59 55 53 50 49 53 52 52 47 43 42 44 42 41 39 35 34 53 76 79 76 75 77 79 85 81 78 80 73 70 70 73 72 75 75 72 74 79 80 80 75 74 72 71 64 48 44 32
60 70 64 54 54 52 52 56 62 44 43 42 41 39 42 38 36 34 33 40 70 79 74 75 78 84 88 83 84 80 77 71 72 73 73 75 75 75 75 77 82 76 72 72 71 58 39 34 29
71 68 80 60 53 52 46 53 45 44 47 45 44 42 44 40 36 33 34 34 34 59 82 78 77 86 89 86 88 87 85 74 70 69 71 74 75 76 76 77 79 76 76 72 69 56 41 36 32
80 89 84 66 57 54 48 58 47 45 48 46 45 43 44 43 40 38 36 36 33 32 45 78 82 83 88 87 88 88 85 83 85 81 70 70 72 75 74 75 75 77 78 76 69 53 43 41 37
86 82 83 68 55 61 66 67 56 44 46 48 46 43 43 44 39 33 33 36 33 35 35 44 78 82 85 88 90 93 93 90 89 86 75 77 70 74 77 75 74 78 79 76 67 56 42 39 37
68 68 76 69 50 50 57 59 48 42 42 41 40 39 38 38 37 37 36 35 37 38 39 38 48 72 85 93 93 94 96 95 93 91 82 83 75 76 79 77 73 76 78 73 65 53 45 40 34
64 72 74 60 51 51 56 54 45 41 42 39 36 36 37 36 32 32 34 36 36 35 39 41 42 49 81 79 78 79 85 90 89 92 90 84 79 79 80 77 78 78 76 72 61 50 46 40 38
72 70 74 65 55 54 58 52 44 34 35 35 34 34 34 34 34 31 32 35 41 40 38 38 40 43 63 80 83 90 90 92 92 94 92 91 82 80 80 77 80 76 74 75 66 55 54 47 42
94 66 63 61 66 75 58 62 51 39 38 42 43 44 44 45 42 38 40 38 39 39 42 43 42 42 50 74 84 85 80 85 82 86 88 88 88 84 84 80 82 83 84 79 77 67 61 67 61
93 81 60 64 72 69 63 64 45 38 38 41 43 47 50 51 50 45 44 48 43 49 47 44 41 42 43 56 76 84 84 84 82 84 84 89 94 88 86 83 82 82 82 81 77 77 68 66 67
64 63 67 72 71 83 63 60 39 39 39 41 41 48 53 57 55 51 50 50 49 54 54 55 43 38 42 50 69 88 86 87 94 93 93 90 94 94 90 88 86 86 82 80 78 78 72 67 66
62 73 87 82 88 69 71 73 48 42 43 40 46 48 52 60 61 59 55 54 54 57 58 52 50 45 43 46 52 68 87 88 91 89 91 89 97 98 96 93 91 88 84 82 79 81 80 75 74
69 71 82 69 73 62 69 76 45 42 40 41 44 47 54 60 62 64 62 58 57 60 59 56 54 50 48 48 48 55 69 86 90 87 87 90 92 92 90 93 90 85 83 83 82 85 82 80 80
71 81 62 87 80 82 65 56 39 42 46 45 46 50 54 59 63 66 65 62 58 60 60 68 66 61 55 56 59 58 58 71 86 90 89 88 88 91 91 91 90 87 84 82 83 84 75 69 61
67 64 81 90 82 72 50 51 42 50 46 45 47 50 53 63 68 68 67 66 61 63 72 74 71 75 80 82 78 75 78 77 79 85 87 89 88 87 90 90 89 88 84 80 79 74 58 50 50
79 87 81 75 77 67 60 34 42 47 47 50 48 49 60 76 74 73 69 68 69 76 71 64 65 72 79 82 84 90 91 90 90 90 90 88 86 87 86 85 82 77 74 66 59 51 45 44 45
68 76 70 86 85 90 86 49 38 44 50 51 48 49 74 77 77 68 70 75 81 73 66 64 67 72 80 83 88 88 85 86 88 88 86 84 85 80 76 73 65 60 55 45 43 40 41 44 55

GFSSGP_sfc_rhum_066.txt.gz
RH
53 39 28 28 30 27 26 24 20 24 23 17 17 18 18 20 22 27 52 49 42 44 50 64 87 87 87 86 87 87 86 83 81 78 74 74 73 71 72 71 69 66 66 71 68 68 68 68 63
44 34 29 29 30 32 25 20 25 19 18 18 18 19 19 23 29 46 50 56 44 47 49 53 89 88 87 87 87 87 84 82 80 78 75 72 71 72 73 69 63 62 66 66 74 72 73 65 64
44 33 30 31 31 30 25 22 18 19 19 19 18 18 20 25 36 42 50 51 44 48 48 56 90 89 88 89 88 86 85 82 80 78 74 70 69 69 68 64 58 62 71 71 81 79 72 63 66
37 32 29 36 35 28 22 19 20 20 20 18 18 18 20 35 37 43 49 47 46 46 46 82 91 90 90 89 87 86 83 80 78 75 73 65 66 65 63 62 73 80 78 73 81 75 67 64 68
38 32 38 41 33 26 24 18 20 21 21 19 16 18 18 39 50 50 50 48 49 46 48 63 91 90 90 88 88 83 78 79 76 74 72 65 63 64 65 66 78 78 81 80 77 72 69 66 71
42 34 39 41 33 26 26 21 20 20 19 18 16 17 19 48 53 55 51 50 50 50 54 58 88 90 87 85 84 80 77 78 78 74 71 70 64 65 67 69 78 80 78 76 74 73 72 68 71
41 41 38 30 30 29 28 21 23 18 18 18 14 18 20 41 57 62 52 48 51 54 53 55 60 71 88 84 82 79 77 83 82 79 76 72 74 70 69 72 72 74 77 76 74 74 70 71 71
32 36 35 30 32 31 23 25 20 20 19 15 15 17 18 42 61 71 70 49 52 66 50 53 54 53 53 52 84 83 83 87 84 83 83 83 79 78 72 81 80 77 76 75 72 70 71 72 74
37 35 32 35 35 28 24 26 20 18 16 17 16 18 31 44 70 78 80 61 67 68 51 49 48 48 47 46 62 81 85 86 88 84 88 80 46 52 60 71 82 81 78 74 72 73 78 82 83
38 37 29 22 25 29 30 23 22 22 20 20 18 25 47 47 76 79 79 78 79 75 75 54 51 48 48 49 50 53 49 50 48 60 61 47 42 41 43 66 85 81 82 80 74 80 83 80 45
42 38 28 39 34 30 33 28 26 23 28 18 20 25 50 65 75 77 74 70 72 69 73 68 62 52 50 51 47 46 46 45 44 46 47 45 44 49 45 50 56 56 79 52 63 68 51 49 42
54 38 35 35 41 40 40 29 28 27 21 21 26 28 34 56 72 77 72 68 67 67 71 70 63 68 52 49 50 44 45 46 44 46 46 47 47 50 46 41 46 50 48 48 50 47 49 50 44
59 44 39 32 40 40 40 37 28 30 25 28 29 32 29 36 54 67 68 64 63 64 67 70 68 71 54 52 50 44 44 47 43 46 47 45 47 48 50 50 46 46 45 46 49 49 48 48 42
50 48 44 37 37 40 43 39 39 30 25 27 28 28 27 28 29 48 60 64 66 66 65 66 70 72 70 54 54 48 45 46 47 45 48 47 46 48 52 56 57 49 47 46 48 48 46 46 38
50 57 48 43 42 41 37 43 41 28 26 24 25 24 26 27 27 26 28 42 50 53 55 59 67 68 77 61 57 54 51 47 47 47 46 50 51 54 55 53 57 59 47 46 48 50 46 41 37
57 54 64 43 41 44 37 33 29 27 25 24 22 20 21 23 24 23 23 24 24 35 47 52 57 67 71 78 64 59 55 52 49 47 46 49 50 54 55 54 54 54 55 50 50 51 47 42 36
60 52 50 47 40 37 42 33 25 26 29 27 26 24 24 23 23 21 21 23 22 21 24 37 48 57 69 75 78 72 62 59 52 49 48 49 50 51 53 52 52 52 60 57 53 52 49 47 40
56 51 47 44 49 42 42 38 39 35 36 32 26 24 25 26 24 20 20 21 21 22 22 22 32 48 55 79 87 86 81 74 59 57 53 52 50 52 55 52 51 51 62 63 60 55 50 47 43
33 47 49 45 40 50 46 44 38 33 32 30 26 23 22 22 21 23 24 23 26 25 25 23 25 33 45 74 90 91 90 86 86 82 64 60 57 55 58 55 53 52 57 64 63 58 55 50 42
45 48 46 53 44 42 43 43 37 34 32 30 27 24 23 24 23 21 20 21 21 23 24 27 25 26 31 45 66 66 72 80 81 88 84 70 67 63 61 62 58 55 58 60 65 61 58 52 42
51 42 44 47 47 42 43 42 38 31 27 26 26 26 27 28 26 25 24 23 27 27 26 26 28 28 28 35 44 59 65 80 84 90 87 81 76 71 67 68 67 67 61 62 65 64 62 59 46
87 50 48 50 50 52 44 35 37 30 36 33 33 34 33 33 30 29 32 30 31 30 32 31 29 29 29 33 43 54 62 69 70 69 71 74 75 84 74 73 69 72 73 68 71 68 61 60 55
94 50 50 52 55 52 50 46 34 30 38 38 38 40 40 39 36 35 37 38 36 42 41 36 31 30 30 30 39 51 58 56 59 62 66 68 76 86 86 78 76 74 74 73 72 76 67 66 61
77 62 51 50 52 79 46 47 32 28 30 37 39 40 43 43 39 38 40 39 41 43 42 42 34 30 29 34 35 48 54 57 65 66 68 69 76 88 90 89 87 83 81 77 74 77 74 72 68
81 81 95 88 82 57 53 53 32 32 31 34 40 44 46 46 44 43 43 41 44 47 48 42 38 34 33 34 33 35 46 56 63 64 66 69 76 89 90 90 90 90 86 82 78 78 82 79 76
67 61 63 67 59 41 56 49 32 32 29 33 37 40 47 49 47 48 48 48 44 47 48 49 48 42 36 36 35 34 40 44 58 66 64 66 69 82 81 85 88 90 88 85 82 83 83 82 82
60 73 46 70 60 51 35 41 32 34 35 35 37 40 49 53 52 52 50 48 44 47 52 53 49 50 51 53 48 41 40 45 49 56 63 68 70 77 77 83 89 90 89 87 87 88 85 80 82
53 46 64 83 73 56 36 34 35 44 39 38 39 38 44 54 54 51 48 52 52 54 52 49 47 52 57 59 55 55 58 58 59 58 58 59 62 70 78 87 89 88 86 86 87 90 84 82 77
62 66 61 50 54 43 32 22 24 35 36 35 36 38 47 55 54 50 51 52 59 53 50 48 49 53 57 59 64 72 70 68 69 70 70 71 70 74 78 82 85 87 86 82 81 75 72 72 77
51 54 47 73 76 66 60 31 26 31 32 36 34 37 48 57 51 56 61 60 54 52 51 50 51 53 57 61 64 70 67 66 69 69 69 70 74 72 74 77 78 76 74 66 59 53 50 52 55

GFSSGP_sfc_rhum_069.txt.gz
RH
52 39 25 26 31 25 28 22 15 17 17 13 14 16 14 15 15 31 41 39 32 43 52 66 88 88 87 85 86 86 85 84 80 78 73 73 71 70 69 67 66 66 68 71 66 68 69 64 64
39 32 28 27 32 31 25 17 20 16 15 14 15 16 16 16 19 37 42 45 34 40 49 53 90 89 88 87 87 87 83 83 82 80 78 75 73 73 74 69 65 65 65 76 72 72 68 66 66
47 33 31 32 33 30 25 16 16 15 16 16 16 15 16 19 30 34 40 39 34 40 44 61 90 89 88 88 88 87 85 83 80 79 79 74 72 75 69 62 60 61 68 74 79 75 66 67 66
44 36 32 36 33 26 20 15 14 14 15 15 16 17 17 28 30 36 40 36 37 38 40 83 91 89 90 89 87 85 84 80 79 78 72 71 68 66 62 60 70 79 80 79 81 71 66 68 70
34 32 40 39 33 23 17 15 16 15 15 15 15 17 18 36 37 39 40 36 37 36 54 63 92 90 91 89 87 85 81 80 77 74 68 62 65 64 65 73 79 79 80 81 75 68 66 71 72
46 34 40 42 31 24 18 16 16 15 15 15 15 15 22 38 40 41 39 38 36 38 56 64 90 92 90 88 88 84 78 78 78 75 68 64 64 66 68 74 80 80 79 78 75 73 69 70 72
40 39 40 30 27 24 21 17 18 16 15 16 13 16 22 37 44 42 40 39 39 41 61 62 58 74 92 87 84 80 76 81 80 79 76 72 74 70 69 70 78 80 78 76 75 73 70 69 73
33 33 37 30 26 25 19 18 18 16 15 11 12 15 18 43 51 49 41 40 41 44 45 57 56 54 57 62 83 82 81 84 82 82 82 84 79 77 75 74 77 79 79 77 75 71 71 72 74
28 36 36 32 27 24 17 21 19 16 16 13 13 12 29 41 57 61 59 42 50 53 42 47 53 51 48 45 60 82 85 88 87 85 88 81 48 53 63 73 81 82 79 74 72 72 76 82 83
44 41 31 23 22 22 22 21 21 19 18 15 13 15 29 37 60 68 66 50 63 70 45 40 40 40 39 38 52 52 55 57 57 62 61 49 39 40 40 67 84 82 82 80 74 78 83 84 50
44 38 27 18 27 23 26 24 17 19 19 14 15 14 26 32 49 64 69 66 69 67 59 46 39 39 38 41 41 43 42 44 43 48 53 44 38 43 43 53 60 64 81 62 67 73 59 50 41
46 35 27 25 32 34 30 23 18 19 16 14 14 19 26 38 43 57 65 61 58 66 68 65 46 40 39 40 41 38 40 41 40 41 42 42 42 45 39 43 48 51 52 47 52 51 47 45 42
49 33 31 30 35 33 29 30 21 21 19 20 23 27 23 29 39 49 57 58 47 54 63 69 62 51 42 42 44 39 38 40 38 40 41 41 43 44 41 39 40 44 43 42 47 45 44 46 42
50 42 38 34 32 36 40 31 28 23 19 22 23 23 23 23 26 42 54 60 54 52 50 64 69 65 57 43 46 44 40 39 40 39 43 42 41 43 45 46 45 43 42 41 43 45 45 45 43
48 56 47 38 33 36 35 41 38 26 23 22 22 19 20 21 22 24 37 48 49 50 51 53 60 63 66 54 51 47 45 42 44 42 41 43 43 45 46 48 60 57 43 41 43 44 44 44 42
60 53 59 47 38 36 38 38 25 25 25 23 19 17 18 18 20 21 23 26 33 40 46 47 49 59 66 70 53 51 48 46 45 43 42 43 42 45 49 50 49 54 54 45 45 47 50 47 44
62 73 49 39 35 38 43 34 21 23 24 22 19 16 16 16 16 17 19 21 23 23 30 40 47 53 61 65 69 56 51 49 48 45 44 44 44 45 49 50 49 46 55 55 49 50 50 51 48
58 52 36 38 39 37 40 39 26 25 26 24 19 18 18 18 17 15 16 18 19 22 22 22 30 42 50 57 76 83 75 55 51 49 47 45 45 46 50 50 49 48 53 68 56 55 52 50 50
31 35 34 30 38 40 37 32 31 26 31 28 22 19 18 18 16 16 17 18 20 20 21 21 22 24 36 44 75 90 94 89 71 57 51 51 48 49 52 53 51 51 53 63 63 58 58 57 52
38 32 32 32 32 43 35 35 28 29 29 28 24 19 17 17 16 18 19 20 19 21 23 24 23 22 24 33 54 69 77 82 80 86 78 65 55 56 54 56 58 54 55 56 67 66 66 59 55
66 39 33 37 40 41 36 38 34 29 27 25 25 24 22 23 22 20 20 21 23 23 22 23 24 24 23 26 32 58 59 63 78 86 84 77 71 65 64 62 62 62 59 61 63 68 70 69 60
64 32 30 36 47 44 38 29 29 27 29 27 25 25 26 27 26 27 29 28 30 29 29 29 28 26 26 27 28 36 51 60 60 64 66 72 73 77 77 73 69 71 71 66 65 65 68 66 68
76 46 38 43 43 45 49 49 32 28 34 30 29 33 32 31 30 33 36 35 36 42 42 36 30 28 27 27 30 34 42 48 50 50 55 58 67 76 84 84 83 79 83 78 77 73 73 69 68
51 49 50 50 54 82 40 40 37 32 30 32 32 33 35 35 32 33 36 36 40 43 42 41 32 28 28 30 30 36 44 48 54 55 56 56 60 69 78 84 87 89 86 87 85 83 82 78 75
76 84 98 98 93 59 39 47 29 27 26 30 33 35 40 38 38 38 39 38 42 45 47 41 37 33 31 30 31 32 38 45 52 54 56 57 63 77 82 83 88 92 91 89 87 87 88 85 85
95 96 97 77 62 44 44 53 32 26 24 31 34 38 42 41 42 44 44 44 41 45 48 46 44 44 40 37 34 31 34 36 39 46 53 55 57 63 75 87 90 90 90 92 93 93 92 90 90
94 88 47 53 42 42 35 31 30 30 29 34 34 38 45 46 46 47 44 45 44 46 49 47 45 46 48 49 46 41 36 39 42 44 48 55 57 65 73 87 89 91 93 93 94 96 96 96 94
64 51 66 83 69 51 32 29 31 34 36 34 36 37 41 46 48 45 44 46 48 49 48 45 44 47 50 52 52 53 55 55 55 54 54 54 53 56 67 76 89 91 91 93 95 97 95 97 94
60 62 56 51 52 45 34 24 25 32 33 36 36 36 41 48 49 47 48 49 51 47 46 45 46 49 52 52 57 61 60 60 60 61 60 61 61 63 66 68 74 82 86 87 88 84 83 84 85
45 47 42 73 68 60 62 35 24 29 31 31 35 36 41 50 49 52 55 51 49 48 48 46 46 48 52 55 56 58 57 57 57 58 60 60 65 63 67 68 73 75 77 74 74 76 74 79 81

GFSSGP_sfc_rhum_072.txt.gz
RH
52 41 41 46 61 48 45 34 22 22 25 20 17 21 23 22 42 70 51 46 59 67 76 82 89 88 87 87 88 88 87 86 85 79 75 74 72 71 70 68 68 70 69 65 68 68 66 65 65
50 40 48 54 56 49 39 25 26 23 21 19 20 21 23 26 43 54 56 50 52 62 71 79 90 89 88 87 88 87 86 84 82 78 77 74 72 74 74 70 68 67 73 74 72 68 68 66 66
54 47 66 56 53 47 38 24 24 20 18 22 24 22 21 40 40 50 54 46 49 59 60 79 91 89 89 89 88 87 86 84 82 82 80 76 77 74 69 62 63 70 76 79 76 68 69 67 70
60 73 56 59 47 38 31 22 19 18 19 21 23 25 32 43 47 51 49 42 49 54 72 92 91 90 90 89 89 87 85 81 80 78 75 73 71 68 64 65 77 78 83 83 74 68 70 71 71
57 92 88 67 50 33 25 20 19 24 20 19 22 25 50 50 47 48 47 43 48 66 78 87 92 91 91 90 87 85 84 82 80 74 63 63 67 65 73 76 81 83 83 79 70 68 71 73 72
79 66 92 85 52 34 26 20 19 20 18 19 24 22 59 49 51 50 46 47 51 68 73 82 93 92 91 89 87 85 79 79 76 65 64 64 66 68 73 78 84 82 81 76 72 70 72 73 73
68 66 74 65 49 35 27 21 21 21 22 21 21 23 54 57 53 49 47 47 59 61 72 80 84 89 92 90 88 83 79 79 77 76 75 76 76 75 74 82 84 80 79 79 77 73 70 73 74
52 54 65 60 47 35 23 21 21 22 22 16 18 24 73 65 55 52 50 50 62 68 71 68 73 81 80 78 85 81 82 82 80 81 82 83 80 78 80 79 86 84 82 81 78 73 72 73 76
42 60 63 53 41 33 21 23 20 21 24 18 18 26 52 61 64 72 62 55 60 63 66 64 61 66 69 70 75 84 84 85 86 86 86 85 78 78 81 75 84 86 83 78 75 74 78 84 84
56 59 52 36 30 30 25 23 24 26 27 23 21 36 46 68 74 79 77 69 76 79 61 66 64 63 61 54 75 78 79 80 74 74 83 74 68 65 63 84 84 82 84 81 78 79 86 85 84
58 64 41 33 29 34 29 28 24 27 31 24 22 25 37 62 70 77 78 72 74 83 73 56 56 54 54 61 64 65 72 74 74 74 76 71 60 66 75 94 91 95 89 88 87 95 93 85 75
58 49 44 31 36 36 37 31 28 25 25 21 21 23 41 44 60 76 79 76 72 74 76 70 65 52 52 56 62 62 62 64 65 66 68 68 65 65 66 75 84 87 90 86 86 91 82 73 64
65 47 37 34 35 38 33 36 30 24 23 26 29 31 32 42 46 62 71 71 69 73 73 78 76 63 53 57 59 58 58 62 60 62 60 62 63 66 60 65 67 72 74 72 73 74 67 67 62
57 51 41 33 36 38 42 41 36 27 23 30 30 34 35 34 39 60 67 72 72 67 74 74 77 78 68 60 60 60 56 56 60 61 63 58 63 65 66 62 64 68 67 65 68 68 69 67 66
52 68 57 44 39 43 43 49 41 30 28 30 30 32 29 30 32 36 62 67 68 69 66 79 74 73 80 77 64 68 61 56 60 61 57 59 60 63 65 70 73 70 63 60 64 65 67 67 64
65 66 82 50 44 40 42 57 40 31 32 32 30 30 28 25 25 30 31 50 59 62 64 65 67 73 70 81 78 69 66 63 65 61 61 58 58 61 66 71 79 74 76 66 69 70 74 72 71
79 88 77 58 46 43 47 52 32 27 33 33 31 28 24 25 24 26 28 31 34 44 61 63 63 70 73 70 82 79 66 68 68 66 63 60 58 58 69 73 73 74 77 77 69 72 77 77 73
75 78 62 58 50 45 52 52 32 28 30 32 29 26 23 22 21 20 22 24 27 33 34 39 60 67 72 77 78 90 93 82 72 77 66 61 59 60 69 72 71 68 79 82 79 75 78 76 75
64 57 50 45 35 50 50 52 43 33 36 37 33 30 26 24 24 24 22 25 28 30 33 33 35 40 63 75 94 97 91 96 95 86 69 66 64 63 68 70 73 70 74 81 79 81 78 82 76
61 54 50 38 40 48 46 46 36 34 34 36 33 31 28 26 23 22 26 32 28 29 33 34 34 35 37 52 79 89 94 91 84 95 93 90 80 74 68 71 72 79 80 82 79 76 81 80 81
62 70 64 41 46 52 50 48 40 32 31 31 31 32 31 31 32 29 28 31 35 33 35 35 35 34 35 36 52 87 89 94 97 92 86 85 88 90 86 81 81 84 81 88 83 86 83 77 84
77 54 58 40 54 76 51 63 41 36 38 36 36 32 32 37 37 36 38 40 44 51 49 45 42 40 37 40 42 63 84 88 93 95 91 86 83 85 90 92 88 90 91 87 94 87 90 92 84
85 78 52 58 58 58 61 73 44 37 38 38 34 36 40 39 40 44 44 45 51 56 57 50 42 40 38 37 41 50 55 66 80 82 88 91 92 90 90 89 96 91 90 90 89 94 89 90 89
86 90 81 66 67 95 60 63 53 42 35 35 39 42 43 42 44 47 48 50 58 60 58 53 44 40 38 40 43 46 52 58 73 80 80 82 84 94 93 92 91 92 96 96 96 94 95 96 87
93 100 99 99 98 89 50 64 49 33 31 36 43 47 49 48 49 51 53 54 58 63 64 56 56 51 47 46 43 44 49 57 67 74 81 81 84 88 92 94 95 96 96 95 96 97 97 96 93
96 96 99 91 92 73 50 75 47 34 33 35 40 49 51 54 58 59 60 59 59 61 65 61 59 61 62 63 61 54 49 60 62 62 69 81 82 85 87 92 94 95 96 97 96 98 98 97 96
98 99 85 78 56 78 62 51 42 38 44 45 46 49 57 59 61 60 59 61 63 66 63 61 60 63 65 67 70 71 74 75 76 71 66 74 82 81 93 91 95 95 96 97 98 99 99 99 98
93 68 89 97 86 77 56 53 52 47 46 44 46 51 58 59 60 59 60 63 65 62 61 60 59 64 66 70 76 75 77 78 80 81 84 81 81 83 88 90 93 93 93 95 96 98 97 97 98
95 99 69 64 71 85 72 50 38 40 40 43 46 46 54 60 60 62 64 66 63 62 62 62 62 65 69 71 77 82 82 80 83 85 84 84 84 85 86 83 77 87 88 90 88 89 88 90 92
56 62 59 93 83 86 89 59 32 38 42 45 45 44 55 60 61 66 68 63 62 63 61 60 62 65 69 71 74 74 73 70 68 66 69 71 74 66 68 67 68 67 65 73 76 77 80 83 85

GFSSGP_sfc_rhum_075.txt.gz
RH
58 47 54 60 64 67 69 50 38 25 27 28 24 23 28 32 56 65 66 73 82 88 85 86 90 89 89 89 89 89 88 87 85 80 78 76 74 72 71 72 73 71 66 68 68 67 65 65 64
59 48 58 68 77 78 60 40 35 27 24 24 20 25 29 66 63 60 78 78 79 84 84 87 90 90 89 90 89 88 88 86 83 80 76 74 73 73 74 70 69 73 72 72 70 68 66 67 64
59 51 79 79 82 76 57 35 31 25 21 23 26 26 36 56 61 62 64 71 79 82 84 88 91 90 90 89 88 87 86 84 84 82 80 78 78 73 66 65 69 75 79 77 71 70 68 70 65
68 70 63 91 85 58 46 38 27 26 23 22 25 32 57 56 58 61 58 69 76 79 91 94 91 90 90 89 88 87 81 83 81 80 77 76 73 66 64 72 76 84 84 78 71 70 71 72 70
83 86 90 93 76 54 42 34 31 25 24 23 24 38 70 64 60 58 58 64 70 86 92 92 91 91 90 89 88 86 84 81 76 71 65 67 68 72 70 74 84 85 83 76 71 72 73 73 71
95 85 92 79 72 50 41 36 24 22 25 24 24 51 78 67 62 58 55 71 76 89 89 89 93 92 91 90 87 87 83 77 75 72 66 69 68 73 76 76 83 85 79 73 71 74 74 74 72
89 93 79 71 66 55 46 32 22 24 25 25 19 54 84 77 61 59 71 75 79 85 90 96 92 93 94 91 88 85 81 78 75 75 74 76 79 79 77 82 84 82 79 79 76 74 75 74 74
86 87 78 71 65 68 44 36 26 21 24 22 19 60 88 76 64 70 72 75 83 84 91 97 97 92 88 84 88 84 83 81 79 79 84 84 83 83 83 87 86 85 85 82 80 74 74 76 76
78 85 82 72 65 54 38 42 28 22 24 24 27 66 74 71 71 73 76 82 82 81 84 89 93 94 78 76 76 83 84 84 85 86 86 86 88 87 80 88 90 88 86 82 78 76 79 85 84
84 86 65 48 48 46 37 43 45 45 30 29 62 82 76 75 82 85 70 84 92 89 80 77 81 84 75 68 82 84 76 85 85 84 87 82 86 85 75 85 91 88 86 84 80 81 86 87 94
79 70 49 42 38 37 44 58 31 39 33 28 52 88 82 83 87 86 83 80 85 83 75 70 70 75 74 71 85 92 93 89 84 87 86 83 74 80 91 96 94 95 92 92 91 95 97 94 90
79 58 51 43 38 41 39 33 33 37 26 32 28 49 81 86 86 86 86 89 85 84 83 74 71 63 73 72 73 80 85 89 89 85 80 87 77 80 93 98 97 97 97 96 97 99 96 93 87
86 64 49 43 46 45 40 37 32 27 26 34 32 40 54 72 86 83 82 85 85 84 83 81 82 69 65 70 68 72 73 77 78 79 77 80 70 70 79 88 93 97 97 96 97 97 94 90 83
71 64 58 49 54 42 44 41 38 31 26 33 33 35 36 42 66 85 85 82 89 84 81 81 82 85 72 66 64 67 69 67 69 75 73 73 64 65 68 78 80 86 86 87 83 84 86 83 77
66 85 74 64 48 49 45 51 45 34 32 37 38 39 38 36 45 72 76 79 81 86 82 85 80 82 85 83 79 74 65 62 67 68 68 68 66 68 70 72 74 75 76 74 79 79 80 80 74
65 76 92 68 49 46 48 65 44 36 38 37 40 37 35 31 34 35 68 74 74 76 82 86 70 81 84 88 88 79 74 68 67 67 68 65 66 68 74 79 76 71 72 72 74 78 80 80 80
82 94 85 67 54 49 50 62 40 36 38 42 39 34 33 31 31 33 32 57 71 75 82 84 81 84 80 84 88 90 83 73 71 69 67 65 64 66 73 77 83 80 83 81 74 79 81 85 81
79 88 84 84 59 58 58 57 43 30 35 40 41 35 33 31 26 28 29 32 32 56 76 80 81 84 85 88 91 94 94 87 78 83 70 66 64 66 72 78 80 84 86 89 85 79 86 84 80
70 79 82 69 53 62 63 58 49 41 36 39 39 34 32 29 24 23 26 29 31 32 39 46 67 77 79 96 97 97 95 95 96 94 86 72 64 63 67 74 80 81 84 80 88 83 82 90 83
73 75 73 56 49 58 65 60 51 43 43 38 37 37 33 34 32 30 31 35 32 33 37 38 37 41 77 81 89 97 97 96 94 95 94 92 90 80 65 72 73 83 86 91 89 88 92 90 84
85 88 83 64 56 53 59 65 58 45 39 39 35 35 33 33 34 35 38 40 41 44 47 43 44 44 42 46 90 96 96 96 97 96 94 93 94 93 92 88 85 82 84 88 88 89 92 89 93
88 62 62 63 65 95 59 83 56 46 41 37 37 38 34 33 36 44 46 50 51 57 56 49 45 44 40 42 52 94 96 95 97 96 94 95 93 94 95 95 95 93 94 94 94 92 91 96 94
85 81 78 71 84 74 72 74 57 44 45 37 43 38 37 40 45 48 50 52 54 57 59 57 46 41 40 42 44 54 62 76 91 97 97 96 95 93 92 94 95 96 96 95 96 96 97 96 93
80 87 85 84 91 99 77 74 62 59 42 41 36 45 47 50 52 50 53 58 62 65 65 63 47 49 48 45 44 48 52 57 63 80 92 94 97 97 95 95 93 95 96 96 97 97 97 95 93
85 96 99 99 99 93 68 74 51 45 41 36 46 52 51 51 54 54 60 64 66 69 67 59 64 67 68 67 65 57 53 59 67 74 87 88 91 91 96 96 96 96 93 93 95 97 98 98 97
95 96 98 93 96 86 63 84 58 42 38 43 45 53 55 63 64 65 62 65 67 69 67 64 68 70 70 73 76 81 81 75 75 75 78 89 94 97 96 96 96 95 95 97 97 98 98 98 99
95 99 93 90 78 82 71 62 41 46 59 56 57 55 66 69 69 67 68 70 72 68 66 66 69 71 74 79 81 83 84 86 89 91 91 92 93 88 94 96 96 97 97 97 97 99 99 99 99
93 74 98 99 96 88 73 71 61 51 66 61 63 62 68 69 67 66 69 72 68 65 66 65 68 72 75 81 86 86 88 89 92 90 93 93 93 92 92 92 95 95 95 93 96 98 98 97 98
98 100 93 84 98 89 83 58 44 42 55 57 58 62 65 67 67 71 76 70 68 68 67 68 71 73 76 82 80 81 76 73 73 77 83 85 77 79 87 90 88 89 81 84 87 86 88 90 92
76 90 76 93 94 86 93 63 38 44 53 50 53 57 66 66 70 76 72 70 71 69 67 68 70 72 79 76 75 75 70 68 68 66 63 62 64 61 64 67 69 67 72 77 76 79 80 84 87

GFSSGP_sfc_rhum_078.txt.gz
RH
60 60 61 58 57 71 77 57 44 34 32 28 27 25 33 53 51 51 80 82 88 92 88 88 90 90 89 89 89 89 88 87 85 81 80 77 76 75 76 73 70 67 68 67 67 64 64 61 62
64 55 59 66 76 84 68 53 40 37 27 25 25 29 50 77 70 96 94 87 84 87 87 88 91 90 90 90 90 89 88 87 86 81 76 74 73 72 71 72 74 71 70 70 68 66 66 63 65
68 60 72 65 88 81 66 45 40 27 24 24 26 28 54 72 68 81 90 84 84 88 87 89 91 91 90 90 89 88 88 87 85 82 80 78 77 71 69 71 75 78 76 72 69 69 68 64 67
73 64 68 77 89 71 57 50 41 35 24 25 27 60 69 65 65 81 84 84 89 94 93 94 92 91 90 90 90 88 86 84 83 83 82 78 73 67 67 70 81 84 80 75 71 71 71 68 68
88 83 86 89 79 66 50 51 45 40 30 26 29 63 80 69 69 81 86 82 92 97 95 93 92 91 90 89 88 86 82 80 79 76 73 72 69 67 70 76 82 84 80 75 72 72 72 71 70
93 89 84 84 64 44 39 44 46 42 29 25 38 77 82 76 70 81 78 81 86 95 94 91 93 92 90 89 88 85 80 77 76 71 67 67 72 73 72 80 83 83 76 74 74 74 73 72 72
91 95 88 71 59 48 38 39 50 41 26 27 29 82 85 81 70 75 78 82 88 90 96 96 89 93 94 92 89 87 80 79 77 75 74 77 80 81 74 80 86 83 78 79 78 76 74 72 72
92 89 86 80 57 56 35 43 44 47 38 23 59 88 92 80 80 87 87 90 94 93 94 97 97 96 95 90 90 87 82 81 80 82 84 86 86 87 82 88 88 84 83 82 81 78 76 74 75
80 96 79 75 62 55 40 41 34 42 47 25 51 78 74 78 86 91 93 92 92 94 95 96 98 97 94 82 82 85 86 84 85 85 87 88 93 91 91 93 91 89 87 83 79 78 80 84 84
88 96 80 60 54 53 56 59 67 53 48 45 90 86 83 81 90 96 98 96 96 97 98 97 97 96 82 70 74 82 79 87 88 88 91 88 92 93 80 95 92 90 89 86 82 81 86 88 95
84 84 60 51 47 41 72 73 56 54 59 42 79 88 88 91 92 91 94 95 95 92 89 90 95 93 87 80 89 97 95 96 90 90 89 89 86 94 92 97 97 97 94 96 92 94 97 94 94
92 71 59 54 48 60 69 52 71 58 51 36 40 83 89 92 90 90 92 94 95 91 91 85 84 90 89 86 89 94 93 96 98 90 88 92 92 90 97 98 98 98 98 96 97 99 97 95 93
91 81 60 54 50 48 54 55 46 52 37 32 34 84 88 90 93 92 91 92 90 90 87 84 83 86 81 86 82 89 92 94 92 92 84 88 86 86 96 97 98 98 98 97 98 98 98 96 94
69 72 69 56 55 46 46 46 38 40 44 31 36 61 88 88 88 92 94 92 90 87 87 86 86 83 79 78 79 80 82 87 91 90 87 85 76 76 86 92 95 98 98 97 97 97 97 96 92
74 80 75 69 60 54 46 52 48 33 33 32 36 45 40 60 86 88 87 90 89 91 85 87 86 88 78 82 81 82 78 78 81 85 85 83 71 72 77 82 89 92 94 95 95 94 92 94 87
77 82 91 66 57 50 45 57 46 38 37 35 34 39 40 40 77 86 86 84 87 85 87 90 74 86 88 88 87 85 80 73 73 75 80 78 71 68 74 75 81 82 87 88 89 89 91 91 91
87 96 90 81 60 51 53 60 41 38 40 37 37 40 38 34 35 42 79 83 82 85 85 86 87 86 88 89 91 92 89 77 72 74 73 72 71 69 71 77 77 78 80 82 79 85 88 92 90
87 74 88 90 69 66 61 60 46 37 42 43 42 43 41 36 30 29 35 70 77 83 91 91 88 88 90 92 94 95 96 94 81 84 72 69 69 71 72 80 82 84 83 87 86 83 90 89 87
74 82 77 84 63 72 69 61 49 42 43 39 42 43 40 33 29 28 29 38 47 55 88 93 93 90 94 96 97 97 97 96 96 91 82 73 69 70 73 78 82 88 83 77 89 87 83 93 90
66 80 89 70 59 74 67 62 54 47 46 43 39 38 36 34 35 35 35 40 37 42 46 53 57 86 91 95 96 96 96 97 96 96 94 88 80 79 74 77 79 84 91 93 94 91 93 91 90
87 82 82 73 63 70 77 73 63 55 49 44 39 37 36 36 35 44 42 43 47 49 47 44 45 45 53 84 96 98 97 97 97 97 97 96 95 94 88 84 88 90 89 88 90 93 92 88 97
93 78 70 76 80 93 67 92 66 54 54 48 45 42 42 36 40 46 47 52 55 60 58 51 46 44 42 46 79 97 96 97 96 96 96 97 96 96 95 95 94 92 96 95 94 93 94 96 96
85 75 71 84 94 71 74 80 67 50 57 50 42 38 42 38 48 52 53 55 59 60 60 61 47 45 44 45 48 81 93 95 94 96 95 95 96 96 96 95 97 98 98 96 95 96 96 94 92
83 83 83 87 96 99 83 82 80 52 43 44 41 39 41 49 54 56 61 63 69 72 69 61 65 69 67 58 52 52 53 57 62 69 91 98 98 97 95 94 96 96 97 97 97 97 97 97 96
86 96 98 100 99 95 78 76 62 49 43 42 42 46 54 59 61 65 68 70 72 70 67 68 71 73 74 79 84 71 62 63 66 72 83 89 94 95 95 96 97 98 97 96 96 97 98 98 99
95 86 94 92 97 89 74 88 62 48 43 42 44 50 55 60 65 66 68 70 74 68 67 72 74 74 77 80 85 89 90 90 91 86 91 96 98 99 98 98 97 96 96 97 97 98 98 98 99
96 100 90 91 84 92 83 70 46 62 74 65 64 63 65 66 73 73 73 78 71 70 69 71 73 76 81 86 89 90 92 92 94 93 94 97 95 91 96 97 97 96 96 95 97 99 99 98 98
86 81 99 100 97 92 81 75 64 74 76 69 71 78 79 71 74 78 82 77 72 69 69 73 76 81 85 88 88 91 94 93 94 95 95 93 93 94 94 95 95 95 91 91 96 98 96 94 97
98 98 92 86 96 95 91 68 48 52 63 71 77 78 79 73 70 78 81 75 73 72 74 75 76 81 86 82 81 78 75 71 72 76 76 73 71 79 85 86 82 86 92 90 86 86 88 90 91
78 84 84 95 99 94 90 71 44 45 62 64 69 75 78 72 72 81 77 76 73 70 71 74 78 82 80 76 76 75 72 72 70 69 67 66 68 65 67 65 67 73 78 86 81 80 82 85 88

GFSSGP_sfc_rhum_081.txt.gz
RH
68 66 69 57 56 72 76 57 56 41 35 31 28 28 30 53 53 58 87 91 90 93 90 90 90 90 89 89 88 88 88 86 84 79 78 77 76 77 71 71 68 67 68 67 63 62 61 62 65
72 59 63 70 63 80 62 59 47 41 34 28 33 47 72 77 76 98 96 91 84 90 90 91 91 90 90 90 90 89 86 85 84 80 77 75 74 75 76 74 70 70 70 68 64 63 64 67 68
70 62 68 66 84 73 60 51 49 43 37 30 33 49 68 78 92 92 92 87 86 91 90 92 91 90 90 90 90 89 88 87 85 82 78 75 75 72 72 76 75 74 73 70 67 65 66 70 71
67 76 61 73 83 70 52 51 57 49 37 30 38 75 78 74 80 81 89 87 92 96 95 94 92 91 91 91 90 89 87 84 83 84 83 78 72 69 71 76 83 81 79 72 70 67 68 70 70
85 88 85 86 76 67 56 50 50 50 49 38 32 72 84 80 91 93 89 87 85 95 97 92 92 91 91 90 90 88 87 84 83 81 78 74 70 69 70 79 84 81 76 73 71 69 70 71 70
91 88 90 86 66 52 45 44 50 51 47 40 47 84 85 86 95 89 86 90 79 84 95 93 93 92 91 91 90 88 83 80 76 74 72 70 72 69 75 78 85 79 76 74 74 70 70 71 69
90 94 89 73 67 54 41 40 51 56 55 47 32 88 88 84 95 90 91 94 88 90 96 96 95 94 94 92 89 85 82 80 79 76 72 77 82 79 77 81 84 80 78 78 78 74 71 71 69
94 92 86 83 66 58 40 41 46 51 57 38 50 87 91 84 91 91 94 97 97 93 92 97 98 96 96 94 91 88 84 82 81 83 83 87 87 88 82 89 89 84 83 84 83 77 74 71 72
83 98 82 78 67 59 42 41 35 53 54 49 48 82 81 93 93 97 94 95 88 92 83 97 98 98 97 95 89 88 86 85 86 87 89 90 95 92 92 95 91 88 86 83 79 78 80 85 86
92 89 87 63 61 58 64 51 43 55 61 53 50 86 95 95 95 94 90 96 94 94 85 84 94 97 97 80 91 92 85 89 92 92 93 95 95 94 90 95 92 90 88 86 81 81 86 90 95
89 83 66 60 63 65 69 67 61 60 68 55 52 59 96 98 96 89 87 85 94 94 83 83 96 97 94 80 84 96 96 97 96 93 94 93 92 96 96 99 98 98 96 97 93 94 97 94 94
92 79 66 57 68 69 69 58 73 66 62 52 50 46 71 97 98 96 91 94 98 98 96 97 96 98 94 95 89 96 93 98 98 95 92 96 97 97 96 98 98 98 98 97 97 98 97 95 93
80 72 68 60 64 67 58 64 58 65 54 55 50 41 79 96 96 96 96 96 97 96 95 96 96 97 95 95 95 98 98 95 95 95 92 92 92 94 97 97 98 99 98 98 98 98 98 97 95
68 66 72 64 61 59 58 58 55 51 74 64 63 43 87 95 96 98 97 97 96 95 94 92 90 94 92 89 94 91 97 97 98 97 89 91 86 87 96 97 98 98 98 98 97 98 98 97 95
73 83 78 79 66 60 52 55 56 47 79 70 63 43 58 91 94 94 94 95 93 92 91 92 90 87 88 89 91 90 88 92 97 96 96 88 84 86 86 94 98 97 98 96 97 97 96 97 94
71 77 92 76 71 62 51 64 50 58 77 80 67 52 41 55 82 92 92 92 90 90 89 91 79 89 85 83 87 89 90 92 89 93 95 89 81 79 85 88 89 90 97 98 98 97 97 97 96
87 97 91 80 69 61 62 68 44 42 56 56 52 42 37 35 36 58 86 90 88 92 91 91 90 93 90 92 86 89 84 82 85 86 91 91 82 76 77 79 82 87 93 96 94 96 95 96 96
86 94 93 88 80 72 72 71 45 44 44 40 37 35 38 38 32 30 46 78 90 92 91 92 93 92 94 95 95 97 97 91 85 87 79 83 80 76 75 80 82 84 90 93 95 92 95 93 94
79 77 89 85 72 74 77 74 52 44 42 43 43 45 38 38 33 29 31 39 68 85 91 93 94 94 96 97 98 98 98 97 97 90 82 77 76 77 77 79 86 89 84 81 84 88 87 94 94
69 82 89 79 70 74 80 76 55 48 47 42 37 40 41 42 32 35 38 38 41 43 80 93 93 94 96 97 97 96 96 96 96 96 93 83 81 82 80 82 83 87 91 93 92 92 94 92 95
82 73 87 77 73 80 78 80 65 52 53 49 42 38 40 41 38 44 45 48 49 47 49 55 62 67 94 96 98 98 97 97 98 97 97 96 95 90 86 86 88 91 93 92 94 95 94 92 97
89 68 68 74 82 91 75 96 72 54 53 53 47 48 45 44 41 46 48 51 54 60 57 50 47 46 46 64 96 97 97 98 97 97 97 98 97 96 95 92 91 92 95 95 94 97 95 94 92
84 73 75 84 88 85 83 87 80 56 62 51 48 44 45 42 41 46 50 56 62 63 64 57 50 51 48 47 57 94 99 98 97 97 95 95 96 96 96 96 97 97 97 96 95 96 96 95 93
81 82 88 89 94 96 85 88 89 65 49 53 48 49 46 42 48 52 62 67 74 74 65 70 71 75 72 61 56 60 88 91 87 80 89 94 97 98 97 97 98 97 98 98 98 97 97 97 98
84 92 99 99 99 94 85 89 70 60 45 44 40 47 48 50 61 68 72 75 75 73 75 72 74 80 82 85 84 76 62 62 62 66 76 84 93 96 97 97 98 98 98 98 97 98 99 99 99
90 86 94 92 92 94 85 94 70 56 49 45 43 46 56 66 69 76 78 80 76 71 77 77 78 82 84 87 90 92 92 93 91 88 93 97 98 96 99 98 98 98 97 97 97 98 99 99 99
97 95 84 89 85 93 87 79 54 54 57 59 62 65 69 71 75 77 79 82 77 74 77 80 82 88 91 92 93 94 95 94 95 96 96 98 96 92 93 94 94 94 94 97 97 98 99 97 97
86 85 92 98 98 94 83 80 69 60 59 73 74 71 75 79 82 82 84 81 76 74 78 81 85 90 91 90 91 90 92 93 95 94 92 90 94 96 96 95 92 90 89 89 94 96 94 95 96
95 97 93 89 96 95 94 66 57 52 59 72 78 84 85 84 84 87 81 77 78 78 80 82 83 88 87 82 80 79 77 73 75 76 75 74 75 81 81 80 83 89 94 94 95 93 88 91 91
83 84 88 95 97 92 92 72 54 51 57 75 85 83 87 81 85 88 81 78 78 77 79 82 88 83 81 78 79 80 77 76 77 76 75 72 74 71 71 72 77 83 88 92 89 90 83 89 88

GFSSGP_sfc_rhum_084.txt.gz
RH
75 69 70 56 53 69 69 52 67 48 41 38 29 31 30 56 57 61 92 94 96 87 91 89 89 88 88 88 88 88 87 86 83 77 75 75 74 71 71 68 67 68 67 64 62 62 63 66 68
79 66 63 70 62 72 61 61 49 45 43 42 33 52 76 76 88 96 96 90 87 90 91 92 90 88 89 89 87 88 86 84 83 80 78 76 77 72 72 69 69 70 68 64 63 65 67 68 70
71 70 70 67 73 67 55 52 48 47 44 34 31 62 76 81 97 91 92 90 92 93 94 92 91 90 90 90 89 88 87 86 84 82 78 75 74 75 77 72 72 73 70 67 65 68 72 73 73
69 77 64 75 79 66 50 44 57 49 45 39 42 56 78 80 91 89 91 83 95 97 97 94 91 91 91 91 90 89 86 83 81 82 80 77 74 72 76 79 81 80 76 69 66 70 73 72 73
76 82 86 90 83 67 65 48 50 51 54 47 44 52 84 85 93 94 90 89 92 91 98 94 91 91 91 91 90 89 87 84 82 80 79 75 71 70 75 83 83 78 74 71 68 70 72 72 72
89 85 92 86 82 64 54 47 45 54 55 48 47 80 86 89 85 82 78 84 78 89 97 94 93 92 92 90 90 89 86 84 84 80 75 73 71 70 75 83 82 77 75 74 68 70 72 72 71
91 90 91 85 69 73 50 42 54 50 59 54 48 83 87 91 83 82 80 74 76 83 97 97 96 95 95 94 91 88 83 82 80 78 77 79 81 78 75 83 84 78 77 77 75 71 72 71 71
94 89 85 84 76 68 43 42 47 48 56 48 53 67 67 89 91 90 84 81 84 87 86 92 98 97 98 96 92 88 85 83 83 81 80 87 88 86 85 88 88 84 84 84 81 76 72 74 74
84 94 77 80 75 65 42 41 43 51 50 55 53 76 77 86 93 92 95 94 90 84 80 88 98 98 98 96 91 88 86 85 86 88 88 91 96 93 91 94 93 88 87 84 81 79 81 83 85
88 89 87 65 64 61 53 48 43 47 54 60 57 48 74 93 97 92 90 94 90 87 86 86 92 98 98 84 95 93 87 93 94 93 93 96 96 95 92 95 93 88 88 86 82 81 85 91 95
87 94 72 66 57 61 65 70 58 62 64 57 53 59 52 81 87 90 88 88 86 81 80 83 85 98 97 91 98 98 97 98 97 93 94 94 95 96 98 98 99 98 95 97 94 94 97 93 95
92 74 68 60 66 71 66 68 77 62 42 57 59 62 56 58 75 87 90 89 84 88 79 84 85 98 98 96 94 97 96 98 98 96 94 96 98 97 97 99 98 98 98 97 97 98 97 95 93
82 76 72 66 69 71 61 68 65 67 52 61 59 61 58 53 68 88 86 85 90 89 85 82 92 98 98 97 98 96 97 92 97 97 94 94 95 98 97 97 98 99 98 98 98 98 98 97 94
79 75 76 71 60 63 62 68 61 57 61 60 63 61 66 55 90 98 97 93 97 97 95 96 98 97 97 97 96 93 97 93 98 98 95 94 92 90 98 97 98 98 99 98 97 98 98 98 96
82 79 75 81 65 66 57 67 73 66 77 59 60 68 66 55 87 95 90 97 97 95 96 97 96 97 96 96 96 98 94 95 98 97 95 94 91 88 90 97 97 98 98 96 97 97 97 98 95
86 84 88 76 74 65 60 76 60 80 81 74 49 60 66 58 53 92 95 96 96 94 95 95 83 94 96 95 96 97 97 98 97 98 98 93 89 88 89 94 96 96 98 98 98 98 98 98 97
80 94 87 83 71 71 67 80 52 80 80 83 54 65 66 45 37 63 88 92 92 95 96 96 94 94 94 95 93 94 93 95 94 97 98 96 90 85 87 89 90 93 97 97 97 97 96 96 96
91 94 71 79 83 66 81 76 58 82 76 86 76 77 66 39 34 42 58 87 88 94 92 93 95 94 94 96 96 97 96 94 92 94 91 95 89 86 83 87 87 90 94 96 97 96 97 96 95
73 88 86 76 70 68 83 73 66 64 79 75 83 86 70 42 34 31 32 49 84 90 94 95 94 95 96 98 98 98 96 98 96 91 89 85 87 88 85 85 86 89 88 86 92 94 94 96 95
64 76 87 83 76 76 84 79 64 56 59 50 62 64 51 39 41 36 30 32 42 70 90 94 95 96 95 97 97 96 97 97 96 96 90 90 90 91 89 87 89 91 92 93 94 93 94 94 97
72 69 88 80 80 79 81 84 77 67 59 54 45 42 41 38 39 38 38 37 42 46 54 82 94 96 96 95 97 98 97 98 98 98 98 96 93 91 89 89 90 93 92 93 95 95 94 95 97
88 59 65 75 83 92 81 91 80 71 64 61 54 47 38 39 42 41 45 49 52 54 52 49 51 54 62 97 98 97 98 97 97 97 97 98 97 96 92 90 91 93 96 96 95 96 95 94 94
86 62 72 76 89 85 87 91 82 69 70 55 51 51 48 43 41 40 49 53 62 62 62 54 52 52 49 48 67 98 99 98 98 97 96 96 97 97 97 97 97 96 97 95 95 97 98 97 97
83 82 86 91 90 98 85 89 87 76 55 56 53 46 46 44 42 42 55 69 78 72 70 72 71 76 73 61 58 58 83 96 98 96 95 96 96 97 97 97 98 98 98 97 97 96 97 98 98
89 91 99 100 100 89 87 92 75 72 52 47 46 48 51 47 44 50 69 80 82 80 82 78 78 83 85 84 85 80 69 65 69 74 76 76 87 94 96 97 98 99 98 98 98 98 98 98 99
92 85 92 92 93 94 90 96 71 63 57 53 44 42 45 52 50 58 70 81 80 82 85 84 85 87 88 89 92 93 93 94 94 92 94 97 98 93 92 98 98 98 97 98 98 99 99 99 99
97 98 74 89 88 93 88 78 55 60 54 53 56 56 58 64 72 75 82 82 80 83 83 86 90 93 93 93 94 96 96 96 97 96 97 98 97 88 92 93 94 94 95 98 98 99 99 96 97
90 84 93 92 96 94 82 82 67 56 52 58 64 71 76 82 89 91 89 82 81 84 88 90 91 93 93 93 91 88 90 91 91 88 89 92 95 95 90 88 89 89 88 92 94 96 94 97 96
89 99 89 88 93 93 94 69 59 57 49 52 68 76 86 88 90 92 90 85 84 87 89 91 93 90 88 85 83 81 79 76 76 78 78 78 80 81 80 82 85 86 88 89 92 93 89 91 92
87 87 87 94 95 91 94 79 57 59 55 61 75 83 87 88 91 92 90 87 86 88 84 92 92 88 85 80 80 80 80 80 82 82 81 78 81 79 79 80 84 88 93 94 94 94 93 91 89

GFSSGP_sfc_rhum_087.txt.gz
RH
69 61 56 50 45 47 44 40 43 36 30 25 30 23 23 31 42 44 77 78 71 75 71 76 87 87 86 87 88 87 86 84 82 78 74 73 71 70 68 68 68 66 65 64 64 66 67 69 69
68 57 54 55 47 48 42 43 44 36 34 37 29 42 49 43 74 86 86 80 71 74 72 72 88 87 87 88 88 88 86 85 82 80 76 74 72 72 69 69 69 66 64 63 66 67 68 69 68
64 60 57 55 52 44 38 43 38 38 37 30 31 37 54 58 83 77 75 78 70 76 73 76 88 87 89 87 87 88 86 86 84 83 81 79 74 74 71 72 72 68 66 67 69 73 74 75 75
65 70 59 60 53 47 36 41 45 40 37 36 36 36 59 72 78 74 77 74 77 78 73 87 90 90 89 87 86 88 87 84 82 83 81 76 74 77 74 75 78 77 73 70 72 74 74 76 78
67 77 80 79 61 51 47 41 42 42 40 38 38 47 68 81 83 82 75 75 77 80 75 78 91 90 91 90 90 89 87 84 81 79 78 75 73 74 82 81 81 77 72 68 72 73 74 75 78
88 78 77 76 62 55 45 42 40 40 42 37 38 45 74 82 80 87 78 77 71 80 77 76 91 92 92 91 90 89 87 84 83 82 77 74 71 74 82 82 81 76 72 69 72 73 73 73 76
77 83 82 60 60 58 52 40 40 42 40 41 38 58 59 82 87 82 82 76 74 76 75 77 75 84 94 93 92 89 86 86 83 81 79 80 79 78 80 86 82 77 77 74 73 72 73 72 74
82 80 73 69 63 59 44 39 39 36 42 38 38 47 47 74 87 91 81 69 74 81 76 75 79 76 76 78 92 88 86 85 83 85 87 88 86 84 83 89 86 84 84 82 80 74 74 75 74
77 91 76 66 66 53 41 42 42 42 45 43 47 65 66 80 87 94 93 92 88 77 76 79 83 79 78 76 79 85 87 86 86 84 91 85 72 71 73 88 92 88 88 84 81 79 80 85 84
87 80 69 59 55 52 43 42 48 44 48 48 46 48 50 78 92 95 94 94 94 86 77 82 84 80 78 75 71 66 64 62 63 67 70 69 75 71 74 83 93 88 89 87 83 83 87 78 62
79 78 62 57 53 47 52 56 47 47 51 43 42 50 50 57 75 93 91 90 90 82 81 82 81 83 77 75 72 67 66 67 67 67 69 71 73 74 71 73 87 81 87 71 74 76 71 71 60
85 70 62 58 59 61 61 56 55 51 43 43 48 48 48 52 60 70 86 89 86 86 81 84 80 88 80 75 72 68 69 70 69 68 67 68 73 76 76 76 80 80 76 77 76 74 74 72 68
87 69 63 56 65 62 60 61 53 56 54 54 54 56 54 52 54 63 71 86 84 85 74 80 84 90 81 78 75 70 68 69 68 71 68 64 71 72 74 76 78 80 79 75 76 73 71 72 68
74 68 66 64 59 62 59 59 54 48 49 53 50 53 57 52 52 64 83 86 84 86 80 73 88 87 82 78 77 72 72 68 72 71 70 69 63 67 73 74 76 78 78 76 73 71 71 71 70
71 74 76 74 65 59 52 66 65 49 64 56 55 50 54 54 49 45 78 85 83 85 86 83 86 91 83 79 77 77 78 73 75 72 70 71 69 67 67 70 72 71 72 75 76 74 73 73 71
80 74 89 67 66 58 54 70 53 50 62 53 55 51 52 53 48 46 65 83 86 87 92 91 88 91 86 80 79 77 76 74 73 73 72 72 70 70 66 64 66 66 70 73 75 74 74 74 70
82 88 81 78 69 62 59 68 49 55 68 53 59 48 51 53 46 36 53 79 84 86 87 91 91 92 90 86 79 80 78 76 74 75 75 74 72 72 70 67 64 65 70 72 74 75 74 71 70
80 80 78 75 78 64 68 62 52 63 67 54 66 56 53 53 50 38 40 74 84 88 88 86 90 88 91 91 90 83 82 81 76 80 76 76 74 74 74 72 70 70 73 73 76 75 75 71 68
64 80 76 70 70 67 65 66 56 67 74 68 71 69 61 52 48 35 31 47 79 83 93 93 91 94 95 93 93 92 90 88 84 80 79 77 75 77 77 75 73 73 73 69 68 70 72 71 72
64 79 78 73 67 70 69 67 60 57 73 69 66 67 57 52 48 40 33 30 34 71 85 91 90 89 89 92 91 90 91 91 87 87 80 78 78 81 80 77 77 74 73 72 71 72 74 73 74
75 78 84 74 72 67 73 76 68 60 52 56 57 61 52 44 44 40 35 33 37 39 61 85 88 89 88 89 90 90 91 91 92 89 88 85 81 82 82 81 78 80 79 83 78 80 79 80 86
85 62 65 78 76 78 69 77 70 64 62 55 50 49 54 48 44 38 37 35 39 40 47 52 77 88 90 90 88 87 89 90 87 86 88 88 84 81 81 81 80 80 85 83 86 84 82 82 84
96 55 62 72 79 76 78 79 66 62 65 58 54 51 44 42 41 39 39 43 44 56 54 52 51 49 49 74 90 90 90 88 87 86 86 85 87 88 88 85 83 83 85 83 84 86 85 85 86
92 74 76 83 81 94 76 78 68 63 54 52 47 48 45 42 38 37 44 56 59 62 57 61 60 60 52 49 50 68 85 87 91 90 89 88 87 87 89 91 90 89 87 86 85 85 87 87 88
99 79 96 95 96 86 76 86 62 58 53 45 44 45 46 45 41 40 47 61 65 64 68 67 66 71 68 65 63 57 53 53 62 69 71 69 70 78 83 88 90 93 92 91 89 90 92 92 93
81 78 89 92 90 86 84 91 59 52 51 45 46 40 42 52 48 45 51 60 65 71 71 71 72 73 73 74 77 79 79 74 76 76 76 82 84 83 84 86 90 91 90 90 91 93 95 95 97
98 94 68 86 80 83 76 66 47 50 50 49 47 49 48 46 51 50 58 65 68 73 73 74 76 79 78 80 79 81 80 82 84 85 85 86 85 82 84 85 87 90 95 96 97 97 97 96 95
96 78 90 92 93 86 70 67 49 46 44 44 47 52 53 61 64 72 73 72 73 72 74 77 76 78 81 78 75 76 76 75 74 72 76 80 79 79 80 83 86 86 89 92 94 95 92 93 93
97 99 88 81 83 80 76 53 48 48 44 43 45 54 61 73 81 82 76 73 75 76 77 80 77 77 74 71 69 67 66 65 65 66 66 68 67 68 71 73 77 81 84 85 83 84 83 85 87
86 85 76 89 95 88 84 59 41 45 50 53 53 66 73 78 83 80 76 75 77 78 80 81 78 74 71 69 67 66 66 66 66 67 68 66 68 68 70 72 77 79 80 79 78 80 80 80 81

GFSSGP_sfc_rhum_090.txt.gz
RH
59 44 33 35 30 26 23 23 24 23 22 17 20 16 17 19 30 38 52 46 41 48 56 62 86 86 86 86 86 86 85 82 81 76 72 72 69 68 68 68 67 66 65 65 67 67 67 67 66
49 40 35 34 31 29 23 18 26 23 23 23 22 20 23 21 42 66 55 53 46 46 56 52 87 86 86 88 88 87 85 83 81 79 74 72 69 68 69 67 65 64 65 67 68 68 69 70 71
51 40 34 31 29 28 22 23 21 27 26 24 20 26 28 37 51 56 50 51 44 47 53 56 86 86 87 88 88 87 86 84 83 82 80 77 72 70 71 69 66 66 70 70 72 74 75 74 73
47 43 35 34 32 25 21 20 24 30 28 24 23 28 45 57 55 51 50 48 45 45 50 81 86 87 88 88 88 86 86 83 82 83 81 79 77 72 74 73 71 74 77 74 75 75 78 79 78
58 50 48 40 30 23 24 24 24 28 27 25 25 37 49 62 62 56 51 55 49 44 48 65 86 89 88 86 87 88 87 83 80 78 76 75 76 77 77 76 74 71 73 74 74 74 76 79 79
73 54 49 43 31 28 22 28 24 24 29 27 25 37 61 73 70 64 58 69 62 52 53 60 88 91 90 88 90 89 87 85 82 82 75 73 74 82 80 78 76 71 70 73 74 74 74 78 79
66 52 44 34 30 32 25 26 27 25 25 31 33 40 56 70 78 74 63 60 63 53 53 56 61 75 95 93 92 89 88 86 86 82 81 80 79 81 83 81 79 74 70 74 75 74 73 76 79
55 60 44 33 32 34 28 28 26 25 28 30 32 36 42 47 79 82 70 69 56 48 50 49 56 60 60 64 93 92 90 87 85 87 87 86 86 83 86 88 85 83 80 77 75 74 74 74 77
60 74 58 38 35 31 28 32 31 29 29 31 48 44 58 60 73 86 82 74 65 54 54 48 53 56 56 56 71 87 90 89 89 84 91 83 44 49 64 85 89 89 87 81 77 76 80 81 82
61 64 46 31 30 32 28 32 30 32 32 34 39 41 61 64 74 90 90 79 69 62 64 58 55 57 56 57 61 54 52 50 49 50 52 41 44 45 46 75 92 89 89 88 83 82 81 77 42
57 45 38 37 38 35 33 34 29 31 34 28 31 40 53 57 70 87 92 83 84 66 71 64 66 56 54 57 57 52 48 47 46 43 40 41 47 50 47 53 73 74 82 62 67 66 51 51 37
59 43 39 41 45 42 37 29 33 30 26 25 24 34 40 45 48 59 75 88 86 82 66 75 72 59 55 54 54 49 49 48 47 46 38 41 45 49 43 45 53 57 56 59 58 51 53 54 48
57 41 44 38 46 44 37 39 33 34 30 30 32 38 35 35 41 46 66 80 84 79 74 71 76 62 57 56 54 50 48 49 47 49 45 38 42 46 48 49 50 52 52 51 53 51 50 52 50
41 42 44 43 43 48 44 38 40 33 36 35 37 37 36 34 36 47 55 62 69 74 75 70 70 64 59 57 55 52 49 48 50 50 51 48 42 43 49 50 52 52 51 49 50 48 47 48 48
44 51 54 50 38 45 45 47 48 31 38 37 33 32 37 35 31 34 48 60 63 63 67 70 71 76 66 58 56 54 52 50 52 51 51 52 51 51 52 46 49 49 47 47 50 51 50 47 45
56 50 62 47 47 39 42 48 37 32 36 38 34 31 32 32 30 31 31 58 60 60 65 66 69 71 73 64 59 55 54 52 52 51 52 54 53 54 54 52 47 44 48 50 51 50 50 49 48
64 57 47 50 48 48 47 40 35 33 37 35 31 31 32 30 30 30 30 42 56 57 62 68 72 78 78 74 71 59 57 54 52 52 53 54 53 54 55 53 51 46 51 52 53 52 52 54 54
61 48 40 46 53 51 50 40 39 35 37 35 29 28 31 30 25 29 32 40 60 58 58 61 72 74 80 81 82 82 64 59 55 56 54 55 53 55 58 55 54 52 53 55 56 58 56 54 52
35 40 40 36 48 52 45 41 38 35 38 33 29 34 33 29 23 27 29 31 66 64 62 62 65 77 83 90 91 88 90 80 69 64 64 59 56 56 59 57 56 57 59 57 56 56 60 59 57
70 40 48 37 56 52 43 45 39 36 37 33 30 27 29 35 26 29 31 27 50 66 67 68 66 67 77 76 84 83 85 90 85 82 71 64 63 63 61 61 61 60 62 62 61 60 62 58 56
67 41 41 50 57 54 48 54 43 36 37 34 34 32 28 35 32 30 32 36 34 42 63 76 75 80 81 80 84 82 85 90 91 88 85 77 72 72 74 68 65 68 67 68 66 65 70 67 68
77 36 46 48 52 62 52 45 39 37 40 38 34 36 36 36 31 29 30 34 34 32 32 44 76 77 85 85 88 88 88 86 86 82 79 76 73 72 72 70 68 68 71 72 74 71 72 71 72
93 54 47 52 50 53 63 61 32 42 41 39 34 33 33 33 31 32 34 33 31 39 41 40 45 65 77 82 85 86 85 83 82 85 82 76 75 73 76 74 73 72 70 72 71 74 70 69 73
93 66 59 55 62 85 40 51 32 35 34 34 31 30 32 30 30 30 31 35 38 43 44 48 46 48 50 68 80 84 88 82 86 85 81 76 74 73 75 78 79 79 75 73 71 71 73 73 75
100 82 97 94 89 58 44 56 34 31 34 29 27 27 30 30 30 29 30 37 42 47 47 46 45 51 44 44 47 54 63 64 69 66 62 63 62 69 73 76 81 87 88 83 80 80 82 81 83
99 95 68 63 55 41 60 59 34 28 25 27 29 28 30 31 30 30 29 32 44 52 49 47 45 49 48 49 50 50 49 48 50 51 51 51 55 60 68 69 75 76 81 80 84 90 92 90 93
95 98 53 65 59 51 43 43 34 30 33 34 33 31 32 30 32 32 32 35 39 45 46 48 48 50 52 53 53 54 55 59 62 65 63 64 69 68 70 72 72 74 80 89 91 96 95 94 94
97 83 76 89 81 56 53 44 22 33 31 29 27 29 29 30 30 30 33 38 42 48 53 53 50 51 56 56 54 55 57 57 58 58 64 68 66 68 70 72 73 75 79 85 90 92 91 93 94
97 98 68 58 69 48 52 36 31 31 31 32 29 31 33 36 39 36 40 44 49 54 58 58 55 56 56 53 52 53 53 54 53 54 55 58 58 59 62 66 67 70 74 80 85 86 84 87 87
88 67 55 74 82 69 60 38 29 31 35 36 34 43 44 46 49 48 48 51 53 55 57 59 59 57 56 54 52 53 53 52 51 52 54 53 56 56 58 60 62 65 70 72 75 77 76 74 73

GFSSGP_sfc_rhum_093.txt.gz
RH
61 44 28 31 34 26 25 18 11 14 15 12 13 14 18 21 32 47 36 30 39 45 51 67 86 86 86 86 86 85 83 82 79 74 70 69 69 69 69 68 68 67 67 67 66 65 65 64 64
41 38 30 31 35 30 23 14 19 17 14 14 15 15 16 25 36 51 41 38 39 42 49 55 88 87 86 86 85 85 83 82 80 76 74 69 68 69 67 66 66 67 68 68 69 71 73 72 70
50 37 33 35 36 29 22 15 18 18 19 17 13 14 15 34 40 43 39 36 37 44 44 56 86 87 87 87 87 86 84 83 82 80 79 74 71 71 67 65 67 71 72 73 73 74 74 74 74
48 45 41 35 34 24 18 14 14 23 20 17 12 15 37 47 43 40 39 37 37 44 44 79 86 88 89 89 88 86 84 82 81 82 81 78 73 74 70 68 75 78 79 76 76 79 80 79 79
53 47 45 41 31 21 16 16 15 23 20 19 17 24 42 61 50 44 40 37 36 43 60 60 86 88 89 89 89 87 86 84 82 80 78 79 75 76 74 71 76 77 77 75 75 78 79 80 81
81 48 53 43 31 21 17 18 18 19 21 22 20 23 60 66 60 44 40 36 34 42 64 56 85 89 88 89 88 88 88 85 83 81 76 76 81 78 76 74 75 74 75 75 75 76 78 79 80
76 52 47 34 27 24 21 18 18 18 23 28 24 26 56 70 66 55 52 50 40 45 59 55 60 74 91 90 91 89 86 84 84 83 81 82 85 83 79 80 76 72 75 76 76 75 78 79 77
63 70 46 30 28 26 22 20 19 18 22 26 31 38 49 65 77 63 57 64 52 57 53 52 54 58 62 67 93 91 90 87 84 87 86 86 86 89 87 87 84 80 78 78 77 76 74 79 79
57 94 60 36 27 22 20 22 19 19 24 25 37 37 44 46 72 74 79 73 44 56 62 54 53 55 60 56 72 91 92 91 90 85 90 85 47 61 75 83 90 88 83 78 76 78 78 81 82
64 79 53 30 21 22 24 25 26 27 26 30 34 50 47 52 70 87 84 70 53 57 60 61 55 56 56 61 62 63 61 56 52 53 57 43 36 38 55 78 91 89 89 86 80 80 80 78 47
50 54 40 30 25 42 32 29 26 28 28 25 30 48 60 70 77 81 81 60 58 63 71 55 60 52 57 59 57 64 54 45 44 42 42 35 38 45 53 68 81 82 85 69 73 71 56 44 36
52 38 32 34 62 43 39 38 27 27 25 21 22 33 50 59 75 79 83 73 56 65 63 68 57 64 56 54 52 64 51 42 42 38 33 37 41 44 40 48 65 69 63 69 62 49 47 50 44
41 35 29 31 49 53 41 36 31 27 23 22 21 31 36 45 54 62 68 79 71 73 61 57 54 60 53 53 53 57 47 44 42 42 34 33 39 40 38 41 46 49 49 54 51 47 46 48 45
33 37 35 31 52 47 42 35 29 29 22 26 26 31 29 35 39 44 55 67 74 78 77 59 57 52 52 56 54 52 54 45 45 45 44 36 35 39 44 45 46 46 46 45 46 45 45 45 44
48 49 41 39 32 48 36 39 34 26 27 30 27 27 30 30 32 39 44 54 61 65 69 82 71 69 56 60 57 51 52 46 50 46 45 46 42 42 45 43 47 46 44 41 44 45 46 43 41
59 54 51 40 35 32 40 45 28 26 26 33 26 25 30 30 27 35 46 50 55 54 62 64 70 64 69 57 58 68 56 52 53 46 46 50 48 48 50 50 44 42 44 46 48 48 48 47 47
75 90 44 39 41 33 43 40 22 24 28 31 28 25 25 27 26 27 41 52 52 50 53 59 66 68 65 68 68 70 63 56 47 45 46 49 48 49 51 51 48 41 47 50 52 51 49 52 52
81 66 38 34 42 39 41 38 24 26 28 28 26 24 25 25 25 24 33 44 51 51 50 56 65 68 70 73 78 81 75 65 54 59 60 52 48 50 54 52 51 48 51 52 54 55 54 54 52
71 45 34 26 32 39 42 36 28 30 30 29 25 23 23 25 23 23 28 46 52 53 54 55 64 66 80 88 88 85 83 85 73 67 61 58 54 53 55 55 52 53 55 54 53 56 59 62 60
92 65 38 25 35 41 41 39 29 30 31 29 26 22 22 23 23 24 27 34 52 56 58 60 54 59 71 81 81 80 78 82 77 82 69 65 65 65 59 60 60 56 59 59 58 60 65 65 65
87 60 43 31 44 42 44 43 36 29 28 28 26 23 21 21 24 25 28 32 52 59 60 60 57 53 62 73 83 84 88 91 92 87 84 82 82 76 72 66 63 64 64 68 68 68 72 72 68
82 41 43 36 52 53 40 50 34 31 32 29 28 26 25 23 25 25 29 33 36 38 57 60 61 72 81 78 79 85 85 85 86 80 84 79 84 83 89 88 80 71 76 76 76 70 71 75 78
94 72 40 47 48 43 47 48 28 27 33 31 28 25 24 25 28 28 30 37 36 36 42 44 70 70 78 81 80 90 89 83 89 91 90 82 76 87 89 88 88 85 78 78 73 76 74 74 77
85 69 73 52 58 86 42 40 26 32 28 26 24 24 24 25 29 27 32 33 36 42 44 46 46 62 76 79 91 83 87 87 90 95 95 83 79 81 82 82 83 83 79 77 78 76 76 75 75
98 87 98 96 95 55 30 44 28 24 25 22 24 24 23 24 28 29 30 35 35 43 48 49 41 48 54 59 71 77 84 78 83 89 89 86 79 84 83 83 86 90 90 88 83 81 82 83 84
100 97 87 76 70 46 41 43 30 21 20 24 24 22 22 24 25 27 27 33 35 42 57 52 56 52 44 47 50 48 51 52 58 55 55 51 51 57 60 68 70 73 80 89 92 96 95 93 94
99 95 58 59 34 43 38 29 27 27 27 29 27 27 28 27 26 26 27 26 30 45 47 47 47 49 48 47 47 48 48 52 59 63 59 58 60 62 65 68 68 69 72 78 90 97 98 98 98
97 94 75 86 70 56 39 27 30 32 29 28 28 28 27 25 25 26 27 27 30 36 42 44 48 46 48 48 47 48 51 54 54 55 62 64 63 65 67 68 70 72 76 80 85 93 94 96 98
98 99 79 56 64 45 51 32 26 29 29 28 26 26 25 26 27 26 26 28 32 38 44 45 46 54 56 53 50 51 51 51 51 53 55 57 57 59 62 63 65 67 71 80 87 89 90 92 93
65 72 52 74 66 61 62 40 26 30 32 30 29 36 35 35 33 32 30 37 42 48 48 48 51 52 52 52 48 51 52 50 50 51 52 51 54 54 57 58 61 63 67 70 78 83 84 84 83

GFSSGP_sfc_rhum_096.txt.gz
RH
66 60 54 51 68 49 44 30 20 17 21 18 16 19 28 52 68 80 43 48 64 70 77 81 87 86 87 87 85 85 84 81 78 73 69 69 70 70 70 70 69 69 67 65 65 64 64 65 65
54 51 52 54 66 51 38 24 20 20 18 18 18 22 28 61 56 58 56 51 55 65 71 78 88 88 88 87 85 85 83 81 79 76 73 69 68 68 68 68 68 69 69 70 71 72 70 73 77
56 57 60 59 55 51 36 23 17 20 21 21 24 19 32 58 51 54 50 48 51 62 63 76 88 88 86 85 85 85 84 83 82 78 77 74 69 66 66 68 70 71 73 73 74 75 76 77 80
58 80 66 59 51 39 34 19 19 26 23 21 19 34 63 65 53 54 44 46 51 56 71 87 87 85 85 86 86 86 85 84 84 81 80 78 72 66 70 73 77 78 76 77 79 80 79 80 81
71 82 81 66 48 34 27 20 21 28 25 22 20 43 79 73 60 48 46 45 52 55 76 83 89 88 88 88 87 86 86 86 84 83 80 76 74 69 73 76 81 80 78 78 79 79 81 82 82
91 83 76 68 48 32 24 20 21 26 23 21 23 45 86 78 66 51 47 46 50 69 69 76 89 90 89 89 88 88 88 87 85 83 81 80 76 73 72 77 80 78 76 76 78 78 80 82 81
98 87 77 56 45 34 25 19 23 24 27 32 35 37 85 83 70 55 47 44 62 65 64 74 81 87 92 91 90 89 87 86 85 84 86 88 84 82 75 78 80 77 77 77 78 80 79 78 76
94 94 72 51 47 35 26 23 20 24 30 32 40 58 90 87 74 67 64 62 68 67 63 72 76 81 86 88 93 90 86 86 87 88 88 92 90 88 87 84 83 83 82 82 82 78 81 80 78
66 98 84 64 42 31 21 25 23 22 29 32 49 57 73 74 77 78 82 76 69 66 60 66 70 74 80 81 88 93 90 91 90 89 90 89 90 86 87 87 88 86 84 83 80 78 79 83 83
79 93 73 48 36 29 34 24 25 30 33 44 61 56 68 75 82 85 88 81 75 81 69 66 58 70 77 68 84 85 82 82 76 77 86 75 69 83 72 90 91 88 87 85 82 82 82 80 79
66 76 57 47 36 55 53 37 22 31 39 40 60 65 67 83 88 86 84 78 68 73 73 67 67 63 71 72 72 76 76 70 69 70 71 67 62 83 80 92 89 94 92 92 90 90 81 72 64
68 51 46 45 64 71 59 62 49 36 32 29 46 61 75 82 85 86 84 76 74 76 73 71 76 68 74 68 68 73 70 63 66 61 57 60 71 67 81 87 95 94 87 81 86 86 78 66 60
57 44 38 39 56 62 54 52 51 56 37 26 40 55 64 79 86 83 86 82 80 80 74 75 78 80 70 72 70 71 67 59 60 56 47 56 65 64 62 76 85 86 83 82 84 78 69 68 65
57 48 40 38 53 63 60 55 52 49 37 34 34 43 52 57 79 79 87 88 80 82 77 74 74 76 69 80 71 69 63 58 63 63 57 48 58 62 62 66 73 74 71 76 73 68 66 68 65
67 66 48 52 59 72 62 60 70 53 35 31 32 39 39 49 55 70 75 85 82 82 82 78 72 70 71 80 81 68 61 56 60 66 59 55 56 58 64 68 71 70 65 62 65 65 66 66 59
87 67 81 58 50 57 66 79 49 41 44 43 34 37 40 42 43 50 53 71 74 76 81 84 78 80 79 77 81 86 67 68 62 63 66 61 59 62 67 70 68 66 66 66 70 70 72 70 69
96 90 78 54 41 39 59 63 38 31 31 40 40 36 39 41 39 43 53 57 65 69 74 79 82 81 83 80 84 85 80 72 64 62 66 63 62 63 71 73 69 60 69 71 72 73 74 77 75
90 97 61 49 40 48 44 44 33 27 33 38 37 36 34 37 36 38 52 61 70 63 67 71 79 78 81 88 88 88 84 79 68 67 64 60 60 64 71 73 70 64 73 75 77 78 77 76 77
75 62 56 41 36 43 52 48 37 30 30 36 37 36 34 32 31 35 44 62 68 70 69 71 79 84 84 91 97 96 94 91 86 77 71 65 62 66 70 73 72 71 72 74 74 77 80 86 82
97 94 57 46 39 45 51 52 36 33 39 39 35 33 32 32 32 34 45 60 69 72 74 78 78 83 86 87 92 95 96 94 95 90 84 79 76 74 71 76 76 72 77 74 75 76 84 83 85
90 90 67 75 48 52 46 57 45 32 37 37 35 32 29 30 32 36 41 55 71 75 78 79 75 77 89 91 96 96 97 97 96 95 98 94 91 92 88 84 90 86 84 84 82 82 83 90 87
85 63 64 51 65 99 65 91 76 55 38 38 39 38 36 32 30 32 41 55 77 84 81 77 76 78 86 92 96 96 97 98 98 98 97 93 96 96 96 95 95 95 95 95 96 93 94 92 95
81 80 72 78 65 57 66 72 65 46 40 36 36 37 35 34 34 36 44 46 49 62 81 87 84 87 93 94 94 96 89 85 87 91 89 94 96 96 96 96 95 94 93 92 93 95 94 92 94
81 76 74 82 86 99 75 58 43 38 36 37 32 32 33 34 34 37 49 52 56 62 63 65 87 88 93 92 91 90 87 86 91 94 95 94 95 97 97 95 97 96 94 94 96 94 94 96 93
98 99 99 99 99 89 58 59 42 30 28 30 30 33 31 32 36 44 49 55 60 66 70 77 72 75 85 92 94 86 80 82 78 87 88 82 80 86 92 93 97 97 96 94 93 93 91 91 89
99 100 99 89 92 66 49 90 46 32 31 31 32 34 32 33 40 44 48 49 58 66 73 68 65 66 68 76 80 81 91 92 86 80 77 78 80 79 80 81 81 82 88 94 96 98 98 97 97
100 100 90 99 59 78 54 46 32 36 39 38 38 34 38 41 38 42 42 48 55 66 67 69 70 67 69 68 65 59 59 67 71 72 74 75 76 71 76 79 80 82 84 87 91 98 98 98 98
98 92 97 99 97 92 56 48 42 42 39 38 41 41 41 40 39 37 41 43 52 60 63 62 64 66 63 60 62 60 64 67 70 78 81 81 79 79 81 80 84 86 90 92 93 97 97 99 99
97 94 95 82 83 88 75 57 46 43 37 36 36 35 37 38 36 36 38 41 54 62 65 65 66 67 66 63 60 63 66 65 69 72 74 74 73 72 74 74 76 80 85 91 94 95 96 98 97
66 73 76 97 77 95 91 64 41 42 38 38 42 42 47 43 42 41 41 56 63 66 65 69 73 74 71 66 62 61 61 62 66 67 67 66 69 69 71 71 74 75 78 85 88 89 92 93 94

GFSSGP_sfc_rhum_099.txt.gz
RH
55 63 75 84 70 80 76 42 34 23 25 20 22 53 66 66 62 71 68 82 83 85 82 82 87 87 86 84 84 83 82 78 76 73 70 73 73 72 71 70 69 67 65 64 64 64 64 64 67
57 56 92 82 88 81 56 41 30 24 23 25 19 37 63 70 69 70 90 80 80 82 81 82 87 87 85 84 84 83 82 79 76 76 72 70 70 69 69 69 69 68 68 69 68 71 73 75 78
53 63 97 78 87 75 59 32 28 25 26 25 23 40 68 78 62 63 74 76 80 82 82 83 88 88 86 84 84 83 83 80 79 77 75 70 68 68 69 70 70 72 74 74 74 77 79 81 80
65 93 94 83 80 56 48 30 22 28 28 24 40 84 81 79 66 66 66 73 78 82 87 90 90 88 84 84 85 85 84 81 80 80 77 72 68 69 70 72 78 81 80 78 77 79 80 81 81
86 88 94 93 70 51 42 31 28 29 28 24 24 86 93 76 72 57 66 67 73 84 87 87 88 84 84 87 86 86 85 84 82 82 74 68 70 71 75 77 81 81 84 80 80 80 82 82 80
95 89 89 86 71 47 41 28 28 32 27 25 32 89 95 79 71 65 64 64 76 84 83 82 88 87 87 87 87 87 87 86 83 83 77 71 70 74 77 78 81 79 79 78 78 81 82 81 77
90 92 90 79 66 55 40 27 30 30 31 39 43 93 92 90 78 71 57 76 79 81 85 88 86 89 92 90 90 89 89 88 87 85 83 81 79 79 78 81 81 78 79 81 81 80 78 76 72
87 96 78 69 67 55 34 28 25 29 38 38 45 96 97 90 78 76 65 75 76 80 86 93 91 90 92 91 92 91 88 88 90 92 90 88 89 84 85 87 85 83 82 82 84 81 78 76 74
77 97 93 67 59 48 35 29 28 29 37 54 65 85 79 80 79 82 84 81 80 80 84 87 91 93 93 94 89 89 90 90 90 91 94 92 90 88 86 90 90 88 86 83 80 80 83 84 82
86 95 84 67 59 60 61 38 30 39 55 74 81 88 83 81 84 88 90 88 84 84 84 83 87 90 90 79 92 87 87 90 89 89 95 96 96 92 84 91 90 88 87 87 82 81 82 80 84
77 88 65 66 60 68 63 51 52 47 60 70 84 92 87 88 92 89 90 85 81 81 81 80 80 87 85 85 90 88 86 87 88 89 88 84 89 96 93 98 97 97 94 96 91 91 88 87 86
91 65 63 53 74 71 65 60 59 58 51 61 70 85 86 92 88 88 83 83 88 77 79 75 82 84 83 79 85 83 82 84 84 85 79 78 86 96 86 98 98 98 98 97 96 96 86 80 72
84 68 54 47 79 82 66 68 74 68 56 53 71 84 91 87 90 86 86 87 87 82 79 85 85 85 82 81 78 80 81 77 72 72 66 69 80 91 93 96 97 96 96 96 97 95 88 81 70
76 67 59 48 80 77 75 72 74 61 54 56 75 90 93 92 88 91 87 88 83 84 80 85 84 83 77 86 74 82 80 69 61 62 58 64 70 71 83 89 91 95 91 92 91 89 80 78 76
76 82 59 68 79 84 66 82 77 70 67 62 65 79 84 90 89 84 90 89 83 82 84 86 87 84 84 85 82 81 76 63 66 64 56 56 65 70 72 84 91 88 84 84 83 76 74 72 67
82 85 86 65 64 71 67 84 68 70 82 71 57 59 71 75 84 85 83 92 88 92 88 82 78 81 82 82 87 88 77 77 66 66 67 59 59 65 72 76 78 75 74 72 76 76 77 76 75
96 99 92 66 54 84 74 79 68 63 86 78 66 42 58 58 61 69 79 82 86 79 92 89 82 85 82 83 87 87 80 77 72 71 70 65 64 67 72 77 72 70 75 76 75 80 81 82 81
96 96 76 72 56 78 84 67 50 74 75 75 58 47 53 48 50 56 63 78 82 84 87 88 90 89 88 93 92 92 87 82 70 75 62 68 68 68 74 77 75 68 78 80 82 81 84 83 83
77 89 87 57 44 67 79 66 57 52 72 79 63 54 44 50 45 48 66 76 85 86 91 84 87 90 92 94 96 96 90 92 90 78 74 65 63 71 75 80 77 73 75 76 75 80 83 86 87
99 93 74 56 40 46 54 57 44 38 38 42 46 42 43 41 43 50 69 82 81 86 85 94 89 87 86 87 95 96 96 95 94 90 83 78 76 75 77 78 80 78 76 76 78 82 88 88 89
95 98 75 62 55 55 55 64 59 42 38 43 39 37 36 34 38 50 68 82 87 89 91 89 89 89 90 92 99 99 98 98 96 96 96 97 96 95 90 86 86 88 84 84 85 84 86 91 93
98 92 74 64 79 85 78 90 67 54 44 42 44 45 40 36 36 50 60 78 89 87 90 91 92 94 94 97 96 96 97 98 97 95 96 95 96 96 97 97 97 97 96 95 96 94 93 94 97
98 85 77 79 87 81 93 97 71 60 51 50 43 45 42 39 37 49 55 64 86 91 93 91 90 93 96 96 96 97 95 92 94 96 93 94 91 92 95 97 98 98 98 97 98 97 98 98 97
83 89 90 87 97 97 92 98 54 59 52 53 45 44 39 38 36 48 50 62 71 82 77 90 94 96 97 96 96 93 89 94 95 95 97 97 96 96 96 96 97 97 97 95 96 97 97 96 95
99 99 99 99 99 94 73 78 54 44 40 40 38 42 40 39 35 50 63 66 68 71 74 83 90 98 97 94 93 90 92 90 89 90 92 90 88 89 94 95 97 97 97 93 96 97 97 97 98
100 100 98 94 96 83 67 79 60 38 39 34 35 38 38 39 40 63 60 63 61 67 74 70 80 85 92 96 95 93 90 94 90 85 80 80 82 87 91 93 92 93 94 95 96 98 98 98 98
100 99 96 91 81 84 82 61 36 45 43 40 41 42 44 40 43 60 60 56 67 72 73 69 74 73 79 82 74 78 82 85 81 80 83 85 80 76 84 84 85 88 90 90 93 97 98 99 98
93 87 97 97 94 89 70 56 48 55 46 41 42 41 40 43 44 56 52 54 66 70 75 72 73 74 76 77 76 77 78 79 82 84 84 85 82 82 84 86 89 91 92 93 94 97 96 98 99
93 98 95 94 92 89 86 64 52 53 45 47 45 41 41 42 40 42 52 63 67 73 74 75 75 74 77 76 77 76 70 76 80 83 78 74 74 77 79 79 82 86 90 92 94 95 96 98 98
80 78 84 96 92 98 92 70 47 47 45 48 49 47 50 46 45 44 68 72 72 76 77 79 82 80 80 77 75 74 70 71 69 69 71 73 75 74 74 76 80 82 83 88 92 94 96 97 98

GFSSGP_sfc_rhum_102.txt.gz
RH
48 65 82 95 82 88 87 62 45 33 32 23 25 53 50 68 57 67 87 84 88 90 87 85 88 86 84 81 81 82 79 78 78 77 78 77 76 74 72 70 68 67 65 64 64 64 67 72 75
55 52 92 97 94 91 63 55 34 30 23 26 51 73 70 79 79 97 96 85 83 85 84 86 88 86 84 84 82 81 79 77 76 76 76 74 72 71 70 69 67 66 66 66 66 69 76 78 78
62 60 96 98 96 70 46 42 30 27 23 27 46 65 70 78 88 86 85 80 81 83 82 85 88 84 83 84 84 82 79 79 77 77 76 75 72 70 69 69 70 72 73 74 75 79 80 81 80
78 91 86 93 91 66 49 33 26 27 25 24 54 94 84 82 74 84 82 82 86 90 87 87 87 85 84 85 85 82 81 77 73 74 76 75 70 70 70 73 77 81 81 79 78 80 81 80 79
93 94 93 90 82 65 53 34 28 31 29 24 64 91 92 81 77 83 84 83 89 94 88 86 87 83 85 86 86 84 81 80 74 70 70 69 70 71 73 77 80 82 83 80 80 81 82 79 78
95 90 99 95 76 58 50 33 31 31 31 28 87 93 90 81 86 87 86 85 86 92 88 85 88 84 87 87 87 86 84 84 80 74 70 70 72 73 77 81 85 83 80 80 80 81 80 76 73
97 93 92 88 74 60 51 33 43 36 29 41 71 92 90 87 86 83 84 84 85 86 87 87 84 88 90 88 88 88 86 86 83 79 76 78 81 80 78 81 83 81 79 81 82 81 78 72 70
91 88 90 84 83 66 44 32 32 33 32 38 77 98 97 91 84 84 82 83 84 88 90 94 91 88 90 92 92 91 91 88 87 85 85 88 89 86 86 88 85 84 86 85 83 78 74 72 74
81 97 90 79 71 64 41 36 29 31 40 60 78 87 83 82 85 89 93 91 90 89 93 95 95 95 95 93 92 93 93 94 92 91 91 91 95 95 94 94 91 88 86 86 84 81 80 79 78
86 88 75 62 66 64 64 40 32 56 74 85 95 84 84 83 86 93 94 97 92 91 94 94 96 96 95 82 93 94 88 92 96 94 94 96 96 95 88 95 92 90 89 87 82 82 83 81 84
83 82 60 67 62 67 70 63 51 59 78 87 91 92 90 92 87 91 91 91 88 87 88 92 93 94 91 92 94 90 92 93 93 97 98 98 93 97 98 98 97 97 95 97 93 92 91 87 87
79 74 60 74 77 82 79 71 67 57 64 68 81 75 86 93 93 89 89 91 90 90 88 90 92 93 90 88 88 92 87 96 97 93 94 98 99 99 99 99 98 98 98 96 96 96 88 84 81
89 74 60 60 87 82 75 75 67 58 61 63 82 82 87 88 90 90 89 86 88 90 89 89 92 91 88 88 85 85 86 88 88 87 81 81 98 98 98 99 99 98 98 97 97 96 92 92 88
76 76 67 57 86 88 89 79 79 67 70 71 77 94 91 84 91 93 93 92 86 86 87 90 90 88 83 88 83 82 83 81 83 81 75 76 86 97 95 97 98 98 97 97 97 97 96 93 86
68 84 70 62 80 86 85 90 80 77 75 76 73 78 94 94 93 88 87 89 84 85 87 90 88 87 82 89 87 84 79 74 75 69 69 71 80 89 94 94 98 97 96 93 95 93 84 85 77
86 81 89 74 78 85 90 91 74 84 79 78 79 80 85 94 91 92 91 93 91 93 93 87 86 87 85 85 91 90 81 74 65 59 60 64 68 75 83 95 96 93 92 92 91 85 83 80 78
92 97 96 78 72 85 80 88 79 76 84 80 82 82 68 93 93 94 94 93 90 84 92 91 88 85 83 87 88 83 86 74 63 65 64 63 64 70 78 84 88 82 85 82 82 84 83 85 84
97 98 96 86 72 81 83 75 81 82 82 85 91 90 80 76 79 82 88 92 95 90 88 87 86 84 91 96 95 95 93 87 77 72 71 66 69 72 78 81 76 77 82 82 85 83 88 86 84
98 95 88 72 62 79 79 66 86 86 86 86 88 81 73 61 58 64 83 91 94 96 96 92 94 94 89 91 94 96 95 94 91 83 75 67 67 72 76 80 81 76 79 79 80 83 83 88 89
99 90 98 76 54 68 76 75 72 87 84 84 84 85 71 53 51 61 79 92 94 94 93 96 93 93 86 90 92 95 96 96 93 91 84 78 76 75 78 82 83 81 76 77 78 81 89 87 89
99 89 87 86 70 72 70 81 78 71 71 77 86 85 59 42 48 58 83 92 94 96 95 92 92 90 91 91 98 99 98 98 98 96 95 95 90 89 89 89 88 88 82 86 90 92 92 93 96
95 86 80 76 92 98 83 96 85 85 60 53 66 77 54 40 41 53 69 90 94 94 95 93 94 93 93 97 95 96 95 97 97 96 98 97 95 96 96 96 97 96 98 96 96 96 96 98 98
100 88 82 76 89 84 94 84 75 62 60 46 40 45 41 41 40 52 62 78 88 94 94 96 95 96 97 97 96 97 97 96 97 98 97 96 94 95 96 98 99 99 99 99 99 99 99 98 98
87 94 84 86 90 97 92 82 64 64 54 44 42 44 41 42 42 50 65 79 93 96 96 96 96 97 98 98 98 95 94 96 98 99 99 98 98 98 97 98 98 99 99 96 95 96 97 97 98
99 99 99 99 99 96 95 96 73 52 45 39 40 42 42 40 42 53 65 83 91 93 94 96 96 100 99 98 98 94 94 95 95 96 98 96 94 92 95 95 95 94 94 95 95 95 96 96 96
100 100 98 96 97 95 75 92 60 43 38 42 39 40 41 44 42 57 67 74 79 88 92 97 98 99 98 96 95 92 92 95 94 93 95 95 92 88 89 95 92 90 90 92 91 95 98 97 97
100 98 94 93 82 92 94 66 41 43 45 44 42 41 44 44 44 61 70 68 70 75 82 94 96 97 97 94 94 94 94 93 93 88 88 91 91 89 92 91 91 90 92 93 94 98 97 98 99
95 90 96 96 89 94 82 61 51 53 53 52 48 46 46 46 46 67 67 62 68 69 73 74 85 92 95 94 93 92 92 91 88 91 92 90 90 89 90 91 90 92 93 92 94 96 96 97 98
93 96 96 86 93 90 87 65 59 58 49 49 52 53 50 52 52 65 72 68 71 77 75 76 77 82 87 84 87 89 89 89 91 91 91 86 82 85 88 83 89 90 91 92 95 96 96 97 98
75 81 92 92 92 98 92 75 52 58 57 55 58 55 58 50 50 60 68 74 78 78 78 78 82 82 86 85 85 86 86 86 85 85 82 82 83 82 76 85 87 87 86 87 92 95 95 98 98

GFSSGP_sfc_rhum_105.txt.gz
RH
53 61 89 95 97 95 90 73 60 37 34 27 24 44 57 62 54 68 93 86 89 90 87 84 86 84 80 78 76 78 79 82 83 81 81 80 76 76 72 70 68 67 66 67 69 71 74 76 74
71 55 93 97 98 99 76 63 49 40 25 40 59 64 69 77 96 96 95 91 87 89 86 86 87 85 82 78 76 77 77 82 82 81 80 77 74 71 70 69 67 66 65 66 72 76 79 76 74
73 60 94 99 98 87 49 55 29 28 25 30 55 69 75 88 92 87 88 86 86 89 86 86 87 85 83 81 80 80 79 79 81 82 82 76 72 71 69 68 68 70 73 77 78 80 78 77 79
89 88 94 99 83 74 48 41 31 29 24 27 64 82 89 86 86 90 83 85 89 91 89 88 85 84 85 83 82 79 76 75 76 80 80 77 70 70 70 72 77 81 82 82 80 80 76 80 79
96 95 94 95 81 60 55 42 28 25 26 28 76 84 90 86 90 84 86 85 91 93 87 86 84 84 85 84 83 82 78 74 74 75 74 72 70 71 74 77 80 81 82 81 81 79 75 80 77
93 96 96 97 89 62 62 44 39 31 30 44 84 94 93 92 91 89 85 87 87 89 85 82 85 86 87 85 84 82 80 77 74 76 74 71 71 73 78 80 83 81 80 80 81 79 74 75 75
87 98 87 73 86 75 62 42 43 33 30 34 81 94 95 97 88 87 85 85 88 87 87 85 85 87 89 88 85 85 83 80 78 77 76 78 79 82 84 86 85 81 81 82 83 80 74 74 78
86 96 86 74 81 84 55 45 37 34 31 53 82 96 95 97 91 89 90 89 88 92 86 94 92 89 91 92 89 89 87 83 80 81 85 87 88 86 88 90 86 85 85 85 83 78 72 75 78
72 92 88 76 68 75 54 46 36 29 42 54 75 85 83 90 93 94 95 94 93 91 94 96 95 95 96 95 94 93 92 89 88 90 92 93 97 96 94 94 92 90 88 84 81 78 78 78 80
84 91 76 62 55 67 76 62 39 43 62 81 94 94 90 90 91 92 96 95 93 92 92 94 94 96 96 88 97 96 93 90 89 92 94 97 97 97 94 97 93 91 91 90 84 83 81 81 84
81 83 77 60 60 76 88 85 58 52 50 82 90 96 92 96 88 89 87 88 91 85 91 91 96 96 92 95 96 98 98 97 95 95 96 97 95 98 99 99 99 98 96 97 93 93 92 85 87
87 70 69 68 70 64 85 89 75 61 68 65 73 89 92 92 88 85 84 84 91 90 88 90 95 95 94 93 89 96 94 99 99 98 97 97 99 98 99 99 98 97 98 96 95 96 91 87 85
95 63 59 62 62 85 80 91 79 63 72 78 78 90 91 89 89 82 80 86 86 89 88 91 94 93 95 94 88 87 88 91 97 98 97 98 99 98 98 98 98 98 98 97 97 95 89 90 90
88 69 59 57 72 76 88 87 88 80 69 76 86 84 86 88 88 88 90 90 91 86 89 90 92 91 90 89 89 83 86 89 90 93 94 94 96 98 98 98 98 98 98 97 97 97 96 95 94
85 94 77 64 71 86 84 88 95 85 68 82 83 82 87 92 89 91 89 91 88 86 87 93 90 89 88 90 89 83 82 84 88 84 82 84 96 98 97 98 99 98 98 96 97 96 94 94 89
97 84 85 64 67 79 86 98 85 85 73 85 89 90 80 82 94 90 90 88 87 90 90 90 87 88 87 86 91 91 84 84 83 79 76 77 82 96 98 98 98 97 97 97 97 96 93 88 84
99 97 95 74 70 90 84 97 85 88 77 84 92 91 81 77 86 98 95 92 91 87 90 93 91 89 86 88 91 92 89 79 77 73 70 73 76 84 92 96 97 95 97 96 94 92 87 88 87
98 92 96 80 82 82 89 84 85 86 87 86 90 91 83 76 72 90 97 96 95 94 92 89 92 89 88 93 97 97 94 85 77 68 65 67 69 74 82 86 90 91 93 92 89 87 90 88 86
99 96 94 81 75 86 90 76 82 82 81 90 90 88 84 78 62 63 93 96 98 98 96 92 95 93 92 95 96 97 93 95 90 84 75 68 65 71 79 83 82 84 85 85 86 87 86 89 91
99 96 96 83 68 79 84 83 75 83 79 93 88 87 87 83 64 56 83 99 92 94 96 97 94 96 94 94 91 96 94 96 92 93 90 79 77 78 78 83 86 80 82 82 85 85 90 85 89
98 90 98 82 86 82 80 92 90 92 84 83 85 81 85 84 76 58 81 96 98 98 98 96 96 94 92 95 98 98 98 98 98 96 95 90 84 85 84 85 91 91 87 87 88 89 87 92 96
96 78 79 85 89 99 91 99 94 89 89 86 87 86 89 85 70 56 65 90 95 95 96 95 97 96 97 97 96 96 90 95 97 97 97 98 94 92 91 92 93 94 97 95 93 94 96 97 98
100 79 81 92 98 95 97 87 77 84 86 86 78 84 82 78 69 54 56 83 91 95 97 97 96 98 99 98 96 98 98 97 98 99 98 98 98 97 96 97 99 99 99 99 99 99 99 99 99
95 93 84 95 99 97 92 82 70 85 64 63 58 74 75 78 59 41 55 77 92 96 97 98 97 97 99 98 98 97 97 97 99 100 100 99 99 99 98 98 98 98 99 99 98 98 98 98 99
100 88 98 98 98 94 87 81 59 58 49 46 49 44 60 51 42 42 68 90 95 96 96 98 98 99 99 99 98 96 95 96 96 98 99 99 99 99 98 98 98 98 96 97 95 92 92 94 98
100 100 95 96 97 98 90 85 58 51 42 42 39 37 38 39 41 44 60 85 93 94 95 98 98 99 99 99 99 97 95 97 97 96 98 97 97 95 94 95 92 91 92 93 92 94 95 94 95
100 98 95 89 86 93 92 76 44 45 46 46 48 45 44 46 47 45 62 80 92 94 95 97 97 98 99 98 97 96 96 96 96 95 94 95 92 89 92 93 92 93 93 94 96 98 99 98 99
97 92 97 95 87 95 89 72 57 56 49 49 50 50 45 44 46 48 62 71 87 91 92 95 97 99 98 97 96 95 95 94 93 93 92 91 92 92 93 92 92 92 93 93 93 95 95 97 97
92 96 94 85 92 90 88 66 54 61 56 48 51 47 48 46 46 52 63 71 80 80 87 90 94 96 98 96 94 95 95 93 92 92 92 92 91 92 91 91 93 92 92 91 94 95 96 97 97
78 83 91 92 92 95 92 79 50 58 60 56 59 58 59 54 53 59 68 73 81 80 81 82 83 92 94 93 94 94 93 94 94 93 90 88 87 81 89 89 89 89 87 87 91 94 94 96 97

GFSSGP_sfc_rhum_108.txt.gz
RH
66 68 85 95 96 92 94 81 73 45 34 30 28 50 60 56 61 66 92 90 90 88 86 84 84 79 77 76 78 84 84 85 84 83 80 76 76 76 73 70 68 65 68 67 68 73 73 74 73
81 65 91 96 99 89 83 76 64 43 31 26 36 68 77 54 95 93 94 89 84 87 86 85 84 80 78 77 78 84 83 84 83 82 81 80 76 72 70 68 67 67 71 72 76 78 76 76 75
72 68 92 98 96 88 66 60 42 40 32 45 42 58 82 77 93 83 88 86 87 88 87 86 85 83 81 79 79 82 83 84 84 83 82 78 73 71 69 68 70 74 78 81 80 78 76 76 76
88 92 95 97 94 72 61 42 44 33 27 28 56 49 71 82 80 84 86 84 85 89 90 88 86 84 83 82 82 81 83 83 83 83 81 78 71 70 69 71 77 81 84 83 78 77 78 76 73
95 95 98 89 84 78 56 51 37 33 30 30 67 49 49 83 90 86 85 81 80 90 91 87 87 86 84 84 82 82 82 80 82 82 78 72 71 71 73 76 82 84 85 81 76 77 78 77 72
92 89 95 86 67 82 65 54 52 38 26 56 84 58 63 93 92 88 84 81 76 85 88 84 87 86 84 82 82 81 82 81 81 80 75 72 72 73 76 79 83 85 81 79 76 76 76 76 73
91 95 88 83 70 59 73 54 53 46 37 37 81 81 96 98 89 89 85 82 84 88 87 87 85 87 87 86 84 81 81 81 78 77 77 77 79 80 79 83 85 84 83 84 81 76 77 76 76
92 91 85 85 76 74 59 58 49 47 41 59 85 87 96 94 93 92 88 90 92 89 91 95 91 91 89 89 88 84 82 82 81 81 83 87 90 88 88 90 87 86 88 87 85 79 77 79 80
80 91 87 79 76 64 53 71 53 40 39 47 82 88 85 91 92 92 91 94 95 92 95 96 96 97 94 93 92 90 87 88 88 89 91 93 97 96 95 94 91 91 90 86 81 78 79 84 84
87 93 74 61 61 62 51 65 77 68 46 54 94 93 94 94 96 94 91 94 92 94 97 96 97 97 97 88 96 94 90 92 95 96 96 98 98 97 95 96 95 93 91 89 83 81 81 82 87
90 85 60 60 63 65 58 67 68 85 77 52 88 97 96 97 96 91 94 89 89 90 94 94 97 94 96 88 93 92 94 98 98 97 97 98 97 99 99 99 99 98 97 98 95 94 91 88 88
96 76 66 60 69 69 75 68 75 83 80 58 68 90 93 90 91 94 91 92 96 90 93 94 96 97 98 84 90 93 86 98 98 98 98 98 99 100 100 99 99 98 98 97 96 96 92 89 87
91 78 74 64 60 62 68 79 85 79 74 64 73 88 94 88 90 88 86 86 87 86 91 93 95 96 98 97 97 98 91 96 98 98 97 97 99 99 99 98 98 98 97 96 95 93 88 89 89
83 79 83 71 66 61 71 75 82 77 73 71 82 90 80 87 91 88 85 86 86 84 90 90 93 91 96 95 96 94 98 98 98 98 96 96 97 97 98 98 98 98 98 97 96 95 94 95 95
86 93 85 79 60 69 77 88 82 74 85 80 88 93 91 86 86 83 82 84 72 76 84 91 90 90 94 95 94 90 89 91 97 98 97 96 97 96 97 98 98 98 98 96 97 96 96 96 93
98 92 96 82 58 66 77 86 73 83 93 90 88 92 88 87 71 84 81 81 78 82 88 90 86 90 90 88 92 90 88 91 91 92 94 94 96 97 98 98 98 98 98 98 98 97 96 95 93
97 98 96 78 53 57 85 80 70 83 90 88 93 94 87 86 91 88 87 81 80 80 86 89 87 91 90 90 90 94 92 92 91 86 84 87 91 97 98 97 97 97 98 98 96 97 94 94 90
97 97 95 83 66 59 86 83 84 90 89 86 92 94 91 83 84 88 94 85 87 88 88 88 88 89 90 92 94 97 98 95 91 83 75 82 82 93 97 98 97 97 98 98 97 95 94 90 88
95 96 98 76 74 72 84 78 72 82 90 85 89 94 90 87 80 78 95 98 90 90 95 91 91 92 93 97 98 98 95 97 94 86 78 75 75 80 87 91 94 97 96 94 94 92 91 94 94
95 94 94 81 77 72 88 90 89 85 87 86 89 91 88 82 79 72 95 99 97 97 95 97 95 94 91 94 92 95 94 95 90 88 83 75 74 77 78 85 87 90 92 90 90 89 94 92 94
91 98 95 88 84 86 90 96 96 90 87 85 83 85 86 79 76 74 93 99 98 94 98 97 98 96 94 96 97 99 98 98 98 96 92 92 87 85 85 87 90 88 89 92 91 92 90 93 97
99 90 93 79 94 99 95 98 95 94 92 89 86 87 91 84 78 66 70 97 98 96 97 94 98 97 96 97 96 95 97 98 98 97 96 95 95 89 88 88 92 94 97 97 95 95 96 98 98
100 87 88 95 95 99 95 85 98 86 91 84 84 84 82 82 83 75 64 74 94 97 97 98 98 98 98 95 89 90 92 93 98 99 97 97 98 95 95 95 98 98 99 99 98 98 99 98 98
95 92 86 88 92 97 99 76 88 92 81 77 77 87 83 78 76 73 55 57 92 97 98 98 96 97 98 98 98 96 95 96 98 99 99 99 99 99 98 98 98 99 99 99 99 99 99 98 99
100 93 98 96 96 96 87 82 62 75 65 65 61 74 82 66 73 63 53 80 93 95 99 99 99 99 99 98 99 98 98 97 96 99 99 99 99 100 99 99 99 99 98 98 98 98 98 98 99
100 92 95 94 94 92 82 86 61 54 52 55 54 54 79 65 66 52 49 70 90 93 97 98 99 99 99 99 99 98 97 98 98 98 99 99 98 98 98 98 97 96 96 96 94 95 95 93 96
100 96 91 87 86 94 95 75 47 47 47 52 50 52 52 48 44 45 45 63 89 94 95 95 98 98 98 96 99 98 97 97 98 97 97 98 96 95 97 95 94 94 94 95 96 98 99 98 99
98 94 96 94 88 90 88 70 66 61 57 54 55 50 47 47 45 44 48 65 83 92 95 97 97 96 98 99 98 98 97 96 97 96 96 94 94 93 94 95 95 95 95 94 94 95 95 95 97
93 96 92 86 90 94 91 73 56 63 61 59 60 54 52 48 45 46 49 70 86 93 95 97 98 99 99 98 97 97 97 95 95 95 95 94 94 94 94 94 94 94 93 93 94 95 95 95 96
80 83 91 93 92 95 93 82 52 59 64 60 64 64 61 62 67 70 57 70 84 90 94 95 96 98 98 96 96 97 96 95 96 95 94 93 93 93 93 92 92 92 91 91 91 92 94 95 96

GFSSGP_sfc_rhum_111.txt.gz
RH
68 65 71 83 80 88 71 64 54 38 31 30 39 49 48 46 48 50 81 74 72 71 70 73 83 83 82 82 85 84 83 85 84 82 80 78 76 74 71 74 73 70 70 72 73 72 68 74 76
64 69 82 91 95 85 67 57 53 42 29 30 34 51 51 41 73 85 87 77 69 71 71 69 83 83 82 84 85 87 86 86 84 82 80 81 77 72 71 71 73 73 75 76 76 75 76 75 76
61 64 84 89 88 87 65 52 48 38 32 32 32 51 61 58 80 78 77 76 71 73 72 72 82 83 82 85 87 86 86 86 83 80 81 82 76 71 68 72 76 77 83 82 79 77 78 76 75
77 83 82 95 81 62 66 39 40 36 30 24 34 38 61 67 76 69 80 74 74 76 71 80 83 84 83 86 88 88 86 84 82 83 82 78 75 70 71 77 80 85 85 82 80 77 76 73 70
83 86 89 85 73 60 57 46 40 35 29 23 41 36 45 90 82 77 81 78 76 77 74 73 85 84 84 85 88 88 86 85 84 82 79 74 73 71 73 80 85 87 83 80 78 77 75 70 69
86 81 93 87 69 51 51 50 50 45 40 26 52 50 45 86 89 86 80 78 73 80 77 74 85 86 85 85 88 87 86 84 83 81 78 74 74 74 76 83 87 86 80 80 79 76 75 70 70
83 89 82 70 66 56 54 54 56 53 48 40 43 58 69 93 88 84 82 77 78 78 78 76 73 79 86 85 86 86 86 85 83 82 79 79 78 79 78 86 87 84 82 82 82 79 76 73 72
78 85 74 72 72 68 43 39 48 56 52 35 60 53 58 81 86 85 86 84 81 83 79 79 75 70 72 75 87 87 87 86 84 82 84 86 85 84 86 89 87 86 87 84 83 82 79 78 76
69 87 78 68 76 63 44 43 46 47 47 41 39 67 63 78 85 92 96 94 90 88 83 81 78 76 75 70 77 86 89 88 86 86 90 88 68 71 74 85 91 89 90 85 83 82 84 88 87
84 87 68 48 48 56 50 49 49 51 56 60 56 56 71 82 88 90 94 97 90 91 88 83 80 78 79 74 77 74 71 66 66 67 71 77 78 75 72 85 93 92 91 86 81 80 83 75 61
82 83 53 52 47 58 64 57 45 68 72 65 58 67 65 91 87 84 91 95 89 88 88 84 81 79 77 81 84 78 77 76 75 74 75 80 80 78 77 81 82 80 87 72 71 66 60 61 56
92 74 66 54 53 57 63 62 64 57 60 51 61 63 64 88 92 83 90 96 92 89 85 83 82 81 78 80 83 79 77 79 78 78 77 81 85 85 83 83 82 80 74 75 70 62 61 61 59
84 71 65 62 67 61 56 66 65 66 61 48 51 62 66 65 86 87 81 94 94 88 88 88 87 84 73 75 88 78 75 76 78 81 79 78 84 84 81 80 78 76 74 68 67 61 60 59 58
74 78 70 69 69 67 62 58 71 68 61 68 62 63 69 68 74 87 87 92 90 91 90 87 87 83 79 83 86 85 77 78 78 80 81 78 76 78 78 80 78 76 71 69 62 58 59 62 64
85 98 89 73 73 70 62 70 66 62 66 74 70 63 66 68 70 94 80 82 82 85 88 88 87 86 84 88 88 86 84 77 75 77 78 78 75 77 76 74 75 71 72 72 71 70 73 72 70
92 88 87 60 69 65 68 77 61 60 71 76 69 69 75 78 64 91 87 83 81 81 89 90 85 88 88 85 87 84 82 78 75 75 76 75 75 72 74 71 73 74 75 74 77 77 75 72 68
85 90 74 62 66 63 72 70 69 75 84 75 75 79 81 79 66 74 90 91 90 80 83 88 86 88 88 90 86 82 81 79 78 78 78 77 77 77 76 75 74 77 80 79 78 79 74 74 71
95 96 84 78 70 64 78 66 85 84 78 79 87 80 79 81 66 69 79 88 82 80 85 87 86 87 88 91 88 87 84 75 76 77 78 79 78 82 81 79 78 78 81 80 81 78 76 70 68
91 96 94 72 62 74 82 64 66 87 86 87 87 85 78 81 72 82 79 82 85 86 87 88 90 90 91 93 94 94 87 90 87 79 74 76 74 80 83 81 81 82 80 78 78 77 78 77 72
90 97 88 70 63 72 68 68 69 88 83 86 88 84 78 79 73 83 92 90 95 88 88 91 89 92 89 91 87 88 88 88 87 88 77 71 73 75 76 78 81 83 83 81 79 76 76 73 75
92 97 93 84 76 73 76 96 95 86 84 86 85 83 82 83 72 78 96 86 96 96 91 89 92 92 91 91 93 94 92 91 89 88 86 82 76 81 81 79 82 81 81 83 82 81 76 82 86
97 92 98 79 97 99 96 98 93 89 87 89 87 88 89 79 68 66 90 96 94 91 96 95 96 92 96 96 93 93 92 92 89 90 91 90 83 82 83 85 83 85 89 87 88 88 91 94 94
100 99 97 87 98 99 97 84 99 85 90 86 84 88 90 71 65 62 74 90 96 97 96 96 98 97 92 99 95 97 97 96 97 95 93 94 91 82 86 89 88 95 96 96 96 97 96 94 91
96 94 95 84 91 97 98 75 86 92 82 76 77 90 87 72 67 59 53 62 92 98 97 96 95 93 94 93 99 98 97 96 94 97 96 97 95 98 93 95 95 94 94 96 96 96 96 93 92
100 88 94 93 96 95 93 74 63 69 69 66 73 91 80 70 67 53 60 75 94 98 97 97 96 98 98 94 90 94 97 96 95 96 97 96 98 98 98 97 98 97 95 95 93 96 97 95 92
100 88 93 88 91 91 70 85 61 48 46 54 58 81 82 67 58 50 48 66 84 96 98 97 95 97 98 98 98 99 98 99 97 96 96 96 96 98 98 97 94 93 91 90 90 90 88 86 89
100 93 95 85 76 81 83 56 45 44 47 49 51 79 83 70 48 44 44 61 76 88 95 96 96 96 98 98 99 97 95 98 98 98 98 98 95 96 93 92 91 86 87 86 87 91 94 89 92
91 87 92 92 89 91 73 70 71 60 62 57 54 62 83 72 55 48 43 55 77 86 91 93 94 93 94 97 98 98 98 98 97 94 96 90 89 90 88 86 85 88 86 83 85 86 84 85 90
92 93 85 83 84 82 78 91 52 62 65 68 65 56 70 79 53 48 42 60 76 88 94 97 96 96 96 95 95 94 94 94 93 90 86 84 83 83 83 83 82 81 80 80 80 82 82 81 83
76 87 89 89 89 89 84 86 52 58 66 66 69 64 62 76 71 68 59 61 72 83 90 96 97 96 94 92 92 90 88 86 86 85 83 80 82 81 81 78 76 75 76 74 73 76 78 80 82

GFSSGP_sfc_rhum_114.txt.gz
RH
52 41 34 46 51 44 40 33 26 24 25 19 21 25 27 26 35 41 55 45 41 45 53 67 82 75 82 84 85 87 86 85 85 83 81 78 76 75 74 74 72 73 74 70 70 70 76 76 76
46 42 41 45 56 40 36 27 34 28 19 20 19 24 35 32 36 62 65 54 47 44 56 57 84 83 84 85 84 86 87 85 84 84 82 80 77 76 75 74 71 77 76 77 73 74 78 78 79
47 44 41 43 51 42 30 25 29 26 22 23 22 20 24 30 48 49 56 54 49 48 56 63 85 84 85 86 85 85 87 86 85 83 81 81 78 75 75 76 75 83 83 82 80 76 76 78 79
50 54 47 62 42 31 28 22 30 30 22 19 21 24 22 34 51 50 53 55 53 52 53 79 86 85 86 88 86 86 87 86 84 81 82 80 77 75 76 78 86 86 84 82 78 77 76 74 76
54 56 56 52 38 26 21 22 26 28 24 21 19 23 21 54 56 62 62 56 58 54 59 68 86 85 88 89 87 87 86 84 82 83 81 78 76 76 80 84 88 86 84 80 76 72 70 70 70
60 48 57 54 38 27 22 21 31 28 23 24 22 21 21 45 62 78 72 63 62 59 64 66 83 86 89 89 88 87 85 85 84 82 80 78 77 79 81 87 87 84 82 79 75 70 70 70 71
57 53 51 41 36 32 27 22 31 30 31 30 25 24 20 59 52 68 76 71 69 63 61 65 61 73 91 91 89 88 86 85 83 81 79 79 79 81 81 88 85 83 83 83 81 74 70 71 73
52 64 56 45 41 38 25 26 24 29 37 27 27 32 28 37 55 55 72 75 73 75 64 62 56 53 64 74 93 89 86 86 84 83 84 86 86 84 87 89 86 86 86 85 84 79 73 73 75
45 66 62 46 37 34 27 29 25 23 31 33 32 34 29 31 67 74 85 90 85 83 71 59 52 47 47 65 80 92 93 90 88 86 90 84 53 63 72 78 91 88 87 87 85 83 82 85 86
56 58 48 32 28 30 28 38 35 35 27 33 41 33 35 44 64 87 90 90 93 90 79 61 51 49 45 51 75 71 69 60 59 64 58 44 45 48 54 77 92 90 88 87 85 85 85 77 49
51 58 35 32 30 32 35 38 35 44 50 33 36 37 44 49 67 78 86 83 90 90 77 64 55 54 45 46 60 69 66 62 58 55 46 41 43 50 59 76 74 65 76 55 61 62 47 47 43
57 41 38 40 36 38 43 36 39 40 39 31 33 33 44 46 55 70 78 84 94 97 81 68 57 51 44 44 44 50 60 58 49 47 46 57 63 51 55 68 66 62 51 51 48 44 45 46 44
52 42 37 37 46 46 43 44 42 40 35 38 35 44 44 45 50 64 80 77 79 92 87 77 64 50 47 48 45 44 46 48 46 47 54 62 65 58 57 58 58 52 50 48 45 42 44 44 42
40 48 48 46 49 51 53 48 42 40 37 46 50 49 47 43 46 64 87 84 83 91 93 77 73 51 55 57 48 45 46 46 48 47 52 60 55 52 52 53 54 52 48 44 43 41 41 43 41
48 62 53 46 48 58 51 61 53 33 34 47 53 49 42 42 45 62 80 92 91 94 90 79 71 59 55 77 62 53 48 48 50 50 51 55 53 54 54 51 52 49 45 44 43 42 42 45 48
56 57 70 31 36 45 58 72 42 33 32 44 51 48 44 38 42 59 81 92 73 91 93 74 72 69 59 75 79 71 56 47 49 50 51 52 50 53 52 51 49 46 45 44 44 43 48 52 54
70 77 44 36 29 40 58 63 42 40 37 41 47 46 54 41 44 61 84 91 82 70 89 84 78 73 69 76 82 83 71 54 46 44 46 50 48 49 49 47 46 48 53 56 57 59 56 60 59
65 75 55 49 39 54 55 53 48 58 60 64 55 54 56 51 51 53 86 92 93 75 79 84 81 77 73 78 78 77 68 62 59 52 47 47 44 48 50 50 53 56 60 59 61 61 61 58 57
69 80 76 47 41 49 78 52 46 66 69 65 66 61 63 56 49 51 73 90 96 80 82 83 86 82 84 82 88 84 72 68 64 60 60 58 55 58 59 57 59 61 62 61 62 64 67 67 62
70 74 72 51 42 50 57 61 41 52 64 63 66 63 62 56 51 53 65 94 96 91 84 84 85 88 85 82 82 83 76 65 63 65 63 61 61 64 63 64 65 64 64 66 66 67 72 64 57
72 85 74 73 72 54 59 68 55 74 70 65 61 55 69 62 54 60 64 91 92 94 87 86 88 90 87 83 86 85 82 81 77 76 71 68 64 70 71 67 71 70 74 76 70 67 68 66 69
94 83 96 95 99 97 55 86 83 78 84 73 66 67 70 60 56 62 63 87 92 95 93 88 93 94 87 80 89 89 86 85 76 76 78 75 65 69 73 78 73 72 76 76 76 74 78 91 90
99 99 97 98 98 99 88 84 100 92 89 74 63 63 59 65 70 64 62 82 86 96 98 99 98 97 97 90 92 93 86 81 81 80 81 81 79 70 74 73 69 76 80 89 92 93 91 85 80
95 98 98 99 100 98 84 68 98 93 69 63 57 62 66 75 76 61 66 91 92 95 95 97 99 99 98 97 97 93 95 97 96 92 90 90 90 90 87 87 86 88 94 94 86 79 83 84 83
95 94 89 95 95 95 91 60 69 51 63 64 63 68 81 88 76 53 62 91 92 91 91 89 95 97 97 98 94 98 97 98 94 93 93 91 90 91 94 92 96 96 96 93 81 79 90 93 93
100 94 91 90 90 92 71 84 78 44 41 40 61 79 85 89 69 51 54 76 96 97 94 93 92 92 95 96 97 97 97 99 100 99 97 99 98 96 96 97 97 96 93 83 89 93 91 90 88
93 91 95 79 62 68 89 63 45 44 47 44 71 83 89 90 80 50 54 66 86 94 96 95 94 92 91 92 97 98 98 97 100 99 98 99 99 99 99 98 96 95 87 81 80 81 78 74 80
88 94 91 83 77 88 81 86 86 60 62 54 80 87 94 85 52 39 50 64 73 87 96 95 94 94 92 92 94 92 94 94 93 96 99 98 99 99 98 95 89 85 80 77 75 77 77 78 79
85 84 75 64 65 65 73 91 56 62 63 59 70 90 95 90 75 48 46 60 76 78 90 93 90 92 97 94 91 88 86 87 89 94 97 94 97 92 88 84 79 77 75 72 71 71 69 68 72
65 74 73 80 71 72 62 89 42 49 58 58 61 83 92 89 82 59 50 53 70 82 88 96 94 94 93 92 92 94 96 96 97 96 90 88 85 78 76 73 71 67 66 63 63 64 62 62 64

GFSSGP_sfc_rhum_117.txt.gz
RH
52 33 26 38 48 37 34 28 18 19 16 12 14 20 22 21 28 69 42 35 32 42 51 64 84 85 85 87 87 87 87 87 85 82 80 78 76 75 76 76 76 74 71 68 73 75 74 75 77
36 31 32 32 42 38 28 18 21 18 18 15 15 17 22 25 26 51 42 38 34 40 52 55 84 86 86 87 89 88 87 87 85 83 81 79 77 77 77 77 79 77 76 76 79 79 81 79 76
39 33 37 34 40 40 26 16 16 15 18 17 18 16 19 23 22 38 45 42 36 45 57 58 83 83 86 87 89 88 87 86 86 84 82 81 78 76 76 75 79 80 80 80 78 80 82 81 75
35 39 39 41 30 23 24 18 14 17 19 18 18 19 13 13 17 31 50 42 38 54 57 80 85 81 86 86 88 89 87 86 85 84 82 81 78 78 76 82 86 85 85 81 76 77 78 79 79
36 39 47 38 30 21 16 14 15 17 22 21 19 20 16 16 36 40 50 47 40 55 62 69 86 84 88 87 86 88 87 86 85 83 82 81 79 79 81 87 87 86 84 80 76 73 74 73 72
45 38 44 42 31 20 16 13 13 16 17 19 20 19 17 13 38 50 51 49 46 58 71 63 84 86 88 88 86 89 87 85 84 84 82 80 78 82 87 88 87 85 81 75 71 70 71 72 72
45 41 42 31 26 22 18 14 16 16 18 20 16 22 18 14 33 53 46 61 63 65 78 70 66 74 93 90 89 88 87 85 85 84 82 80 82 84 87 88 86 85 82 79 76 71 71 72 73
38 41 41 34 31 30 20 17 16 18 18 15 15 22 25 17 33 46 54 65 73 67 76 72 63 58 62 74 92 89 88 87 86 85 85 87 88 88 90 89 87 85 85 83 78 76 72 74 76
35 52 56 44 34 28 19 20 17 16 19 17 16 20 21 28 36 57 70 74 83 78 78 74 62 50 51 64 79 92 91 89 89 87 90 85 57 64 76 80 92 88 87 85 82 79 79 84 85
47 49 41 28 25 25 21 21 19 20 22 20 20 23 26 31 38 55 74 72 86 86 82 77 56 44 45 59 75 72 74 74 70 68 64 50 48 55 66 83 93 91 90 88 85 82 84 76 52
48 56 36 30 26 25 28 27 22 26 33 30 22 20 31 36 41 67 70 70 72 81 84 84 51 40 41 56 76 80 77 67 68 64 52 36 43 55 74 82 69 70 80 66 72 71 57 47 42
48 36 32 32 30 32 37 30 29 27 28 22 26 25 22 34 37 54 81 84 73 74 82 91 50 40 38 49 72 74 72 67 66 64 41 36 42 56 73 69 68 57 53 54 54 48 43 43 40
36 33 30 28 30 32 31 38 36 31 24 21 24 32 38 37 43 47 64 78 93 79 78 91 66 45 35 43 56 68 71 64 55 55 36 38 44 47 68 69 69 52 47 46 46 42 43 42 39
34 33 31 28 34 36 39 38 37 33 26 25 26 30 32 39 53 58 56 66 85 84 83 83 90 51 36 38 47 56 64 60 44 44 49 64 50 46 59 67 61 51 47 44 42 42 42 42 39
33 42 35 32 29 35 35 47 44 33 26 26 27 29 32 38 44 49 50 63 83 94 90 95 89 51 39 39 38 40 46 45 44 43 54 67 51 50 52 51 50 48 46 41 40 39 40 42 42
49 46 58 30 24 23 35 70 40 30 32 31 26 31 34 37 40 41 46 57 81 92 90 92 90 56 51 42 42 40 42 42 44 43 49 54 47 49 51 51 49 46 43 42 43 42 47 51 55
49 67 41 31 19 21 32 67 41 33 31 32 27 24 30 37 38 43 44 59 78 90 92 91 93 65 66 59 51 45 42 44 46 46 48 48 47 49 50 48 46 43 44 43 46 47 49 59 58
61 63 45 39 27 36 58 57 41 33 32 32 28 26 32 39 45 41 45 71 83 90 95 87 88 79 73 76 77 63 49 45 47 49 50 49 47 48 47 46 44 44 51 54 58 58 58 57 56
50 56 62 38 30 34 35 44 60 38 42 42 36 39 37 44 40 41 51 73 87 92 95 94 94 81 80 90 95 88 69 52 49 48 47 49 43 45 46 45 48 51 56 56 56 59 64 67 63
48 55 51 38 33 40 43 42 34 38 49 55 52 48 51 44 42 40 50 71 90 93 92 95 88 84 80 83 82 76 70 64 65 64 52 48 45 50 49 54 55 56 59 61 61 64 71 71 66
57 65 62 58 53 57 65 54 42 39 42 44 50 47 44 44 43 40 49 70 90 92 95 89 88 86 82 80 82 79 75 71 73 70 67 67 60 63 62 63 62 63 63 68 69 71 74 73 69
95 55 88 89 96 91 49 77 58 41 48 52 48 50 50 45 42 42 52 67 92 90 91 92 84 93 85 80 85 82 84 81 72 73 71 73 64 69 72 72 71 73 80 77 77 73 75 82 91
92 83 98 99 100 99 74 96 72 42 66 64 59 58 52 48 44 50 55 64 88 86 94 92 92 94 90 86 84 86 83 77 75 74 77 75 70 70 75 77 80 82 82 79 79 82 89 88 86
90 99 99 100 100 94 70 90 99 98 88 66 66 62 63 66 60 60 57 61 87 92 97 98 97 93 91 84 84 86 84 81 82 84 83 80 81 81 81 79 81 83 83 85 90 97 92 82 82
89 98 98 99 98 84 91 90 99 85 71 75 76 81 81 72 69 60 56 79 92 94 96 94 98 99 96 97 95 97 96 96 86 85 86 91 91 90 90 89 90 88 91 87 96 98 92 86 87
100 95 97 96 93 80 50 85 98 70 53 67 69 83 82 75 67 52 60 89 90 96 96 96 97 98 99 98 98 98 97 96 96 95 88 91 89 88 86 88 91 97 97 96 97 94 90 94 96
88 91 82 96 92 76 93 96 82 60 66 78 81 88 89 80 69 64 59 89 89 92 94 94 95 93 95 96 98 99 99 98 99 99 97 96 98 93 93 94 95 94 94 96 95 94 94 92 88
94 84 90 90 94 92 90 87 95 87 86 85 86 96 92 88 71 66 75 88 84 83 85 87 88 90 92 96 94 97 97 96 95 97 99 99 99 99 98 99 98 99 99 98 93 89 81 85 87
92 83 70 64 61 92 80 93 92 76 74 87 88 96 96 93 87 74 85 88 94 94 93 97 93 98 98 96 97 97 95 94 96 94 96 98 99 98 98 98 98 97 96 92 85 81 79 79 80
67 69 65 93 68 69 61 95 58 58 70 79 86 92 94 92 82 71 81 84 88 96 95 97 98 99 98 97 95 92 92 91 94 90 94 94 95 97 95 96 94 91 87 79 75 73 71 70 71

GFSSGP_sfc_rhum_120.txt.gz
RH
58 49 36 50 75 62 53 46 29 28 24 15 14 18 22 25 29 68 70 74 46 69 73 81 87 88 88 86 87 88 88 86 84 82 78 78 76 76 78 75 75 75 70 73 74 70 70 72 74
58 33 47 55 69 64 48 30 28 24 19 18 19 19 22 28 44 71 76 60 55 59 69 74 88 87 89 88 88 88 88 86 84 82 82 80 78 77 77 77 76 75 77 78 79 79 79 78 78
45 34 60 56 54 53 44 27 22 18 16 18 22 20 22 28 38 58 65 61 45 57 63 70 88 87 89 89 89 89 88 86 85 83 82 81 79 78 78 78 79 83 83 82 81 81 77 71 77
44 53 56 61 43 33 33 27 22 19 16 21 23 28 20 17 22 50 51 50 51 57 60 87 88 88 88 89 89 89 88 87 86 84 82 80 80 78 80 82 85 85 85 82 79 80 78 73 78
47 58 66 58 46 32 24 20 18 18 18 21 24 26 24 18 51 52 55 46 63 58 66 79 86 88 88 89 89 89 88 87 86 84 83 80 79 80 84 86 87 85 83 78 78 77 78 78 73
62 55 65 64 48 30 23 18 16 16 15 15 26 28 26 19 52 59 57 56 62 64 78 75 84 84 88 89 90 89 88 88 86 84 82 80 80 86 87 87 88 85 79 76 73 74 72 71 69
61 59 59 45 38 29 23 17 20 20 19 16 15 28 22 20 58 62 59 58 64 77 79 80 78 81 90 91 91 90 89 88 86 84 81 82 86 89 88 88 86 83 79 77 76 72 72 72 71
48 56 59 50 44 38 24 21 20 20 21 17 16 23 27 22 53 69 68 67 72 83 81 82 78 77 81 90 93 93 90 89 87 85 86 91 91 90 89 90 86 85 82 80 79 75 73 74 74
40 65 68 53 43 37 26 25 20 17 20 19 18 19 17 24 47 72 77 81 88 86 82 80 76 74 74 81 91 94 93 91 89 91 91 88 86 87 85 88 91 88 84 82 80 78 78 84 82
56 65 57 37 31 32 28 28 25 23 22 21 22 18 18 26 48 61 84 85 85 92 91 82 76 69 65 68 90 92 89 88 83 78 73 71 79 84 83 92 92 90 89 86 82 82 84 78 80
51 66 49 42 36 34 36 34 27 30 34 26 26 29 29 27 54 66 79 86 81 84 92 84 81 69 62 68 90 90 91 83 80 72 64 64 68 87 89 96 95 97 94 92 92 93 84 80 70
56 44 42 42 36 36 39 33 37 35 32 25 24 25 28 33 40 60 74 85 90 94 86 89 86 96 70 84 87 87 90 77 80 68 60 55 68 90 86 83 88 90 87 93 88 86 80 68 60
40 36 31 29 34 36 33 38 38 36 29 27 26 26 29 34 40 57 74 80 92 89 90 80 84 92 96 77 85 87 90 78 75 66 56 54 70 84 72 78 74 77 76 75 76 73 64 63 57
41 38 35 32 36 34 37 40 40 36 30 29 30 30 28 29 38 50 68 69 89 88 90 91 86 84 88 87 80 87 84 74 76 63 56 47 67 78 71 75 81 77 66 67 67 64 62 63 58
38 47 42 37 32 36 34 43 43 34 32 32 32 29 28 29 38 42 58 64 76 90 89 91 81 83 82 94 76 87 77 70 72 60 75 70 66 71 70 68 79 75 60 60 59 58 59 60 60
57 55 70 42 33 30 38 60 38 32 33 36 32 31 28 27 31 35 55 61 62 89 88 92 83 85 89 95 76 82 82 79 56 58 76 72 68 64 70 64 72 62 64 61 62 62 64 70 71
69 84 63 46 29 27 30 44 35 30 33 38 35 33 30 27 30 41 55 58 61 90 89 90 91 86 91 90 70 65 73 62 50 64 68 66 64 64 61 62 63 62 64 63 60 65 68 79 78
82 78 59 53 36 34 38 38 43 45 41 45 41 35 31 29 28 42 55 67 79 92 91 94 93 89 91 77 63 58 58 52 52 60 61 63 56 62 66 66 63 62 66 70 73 71 77 77 79
65 71 72 46 34 36 39 39 35 37 44 52 48 36 33 30 26 44 54 76 91 92 95 95 96 94 87 82 78 69 62 61 64 63 59 58 57 59 62 64 58 65 72 77 75 79 81 87 84
52 60 61 45 38 43 55 68 43 41 41 54 53 51 37 30 33 50 58 83 95 94 94 94 97 92 87 81 72 61 60 61 64 68 61 64 59 62 59 61 61 71 76 77 77 82 90 90 87
59 66 64 60 48 56 67 76 64 52 47 46 54 56 58 57 54 59 53 80 95 96 96 93 90 94 91 82 79 76 75 65 68 67 66 68 64 67 68 72 69 76 79 82 84 87 88 93 92
89 57 64 78 95 95 59 91 73 55 45 48 52 62 65 55 48 46 53 76 92 95 93 92 92 99 93 87 84 84 78 78 71 67 65 69 67 69 80 79 80 84 89 90 91 88 91 94 96
92 81 91 98 99 99 81 99 87 56 51 51 58 54 65 47 52 53 58 68 88 93 94 93 92 96 97 88 84 86 84 81 77 78 84 76 79 78 87 86 91 93 95 93 94 97 96 93 95
72 93 97 100 97 98 73 96 99 98 96 84 55 64 75 79 57 54 61 70 92 94 94 96 94 89 95 97 88 88 85 91 90 88 91 90 90 92 92 91 92 94 95 96 96 96 95 96 94
89 99 98 98 100 94 100 95 99 97 91 92 76 87 84 75 79 77 75 78 94 96 93 97 95 95 94 93 95 84 87 91 88 90 89 92 94 96 95 91 93 95 95 96 96 97 97 95 96
98 99 98 96 97 94 99 97 98 96 85 86 86 87 80 78 66 71 69 76 92 93 98 97 95 97 96 98 99 98 98 96 92 90 90 88 91 93 95 96 96 96 95 96 96 98 97 96 97
93 99 97 99 93 88 98 94 89 92 94 86 91 88 91 87 75 86 71 88 91 94 96 93 96 98 99 98 98 99 99 98 99 99 91 90 89 93 94 96 97 97 97 97 96 98 98 98 97
98 86 99 99 97 96 96 97 98 99 99 91 95 96 93 89 81 90 86 95 90 93 89 87 90 95 98 98 99 99 99 99 98 98 98 98 98 96 96 98 97 98 98 98 98 99 97 96 95
94 96 83 93 86 97 96 98 98 99 97 96 96 95 96 94 91 93 97 93 90 94 95 95 96 97 97 98 98 98 99 99 99 98 97 98 99 98 98 97 98 98 98 99 98 98 96 95 92
66 97 68 96 96 99 96 99 83 93 92 88 94 93 94 92 94 93 98 98 98 98 98 98 99 98 97 97 97 98 98 99 99 99 98 98 98 98 97 98 98 98 98 98 98 97 93 89 91